[[[{"header":{"parameterUnit":"kt","parameterCategory":2,"dx":1,"dy":1,"la1":29.285339999999998,"la2":30.599998999999997,"lo1":-89.70041500000002,"lo2":-87.6738589999976,"nx":112,"ny":82,"refTime":"2022-10-22T18:00:00:Z","depth":0,"parameterNumber":1,"parameterNumberName":"U-component_of_WINDS"},"data":[13.487,13.395,0.0,12.9478,12.9676,0.0,12.527,0.0,12.3494,0.0,11.8694,11.7247,11.5866,0.0,0.0,0.0,0.0,0.0,0.0,10.6003,0.0,0.0,0.0,0.0,0.0,0.0,0.0,0.0,0.0,0.0,0.0,0.0,14.2761,14.4208,14.5129,14.6575,14.8614,15.0521,15.2231,15.3809,15.4729,15.5387,15.5913,15.5913,15.5913,15.5913,15.5913,15.5913,15.5519,15.5056,15.4455,15.4051,15.2691,15.1435,15.0305,14.9439,14.7163,14.3774,14.0472,13.905,13.8359,13.7855,13.7797,13.7797,13.7797,13.7797,13.7797,13.7797,13.7797,13.7797,13.7797,13.7797,13.7797,13.7797,13.7797,13.7797,13.7797,13.7797,13.7797,13.7797,13.7797,13.7797,13.7797,13.7797,13.7797,13.7797,13.7797,13.7797,13.7797,13.6783,13.55,13.3415,13.0696,12.6649,12.1485,11.7644,11.4164,11.1477,11.0061,10.8451,10.6596,10.5815,10.4985,10.3863,10.3863,10.3521,10.2887,10.2619,10.2033,10.0954,9.8404,9.5588,0.0,0.0,12.7571,12.4218,0.0,0.0,0.0,0.0,0.0,11.6721,11.534,11.4091,11.2184,0.0,0.0,0.0,0.0,0.0,0.0,0.0,0.0,0.0,0.0,0.0,0.0,0.0,0.0,0.0,0.0,0.0,0.0,14.3551,14.4997,14.651,14.7891,14.9403,15.0916,15.2823,15.4006,15.4532,15.5453,15.5913,15.5913,15.5913,15.5913,15.5913,15.5913,15.5913,15.5913,15.5519,15.5321,15.5321,15.4253,15.3168,15.2066,15.1159,14.9439,14.7,14.2767,14.0227,13.8551,13.8107,13.7797,13.7797,13.7797,13.7797,13.7797,13.7797,13.7797,13.7797,13.7797,13.7797,13.7797,13.7797,13.7797,13.7797,13.7797,13.7797,13.7797,13.7797,13.7797,13.7797,13.7797,13.7797,13.7797,13.7797,13.7797,13.7797,13.7797,13.7349,13.6272,13.4723,13.2566,12.9613,12.5747,12.1044,11.676,11.3723,11.1721,11.011,10.8255,10.7523,10.645,10.4985,10.4936,10.4448,10.3375,10.3375,10.296,10.1813,10.0745,9.8732,0.0,0.0,0.0,11.8562,0.0,0.0,0.0,0.0,11.5472,11.1263,11.0474,11.0474,11.0408,0.0,0.0,0.0,0.0,0.0,0.0,0.0,0.0,0.0,0.0,0.0,0.0,0.0,0.0,0.0,0.0,0.0,14.5195,14.6444,14.7956,14.9535,15.0916,15.2362,15.3809,15.3875,15.4532,15.5913,15.5913,15.5913,15.5913,15.5913,15.5913,15.5913,15.5913,15.5913,15.5913,15.5913,15.5913,15.5913,15.5321,15.4455,15.3439,15.2755,15.1435,14.9376,14.5802,14.211,13.8801,13.8049,13.7855,13.7797,13.7797,13.7797,13.7739,13.7739,13.7739,13.7739,13.7739,13.7797,13.7797,13.7797,13.7797,13.7797,13.7797,13.7797,13.7797,13.7797,13.7797,13.7797,13.7797,13.7797,13.7797,13.7797,13.7797,13.7797,13.7797,13.7349,13.6585,13.6073,13.394,13.1501,12.8521,12.5747,12.1588,11.5932,11.4705,11.2697,10.9524,10.9378,10.8353,10.6205,10.6157,10.562,10.4448,10.4448,10.3641,10.1861,10.2875,10.1639,12.0141,11.8562,11.7642,11.3762,11.4091,11.4748,11.2644,11.2973,11.3104,11.0869,11.1263,0.0,0.0,0.0,0.0,0.0,0.0,11.4814,0.0,0.0,0.0,0.0,0.0,0.0,0.0,0.0,0.0,0.0,0.0,0.0,14.6641,14.8022,14.9995,15.2559,15.2954,15.3875,15.5321,15.5321,15.5519,15.5913,15.5913,15.5913,15.5913,15.5913,15.5913,15.5913,15.5913,15.5913,15.5913,15.5913,15.5913,15.5913,15.5716,15.5321,15.4455,15.3986,15.2691,15.0734,14.812,14.5343,14.235,13.9488,13.83,13.7797,13.7797,13.7215,13.6517,13.6517,13.6459,13.6459,13.6517,13.7157,13.7797,13.7797,13.7797,13.7797,13.7797,13.7797,13.7797,13.7797,13.7797,13.7797,13.7797,13.7797,13.7797,13.7797,13.7797,13.7797,13.7797,13.7602,13.7291,13.6585,13.5242,13.2831,13.0156,12.7141,12.3897,11.9856,11.6817,11.392,11.1721,11.1623,11.0598,10.8451,10.8402,10.7474,10.562,10.562,10.5034,10.369,10.3486,10.2234,11.5143,11.3039,11.2118,10.929,10.9422,11.0408,11.1132,11.146,11.1592,11.1329,0.0,0.0,0.0,0.0,0.0,0.0,11.6392,0.0,0.0,0.0,0.0,0.0,0.0,0.0,0.0,0.0,0.0,0.0,0.0,14.9995,14.9074,15.0455,15.2033,15.3743,15.4335,15.5058,15.5913,15.5913,15.5913,15.5913,15.5913,15.5913,15.5913,15.5913,15.5913,15.5913,15.5913,15.5913,15.5913,15.5913,15.5913,15.5913,15.5913,15.5716,15.5321,15.4857,15.3579,15.2002,14.8961,14.6293,14.3731,13.9953,13.8064,13.7175,13.6401,13.6168,13.5936,13.5412,13.5179,13.5296,13.5877,13.6575,13.7215,13.7681,13.7797,13.7797,13.7797,13.7797,13.7797,13.7797,13.7797,13.7797,13.7797,13.7797,13.7797,13.7797,13.7797,13.7797,13.7797,13.7797,13.7602,13.7291,13.6272,13.4723,13.2035,12.9341,12.6307,12.2627,11.9173,11.6524,11.4459,11.3724,11.2404,11.0696,11.0159,10.9085,10.7426,10.6986,10.6401,10.5766,10.5053,10.3455,11.0014,10.5805,10.4096,10.5542,10.5082,10.5739,11.146,0.0,11.1395,11.2973,0.0,0.0,0.0,0.0,0.0,0.0,0.0,0.0,0.0,0.0,0.0,0.0,0.0,0.0,0.0,0.0,0.0,14.96,15.0916,15.1639,15.1836,15.3086,15.3875,15.4006,15.5256,15.5913,15.5913,15.5913,15.5913,15.5913,15.5913,15.5913,15.5913,15.5913,15.5913,15.5913,15.5913,15.5913,15.5913,15.5913,15.5913,15.5913,15.5913,15.5913,15.5847,15.5124,15.426,15.2716,14.9097,14.6394,14.3786,13.996,13.7865,13.6702,13.4669,13.483,13.5354,13.4191,13.39,13.4191,13.547,13.5936,13.6343,13.7564,13.7797,13.7797,13.7797,13.7797,13.7797,13.7797,13.7797,13.7797,13.7797,13.7797,13.7797,13.7797,13.7797,13.7797,13.7797,13.7797,13.7797,13.7797,13.7349,13.6015,13.4202,13.2091,12.8795,12.4621,12.2052,11.9486,11.7171,11.5391,11.3819,11.2746,11.177,11.0647,10.9427,10.8499,10.7914,10.7621,10.6547,10.5199,10.5937,10.3504,10.2452,10.403,10.5082,10.7186,0.0,0.0,0.0,0.0,0.0,0.0,0.0,0.0,0.0,0.0,0.0,0.0,0.0,0.0,0.0,0.0,0.0,0.0,0.0,0.0,14.8285,15.0981,15.1442,15.2099,15.3283,15.3612,15.4335,15.5453,15.5782,15.5913,15.5913,15.5913,15.5913,15.5913,15.5913,15.5913,15.5913,15.5913,15.5913,15.5913,15.5913,15.5913,15.5913,15.5913,15.5913,15.5913,15.5913,15.5913,15.5782,15.4403,15.3552,15.25,14.9402,14.6976,14.4734,14.1187,13.8794,13.7211,13.5293,13.398,13.2853,13.2562,13.2504,13.2795,13.4132,13.5238,13.6343,13.7564,13.7797,13.7797,13.7797,13.7797,13.7797,13.7797,13.7797,13.7797,13.7797,13.7797,13.7797,13.7797,13.7797,13.7797,13.7797,13.7797,13.7797,13.7797,13.7349,13.6585,13.5557,13.3415,13.0696,12.7695,12.4621,12.1764,11.8899,11.7221,11.549,11.3868,11.3624,11.255,11.0549,11.0354,10.9378,10.7621,10.6547,10.5473,10.278,10.1728,10.2057,10.3635,10.5082,0.0,0.0,0.0,11.5735,0.0,0.0,0.0,0.0,0.0,0.0,0.0,0.0,0.0,0.0,0.0,0.0,0.0,0.0,0.0,0.0,0.0,14.9995,15.1507,15.2296,15.3283,15.4795,15.4861,15.519,15.5847,15.5913,15.5913,15.5913,15.5913,15.5913,15.5913,15.5913,15.5913,15.5913,15.5913,15.5913,15.5913,15.5913,15.5913,15.5913,15.5913,15.5913,15.5913,15.5913,15.5453,15.4729,15.4072,15.2895,15.1459,14.8979,14.7002,14.4971,14.1254,13.8718,13.6866,13.543,13.3357,13.1645,13.1406,13.1166,13.1457,13.2795,13.4074,13.5354,13.6575,13.7332,13.7797,13.7797,13.7797,13.7797,13.7797,13.7797,13.7797,13.7797,13.7797,13.7797,13.7797,13.7797,13.7797,13.7797,13.7797,13.7797,13.7797,13.7602,13.7037,13.6329,13.4723,13.2301,12.9613,12.6253,12.2913,11.978,11.7716,11.6328,11.4893,11.4405,11.3331,11.1721,11.1721,11.0842,10.9232,10.7084,10.5766,10.0084,10.015,10.1662,10.3569,10.5476,0.0,11.4617,11.6195,11.7839,0.0,0.0,0.0,0.0,0.0,0.0,0.0,0.0,0.0,0.0,0.0,0.0,0.0,0.0,0.0,0.0,0.0,15.2099,15.2428,15.3546,15.4664,15.5847,15.5913,15.5913,15.5913,15.5913,15.5913,15.5913,15.5913,15.5913,15.5913,15.5913,15.5913,15.5913,15.5913,15.5913,15.5913,15.5913,15.5913,15.5913,15.5913,15.5913,15.5913,15.5913,15.5058,15.3743,15.348,15.2236,15.0215,14.8261,14.6576,14.473,14.1341,13.8651,13.6443,13.5107,13.3124,13.1184,13.0473,13.0235,13.0526,13.1806,13.2911,13.4016,13.5296,13.6575,13.7448,13.7448,13.7681,13.7797,13.7797,13.7797,13.7797,13.7797,13.7797,13.7797,13.7797,13.7797,13.7797,13.7797,13.7797,13.7797,13.7797,13.7797,13.7544,13.7095,13.5758,13.3883,13.1233,12.7587,12.4285,12.1236,11.8604,11.6823,11.5926,11.4844,11.3917,11.2843,11.2843,11.216,11.0793,10.8011,10.645,9.7717,9.8703,10.0479,10.3306,10.6989,0.0,11.8957,12.1587,0.0,0.0,0.0,0.0,0.0,0.0,0.0,0.0,0.0,0.0,0.0,0.0,0.0,0.0,0.0,0.0,0.0,0.0,15.4072,15.5321,15.5584,15.5716,15.5913,15.5913,15.5913,15.5913,15.5913,15.5913,15.5913,15.5913,15.5913,15.5913,15.5913,15.5913,15.5913,15.5913,15.5913,15.5913,15.5913,15.5913,15.5913,15.5913,15.5913,15.5913,15.5913,15.5058,15.3612,15.2296,15.0916,14.928,14.7205,14.5857,14.4437,14.2189,13.9376,13.6859,13.4712,13.2647,13.1184,13.0473,13.0235,13.0526,13.1806,13.2213,13.2678,13.4016,13.5296,13.6226,13.6226,13.7041,13.7797,13.7797,13.7797,13.7797,13.7797,13.7797,13.7797,13.7797,13.7797,13.7797,13.7797,13.7797,13.7797,13.7797,13.7797,13.7797,13.7855,13.7095,13.5758,13.3415,13.0371,12.7034,12.3485,12.0604,11.8309,11.6873,11.5828,11.4991,11.3966,11.3966,11.2892,11.0842,10.9524,10.7865,9.6928,9.9032,10.1728,10.5542,0.0,0.0,12.0009,12.3692,0.0,0.0,0.0,0.0,0.0,0.0,0.0,0.0,0.0,0.0,0.0,0.0,0.0,0.0,0.0,0.0,0.0,0.0,0.0,0.0,15.5913,15.5913,15.5913,15.5913,15.5913,15.5913,15.5913,15.5913,15.5913,15.5913,15.5913,15.5913,15.5913,15.5913,15.5913,15.5913,15.5913,15.5913,15.5913,15.5913,15.5913,15.5913,15.5913,15.5847,15.4993,15.3809,15.2362,15.0916,14.9403,14.8022,14.7179,14.642,14.5406,14.3193,14.1106,13.8741,13.5371,13.3393,13.2064,13.0652,13.0235,13.0352,13.0875,13.1573,13.2271,13.2853,13.3958,13.5121,13.5877,13.6459,13.6983,13.7681,13.7273,13.6983,13.7681,13.7273,13.7041,13.7739,13.7797,13.7797,13.7797,13.7797,13.7797,13.7797,13.7797,13.7797,13.7797,13.7349,13.6015,13.4463,13.1501,12.8521,12.5185,12.2052,11.9486,11.7469,11.6873,11.6029,11.504,11.504,11.4259,11.2697,11.0354,10.8109,9.6665,0.0,0.0,0.0,0.0,0.0,0.0,0.0,0.0,0.0,0.0,0.0,0.0,0.0,0.0,0.0,0.0,0.0,0.0,0.0,0.0,0.0,0.0,0.0,0.0,0.0,0.0,0.0,15.5913,15.5913,15.5913,15.5913,15.5913,15.5913,15.5913,15.5913,15.5913,15.5913,15.5913,15.5913,15.5913,15.5913,15.5913,15.5913,15.5913,15.5913,15.5913,15.5913,15.5913,15.5913,15.5913,15.5782,15.4335,15.2888,15.1442,14.9995,14.8482,14.7167,14.7167,14.6795,14.6042,14.4244,14.2391,14.0069,13.642,13.4245,13.2701,13.0889,13.0473,13.0235,13.0235,13.0933,13.1573,13.1573,13.262,13.39,13.5238,13.5528,13.5994,13.7506,13.6866,13.6285,13.7157,13.6634,13.6343,13.7215,13.7622,13.7797,13.7797,13.7797,13.7797,13.7797,13.7797,13.7797,13.7797,13.7349,13.6528,13.55,13.2831,13.0156,12.7419,12.4054,12.0895,11.8654,11.7469,11.6525,11.5625,11.5625,11.5284,11.4503,11.1867,10.9134,0.0,0.0,0.0,0.0,0.0,0.0,12.5862,0.0,0.0,0.0,0.0,0.0,0.0,0.0,0.0,0.0,0.0,0.0,0.0,0.0,0.0,0.0,0.0,0.0,0.0,0.0,0.0,0.0,0.0,15.5913,15.5913,15.5913,15.5913,15.5913,15.5913,15.5913,15.5913,15.5913,15.5913,15.5913,15.5913,15.5913,15.5913,15.5913,15.5913,15.5913,15.5913,15.5913,15.5913,15.5913,15.5913,15.5782,15.4335,15.2888,15.1442,14.9995,14.8482,14.7167,14.7167,14.6795,14.6232,14.5021,14.2994,14.0278,13.7884,13.5087,13.2701,13.1596,13.0711,13.0235,13.0235,13.0235,13.0293,13.0293,13.1224,13.2562,13.39,13.4191,13.4889,13.7332,13.6866,13.6052,13.6052,13.6052,13.6052,13.6052,13.7099,13.7797,13.7797,13.7797,13.7797,13.7797,13.7797,13.7797,13.7797,13.7797,13.7544,13.684,13.4723,13.2622,13.0481,12.6027,12.2679,12.0364,11.8013,11.6525,11.5625,11.5625,11.5625,11.5577,11.4503,11.1721,9.9295,10.278,0.0,0.0,0.0,12.2639,12.7966,0.0,0.0,0.0,0.0,0.0,0.0,0.0,0.0,0.0,0.0,0.0,0.0,0.0,0.0,0.0,0.0,0.0,0.0,0.0,0.0,0.0,0.0,0.0,15.5913,15.5913,15.5913,15.5913,15.5913,15.5913,15.5913,15.5913,15.5913,15.5913,15.5913,15.5913,15.5913,15.5913,15.5913,15.5913,15.5913,15.5913,15.5913,15.5913,15.5321,15.4335,15.2888,15.1442,14.9995,14.8482,14.7628,14.7167,14.7167,14.6982,14.6608,14.5214,14.3787,14.172,13.8313,13.5756,13.3622,13.183,13.0711,13.0235,13.0235,13.0235,13.0235,13.0235,13.0526,13.1457,13.3667,13.3434,13.3318,13.5063,13.4307,13.3725,13.4598,13.4772,13.5063,13.5877,13.7041,13.7797,13.7797,13.7797,13.7797,13.7797,13.7797,13.7797,13.7797,13.7797,13.7602,13.684,13.5815,13.4202,13.2035,12.8521,12.5466,12.2627,11.978,11.8013,11.7171,11.6574,11.6226,11.5625,11.46,11.299,0.0,0.0,0.0,11.7379,12.1719,12.5599,0.0,0.0,0.0,0.0,0.0,0.0,0.0,0.0,0.0,0.0,0.0,0.0,0.0,0.0,0.0,0.0,0.0,0.0,0.0,0.0,0.0,0.0,0.0,0.0,15.5913,15.5913,15.5913,15.5913,15.5913,15.5913,15.5913,15.5913,15.5913,15.5913,15.5913,15.5913,15.5913,15.5913,15.5913,15.5913,15.5913,15.5913,15.5913,15.5913,15.5058,15.3612,15.2165,15.0718,14.9272,14.7693,14.7167,14.7167,14.7167,14.7167,14.6982,14.5853,14.4439,14.2593,13.9376,13.664,13.4305,13.2297,13.1125,13.0235,13.0235,13.0235,13.0235,13.0235,13.0235,13.0817,13.2969,13.2736,13.2504,13.3842,13.3027,13.2387,13.326,13.3783,13.4423,13.5238,13.675,13.7797,13.7797,13.7797,13.7797,13.7797,13.7797,13.7797,13.7797,13.7797,13.7602,13.7349,13.6585,13.5242,13.3359,13.0696,12.7695,12.4621,12.1475,11.9486,11.8949,11.7469,11.6525,11.5625,11.4991,11.4112,0.0,10.9619,0.0,12.1916,12.4875,0.0,0.0,0.0,0.0,0.0,0.0,0.0,0.0,0.0,0.0,0.0,0.0,0.0,0.0,0.0,0.0,0.0,0.0,0.0,0.0,0.0,0.0,0.0,0.0,15.5913,15.5913,15.5913,15.5913,15.5913,15.5913,15.5913,15.5913,15.5913,15.5913,15.5913,15.5913,15.5913,15.5913,15.5913,15.5913,15.5913,15.5913,15.5913,15.5913,15.5913,15.4993,15.3546,15.2099,15.0652,14.9206,14.7693,14.7167,14.7167,14.7167,14.7167,14.7167,14.6608,14.5021,14.2994,14.1311,13.7945,13.4532,13.3393,13.1596,13.0235,13.0235,13.0235,13.0235,13.0235,13.0235,13.0526,13.1748,13.2038,13.2387,13.3667,13.2911,13.2038,13.2097,13.326,13.4132,13.4249,13.6285,13.7797,13.7797,13.7797,13.7797,13.7797,13.7797,13.7797,13.7797,13.7797,13.7797,13.7797,13.7349,13.6272,13.4983,13.2035,12.9341,12.6307,12.3485,12.1475,12.0364,11.8013,11.6574,11.5625,11.5625,11.5088,0.0,0.0,12.0272,12.5335,12.9347,13.3161,0.0,0.0,0.0,0.0,0.0,0.0,0.0,0.0,0.0,0.0,0.0,0.0,0.0,0.0,0.0,0.0,0.0,0.0,0.0,0.0,0.0,0.0,0.0,15.5913,15.5913,15.5913,15.5913,15.5913,15.5913,15.5913,15.5913,15.5913,15.5913,15.5913,15.5913,15.5913,15.5913,15.5913,15.5913,15.5913,15.5913,15.5913,15.5913,15.5913,15.4401,15.2099,15.1705,14.9995,14.7693,14.7299,14.7167,14.7167,14.7167,14.7167,14.7167,14.6608,14.5214,14.3392,14.1311,13.8161,13.4983,13.3393,13.1596,13.0235,13.0235,13.0235,13.0235,13.0235,13.0235,13.0293,13.0642,13.0701,13.0817,13.1166,13.0933,13.0991,13.198,13.326,13.4481,13.5412,13.6866,13.7797,13.7797,13.7797,13.7797,13.7797,13.7797,13.7797,13.7797,13.7797,13.7797,13.7797,13.7602,13.7349,13.6272,13.4202,13.1768,12.9341,12.7365,12.5413,12.2965,12.0021,11.7716,11.6574,11.5926,11.5088,10.7975,11.7116,12.4941,0.0,13.2437,13.5988,13.8882,0.0,0.0,0.0,0.0,0.0,0.0,0.0,0.0,0.0,0.0,0.0,0.0,0.0,0.0,0.0,0.0,0.0,0.0,0.0,0.0,0.0,0.0,15.5913,15.5913,15.5913,15.5913,15.5913,15.5913,15.5913,15.5913,15.5913,15.5913,15.5913,15.5913,15.5913,15.5913,15.5913,15.5913,15.5913,15.5913,15.5913,15.5913,15.5913,15.4598,15.2494,15.1836,15.0192,14.8088,14.743,14.7167,14.7167,14.7167,14.7167,14.7167,14.6795,14.5597,14.4048,14.2391,13.9227,13.6039,13.4532,13.2529,13.0711,13.0711,13.0473,13.0235,13.0235,13.0235,13.0235,13.0235,13.0235,13.0235,13.0235,13.0235,13.0642,13.1922,13.326,13.454,13.5819,13.7041,13.7797,13.7797,13.7797,13.7797,13.7797,13.7797,13.7797,13.7797,13.7797,13.7797,13.7797,13.7797,13.7602,13.684,13.55,13.3678,13.1501,12.9885,12.7695,12.4621,12.1764,11.9193,11.7469,11.6525,11.5632,0.0,0.0,12.7703,0.0,13.4542,13.7435,0.0,0.0,14.3288,0.0,0.0,0.0,0.0,0.0,0.0,0.0,0.0,0.0,0.0,0.0,0.0,0.0,0.0,0.0,0.0,0.0,0.0,0.0,0.0,0.0,15.5913,15.5913,15.5913,15.5913,15.5913,15.5913,15.5913,15.5913,15.5913,15.5913,15.5913,15.5913,15.5913,15.5913,15.5913,15.5913,15.5913,15.5913,15.5913,15.5913,15.5058,15.3612,15.2165,15.0718,14.9272,14.7693,14.7167,14.7167,14.7167,14.7167,14.7167,14.7167,14.5977,14.4634,14.3654,14.063,13.7077,13.61,13.3622,13.142,13.1184,13.0711,13.0235,13.0235,13.0235,13.0235,13.0235,13.0235,13.0235,13.0235,13.0235,13.0642,13.1922,13.3376,13.483,13.611,13.7157,13.7797,13.7797,13.7797,13.7797,13.7797,13.7797,13.7797,13.7797,13.7797,13.7797,13.7797,13.7797,13.7602,13.7095,13.6329,13.4983,13.3095,13.1768,12.9341,12.6586,12.3485,12.0604,11.8358,11.7469,11.6525,11.2052,0.0,12.4218,13.1977,13.612,0.0,14.0328,14.1841,14.3288,0.0,0.0,0.0,0.0,0.0,0.0,0.0,0.0,0.0,0.0,0.0,0.0,0.0,0.0,0.0,0.0,0.0,0.0,0.0,0.0,0.0,15.5913,15.5913,15.5913,15.5913,15.5913,15.5913,15.5913,15.5913,15.5913,15.5913,15.5913,15.5913,15.5913,15.5913,15.5913,15.5913,15.5913,15.5913,15.5913,15.5913,15.5058,15.3612,15.2165,15.0718,14.9272,14.7693,14.7167,14.7167,14.7167,14.7167,14.7167,14.7167,14.5977,14.4634,14.4048,14.1106,13.7729,13.6701,13.4245,13.1771,13.1361,13.0711,13.0235,13.0235,13.0235,13.0235,13.0235,13.0235,13.0235,13.0235,13.0235,13.0642,13.1922,13.4132,13.611,13.7332,13.7681,13.7797,13.7797,13.7797,13.7797,13.7797,13.7797,13.7797,13.7797,13.7797,13.7797,13.7797,13.7797,13.7797,13.7602,13.7095,13.6528,13.6015,13.4202,13.2035,12.9613,12.5974,12.3147,12.0895,11.8604,11.7469,11.3894,0.0,0.0,13.132,0.0,13.9013,14.0394,14.1249,14.217,14.3616,0.0,0.0,0.0,0.0,0.0,0.0,0.0,0.0,0.0,0.0,0.0,0.0,0.0,0.0,0.0,0.0,0.0,0.0,0.0,0.0,0.0,15.5913,15.5913,15.5913,15.5913,15.5913,15.5913,15.5913,15.5913,15.5913,15.5913,15.5913,15.5913,15.5913,15.5913,15.5913,15.5913,15.5913,15.5913,15.5913,15.5519,15.4664,15.2428,15.1179,15.0324,14.8022,14.7167,14.7167,14.7167,14.7167,14.7167,14.7167,14.6355,14.5471,14.5021,14.2529,13.9649,13.8651,13.5817,13.2932,13.2297,13.1125,13.0235,13.0235,13.0235,13.0235,13.0235,13.0235,13.0235,13.0235,13.0759,13.1399,13.2038,13.4307,13.6459,13.7622,13.7797,13.7797,13.7797,13.7797,13.7797,13.7797,13.7797,13.7797,13.7797,13.7797,13.7797,13.7797,13.7797,13.7797,13.7797,13.7602,13.7095,13.684,13.55,13.3678,13.1501,12.8686,12.5921,12.3147,12.0895,11.8899,11.5801,12.0798,0.0,0.0,13.487,13.8158,13.9868,14.0263,14.0789,14.2498,14.3748,0.0,0.0,0.0,0.0,0.0,0.0,0.0,0.0,0.0,0.0,0.0,0.0,0.0,0.0,0.0,0.0,0.0,0.0,0.0,0.0,0.0,0.0,15.5913,15.5913,15.5913,15.5913,15.5913,15.5913,0.0,15.5913,15.5913,15.5913,15.5913,15.5913,15.5913,15.5913,15.5913,15.5913,15.5913,15.5913,15.565,15.3086,15.1902,15.1244,14.8614,14.743,14.7167,14.7167,14.7167,14.7167,14.7167,14.6795,14.6232,14.5787,14.3787,14.1579,14.034,13.7139,13.391,13.3163,13.1596,13.0235,13.0473,13.0235,13.0235,13.0235,13.0235,13.0235,13.0235,13.1224,13.2213,13.2504,13.4481,13.6459,13.7622,13.7797,13.7797,13.7797,13.7797,13.7797,13.7797,13.7797,13.7797,13.7797,13.7797,13.7797,13.7797,13.7797,13.7797,13.7797,13.7797,13.7602,13.7037,13.6329,13.5242,13.3359,13.1178,12.8412,12.5641,12.3147,12.0604,11.8891,0.0,0.0,13.0859,13.3358,0.0,13.8224,13.8816,13.9605,14.2301,0.0,14.3879,14.6641,0.0,0.0,0.0,0.0,0.0,0.0,0.0,0.0,0.0,0.0,0.0,0.0,0.0,0.0,0.0,0.0,0.0,0.0,0.0,0.0,0.0,15.5913,15.5913,15.5913,15.5913,15.5913,0.0,15.5913,15.5913,15.5913,15.5913,15.5913,15.5913,15.5913,15.5913,15.5913,15.5913,15.5913,15.5716,15.4203,15.2757,15.1376,14.9863,14.8351,14.7167,14.7167,14.7167,14.7167,14.7167,14.6795,14.642,14.642,14.4439,14.2253,14.0963,13.7729,13.4305,13.3163,13.1596,13.0473,13.0948,13.0711,13.0235,13.0235,13.0235,13.0235,13.0235,13.1224,13.2504,13.3725,13.5121,13.6459,13.7622,13.7797,13.7797,13.7797,13.7797,13.7797,13.7797,13.7797,13.7797,13.7797,13.7797,13.7797,13.7797,13.7797,13.7797,13.7797,13.7797,13.7855,13.7855,13.7095,13.6329,13.5557,13.3359,13.1178,12.8686,12.5132,12.234,11.4288,11.8825,0.0,12.5993,12.9281,13.2437,13.5397,0.0,0.0,0.0,14.1578,14.217,14.4208,14.526,0.0,0.0,0.0,0.0,0.0,0.0,0.0,0.0,0.0,0.0,0.0,0.0,0.0,0.0,0.0,0.0,0.0,0.0,0.0,0.0,15.5913,15.5913,15.5913,15.5913,15.5913,15.5913,15.5913,15.5913,15.5913,15.5913,15.5913,15.5913,15.5913,15.5913,15.5913,15.5913,15.5913,15.5782,15.4335,15.2888,15.1442,14.9995,14.8482,14.7167,14.7167,14.7167,14.7167,14.7167,14.6982,14.6795,14.6795,14.5406,14.3654,14.2593,13.9376,13.5978,13.4983,13.2761,13.0948,13.1184,13.0711,13.0235,13.0235,13.0235,13.0235,13.0235,13.1922,13.3493,13.4016,13.5761,13.7273,13.7739,13.7797,13.7797,13.7797,13.7797,13.7797,13.7797,13.7797,13.7797,13.7797,13.7797,13.7797,13.7797,13.7797,13.7797,13.7797,13.7797,13.7797,13.7797,13.7602,13.7095,13.6585,13.5242,13.3359,13.1178,12.7917,12.5185,11.1526,11.5801,0.0,12.2639,0.0,0.0,13.2306,13.3358,13.4739,13.8684,13.9802,14.0526,14.1972,14.309,0.0,0.0,0.0,0.0,0.0,0.0,0.0,0.0,0.0,0.0,0.0,0.0,0.0,0.0,0.0,0.0,0.0,0.0,0.0,0.0,15.5913,15.5913,15.5913,15.5913,15.5913,15.5913,15.5913,15.5913,15.5913,15.5913,15.5913,15.5913,15.5913,15.5913,15.5913,15.5913,15.5913,15.5782,15.4795,15.3283,15.1507,15.0455,14.8877,14.7167,14.7167,14.7167,14.7167,14.7167,14.7167,14.7167,14.7167,14.5977,14.4634,14.3851,14.0693,13.7295,13.61,13.4305,13.2297,13.183,13.1125,13.0473,13.0235,13.0235,13.0235,13.0235,13.2329,13.4132,13.4132,13.6168,13.7797,13.7797,13.7797,13.7797,13.7797,13.7797,13.7797,13.7797,13.7797,13.7797,13.7797,13.7797,13.7797,13.7797,13.7797,13.7797,13.7797,13.7797,13.7797,13.7797,13.7797,13.7544,13.7095,13.6585,13.5242,13.3095,13.0156,12.7141,11.2776,11.5735,11.7905,0.0,0.0,12.6388,12.9281,13.0991,13.2832,13.5857,13.7632,13.9079,14.046,14.0789,0.0,0.0,0.0,0.0,0.0,0.0,0.0,0.0,0.0,0.0,0.0,0.0,0.0,0.0,0.0,0.0,0.0,0.0,0.0,0.0,15.5913,15.5913,15.5913,15.5913,15.5913,15.5913,15.5913,15.5913,15.5913,15.5913,15.5913,15.5913,15.5913,15.5913,15.5913,15.5913,15.5913,15.5913,15.5847,15.4138,15.1573,15.1573,14.9732,14.7167,14.7167,14.7167,14.7167,14.7167,14.7167,14.7167,14.7167,14.5977,14.4634,14.4244,14.1106,13.8007,13.6701,13.6039,13.5147,13.3393,13.2064,13.0948,13.0473,13.0235,13.0235,13.0235,13.2329,13.4132,13.4132,13.6168,13.7797,13.7797,13.7797,13.7797,13.7797,13.7797,13.7797,13.7797,13.7797,13.7797,13.7797,13.7797,13.7797,13.7797,13.7797,13.7797,13.7797,13.7797,13.7797,13.7797,13.7797,13.7797,13.7797,13.7095,13.6015,13.4666,13.1768,12.8467,10.7646,11.0606,11.3499,11.7839,12.0798,12.3363,12.6256,12.9544,13.1977,13.1977,13.4739,13.7238,13.7698,13.9408,0.0,0.0,0.0,0.0,0.0,0.0,0.0,0.0,0.0,0.0,0.0,0.0,0.0,0.0,0.0,0.0,0.0,0.0,0.0,0.0,15.5913,15.5913,15.5913,15.5913,15.5913,15.5913,15.5913,15.5913,15.5913,15.5913,15.5913,15.5913,15.5913,15.5913,15.5913,15.5913,15.5913,15.5913,15.5913,15.4729,15.2954,15.1968,15.0389,14.8614,14.7496,14.7167,14.7167,14.7167,14.7167,14.7167,14.7167,14.6543,14.5787,14.5214,14.3129,14.09,14.0069,13.8375,13.626,13.4472,13.3163,13.2064,13.1125,13.0948,13.0944,13.1581,13.2911,13.4423,13.5296,13.675,13.7797,13.7797,13.7797,13.7797,13.7797,13.7797,13.7797,13.7797,13.7797,13.7797,13.7797,13.7797,13.7797,13.7797,13.7797,13.7797,13.7797,13.7797,13.7797,13.7797,13.7797,13.7797,13.7797,13.7544,13.7037,13.6015,13.3678,13.091,10.5871,10.8633,11.146,11.5735,11.7379,11.8891,12.2376,12.6059,12.8689,12.836,13.132,13.4147,13.4673,0.0,13.9408,14.0263,0.0,0.0,0.0,0.0,0.0,0.0,0.0,0.0,0.0,0.0,0.0,0.0,0.0,0.0,0.0,0.0,0.0,15.5913,15.5913,15.5913,15.5913,15.5913,15.5913,15.5913,15.5913,15.5913,15.5913,15.5913,15.5913,15.5913,15.5913,15.5913,15.5913,15.5913,15.5913,15.5913,15.5913,15.5058,15.3612,15.2099,15.0718,14.9272,14.7693,14.7167,14.7167,14.7167,14.7167,14.7167,14.7167,14.6795,14.6232,14.5977,14.4375,14.2593,14.2593,14.09,13.8589,13.626,13.4697,13.3393,13.183,13.1361,13.1299,13.2105,13.3202,13.454,13.5819,13.7041,13.7797,13.7797,13.7797,13.7797,13.7797,13.7797,13.7797,13.7797,13.7797,13.7797,13.7797,13.7797,13.7797,13.7797,13.7797,13.7797,13.7797,13.7797,13.7797,13.7797,13.7797,13.7797,13.7797,13.7797,13.7602,13.684,13.4983,13.2566,10.6463,10.8962,11.1,11.5274,11.4551,11.3894,11.8036,12.1324,12.3823,12.5007,12.7571,13.0004,0.0,13.4081,13.6251,13.6646,14.0,0.0,0.0,0.0,0.0,0.0,0.0,0.0,0.0,0.0,0.0,0.0,0.0,0.0,0.0,0.0,0.0,15.5913,15.5913,15.5913,15.5913,15.5913,15.5913,15.5913,15.5913,15.5913,15.5913,15.5913,15.5913,15.5913,15.5913,15.5913,15.5913,15.5913,15.5913,15.5913,15.5913,15.5058,15.3743,15.2296,15.085,14.9403,14.7825,14.7233,14.7167,14.7167,14.7167,14.7167,14.7167,14.6795,14.642,14.642,14.5021,14.3718,14.4048,14.3193,14.172,13.8437,13.664,13.5147,13.282,13.1948,13.1711,13.2396,13.3376,13.4656,13.5936,13.7099,13.7797,13.7797,13.7797,13.7797,13.7797,13.7797,13.7797,13.7797,13.7797,13.7797,13.7797,13.7797,13.7797,13.7797,13.7797,13.7797,13.7797,13.7797,13.7797,13.7797,13.7797,13.7797,13.7797,13.7797,13.7544,13.684,13.55,13.3359,10.403,10.5279,10.6529,11.0869,11.3894,11.6064,11.7116,12.0535,12.3231,12.2442,12.4546,0.0,0.0,13.1056,0.0,13.9013,13.9671,14.0854,0.0,0.0,0.0,0.0,0.0,0.0,0.0,0.0,0.0,0.0,0.0,0.0,0.0,0.0,15.5913,15.5913,15.5913,15.5913,15.5913,15.5913,15.5913,15.5913,15.5913,15.5913,15.5913,15.5913,15.5913,15.5913,15.5913,15.5913,15.5913,15.5913,15.5913,15.5913,15.5913,15.565,15.5256,15.3809,15.2362,15.0916,14.9469,14.8154,14.7167,14.7167,14.7167,14.7167,14.7167,14.7167,14.6982,14.6982,14.642,14.5597,14.5214,14.4375,14.3193,14.1106,13.9439,13.782,13.6477,13.5115,13.4484,13.5637,13.5601,13.5994,13.7215,13.7622,13.7797,13.7797,13.7797,13.7797,13.7797,13.7797,13.7797,13.7797,13.7797,13.7797,13.7797,13.7797,13.7797,13.7797,13.7797,13.7797,13.7797,13.7797,13.7797,13.7797,13.7797,13.7797,13.7797,13.7797,13.7855,13.7544,13.6783,13.5242,10.4161,10.5476,10.62,10.7186,10.9685,11.2052,11.2776,11.5801,11.8431,11.8299,12.0601,12.3034,0.0,0.0,13.0728,13.5857,0.0,14.0394,14.2761,0.0,0.0,0.0,0.0,0.0,0.0,0.0,0.0,0.0,0.0,0.0,0.0,0.0,15.5913,15.5913,15.5913,15.5913,15.5913,15.5913,15.5913,15.5913,15.5913,15.5913,15.5913,15.5913,15.5913,15.5913,0.0,15.5913,15.5913,15.5913,15.5913,15.5913,15.5913,15.5913,15.5782,15.5058,15.3875,15.2362,15.0981,14.9863,14.9074,14.8417,14.8219,14.8088,14.7365,14.7167,14.7167,14.7167,14.7967,14.8639,14.8192,14.7159,14.5604,14.3751,14.1611,13.9813,13.8412,13.6456,13.5666,13.6761,13.6549,13.6401,13.7622,13.7797,13.7797,13.7797,13.7797,13.7797,13.7797,13.7797,13.7797,13.7797,13.7797,13.7797,13.7797,13.7797,13.7797,13.7797,13.7797,13.7797,13.7797,13.7797,13.7797,13.7797,13.7797,13.7797,13.7797,13.7797,13.7797,13.7797,13.7095,13.5758,10.5016,10.6726,10.712,10.4885,10.5213,10.6463,10.7712,11.0014,11.2315,11.4025,11.6392,11.8694,0.0,12.3297,12.6519,0.0,0.0,13.9605,0.0,0.0,14.5326,0.0,0.0,0.0,0.0,0.0,0.0,0.0,0.0,0.0,0.0,15.5913,15.5913,15.5913,15.5913,15.5913,15.5913,15.5913,15.5913,15.5913,15.5913,15.5913,15.5913,15.5913,15.5913,0.0,0.0,15.5913,15.5913,15.5913,15.5913,15.5913,15.5913,15.5913,15.5913,15.5913,15.5124,15.3875,15.2428,15.177,15.1376,15.0192,14.9798,14.9535,14.7956,14.7628,14.7825,14.7825,14.9666,15.1573,15.0997,15.008,14.8587,14.6495,14.4326,14.1908,13.9851,13.7914,13.6613,13.7299,13.6841,13.6634,13.7622,13.7797,13.7797,13.7797,13.7797,13.7797,13.7797,13.7797,13.7797,13.7797,13.7797,13.7797,13.7797,13.7797,13.7797,13.7797,13.7797,13.7797,13.7797,13.7797,13.7797,13.7797,13.7797,13.7797,13.7797,13.7797,13.7797,13.7797,13.7349,13.6272,10.3832,10.449,10.4819,10.5608,10.5937,10.62,10.6397,10.7778,10.9685,11.2315,11.3236,11.4748,11.876,12.185,0.0,0.0,0.0,0.0,13.8421,14.1381,14.4142,14.6838,0.0,0.0,0.0,0.0,0.0,0.0,0.0,0.0,0.0,15.5913,15.5913,15.5913,15.5913,15.5913,15.5913,15.5913,15.5913,15.5913,15.5913,15.5913,15.5913,15.5913,15.5913,15.5913,0.0,0.0,15.5913,15.5913,15.5913,15.5913,15.5913,15.5913,15.5913,15.5913,15.5782,15.5387,15.394,15.2625,15.1573,15.1376,15.1244,15.0981,14.9535,14.9929,15.0916,15.0916,15.1244,15.1573,15.1573,15.1442,15.0862,14.9697,14.7847,14.6132,14.4522,14.1913,13.9832,13.9568,13.8375,13.7622,13.7797,13.7797,13.7797,13.7797,13.7797,13.7797,13.7797,13.7797,13.7797,13.7797,13.7797,13.7797,13.7797,13.7797,13.7797,13.7797,13.7797,13.7797,13.7797,13.7797,13.7797,13.7797,13.7797,13.7797,13.7797,13.7797,13.7797,13.7797,13.7855,13.7291,10.4753,10.5739,10.6463,10.712,10.6726,10.6331,10.712,10.7186,10.791,11.0803,11.0803,11.1329,11.488,11.7905,12.0864,0.0,12.8032,0.0,0.0,0.0,14.2498,14.4537,0.0,0.0,0.0,0.0,0.0,0.0,0.0,0.0,0.0,15.5913,15.5913,15.5913,15.5913,15.5913,15.5913,15.5913,15.5913,15.5913,15.5913,15.5913,15.5913,15.5913,15.5913,0.0,0.0,0.0,15.5913,15.5913,15.5913,15.5913,15.5913,15.5913,15.5913,15.5913,15.5913,15.5782,15.5124,15.4466,15.3809,15.302,15.2757,15.2494,15.1047,15.2165,15.3743,15.302,15.3349,15.394,15.394,15.3349,15.2564,15.1392,14.9282,14.6976,14.5648,14.2753,14.0371,13.9922,13.8859,13.7797,13.7797,13.7797,13.7797,13.7797,13.7797,13.7797,13.7797,13.7797,13.7797,13.7797,13.7797,13.7797,13.7797,13.7797,13.7797,13.7797,13.7797,13.7797,13.7797,13.7797,13.7797,13.7797,13.7797,13.7797,13.7797,13.7797,13.7797,13.7797,13.7797,13.7602,10.7449,0.0,10.9356,10.9751,10.8436,10.7318,0.0,10.7449,10.7252,10.9488,10.9356,10.9553,11.2052,11.488,11.8168,12.2311,12.6256,13.0004,13.3292,0.0,0.0,14.2038,14.7825,0.0,0.0,0.0,0.0,0.0,0.0,0.0,0.0,15.5913,15.5913,15.5913,15.5913,15.5913,15.5913,15.5913,15.5913,15.5913,15.5913,15.5913,15.5913,15.5913,15.5913,0.0,0.0,0.0,15.5913,15.5913,15.5913,15.5913,15.5913,15.5913,15.5913,15.5913,15.5913,15.5913,15.5913,15.5913,15.5716,15.4598,15.4269,15.4006,15.2559,15.3875,15.565,15.4598,15.5058,15.5913,15.5913,15.5058,15.4075,15.2891,15.0509,14.7804,14.6148,14.3181,14.0731,14.0227,13.8859,13.7797,13.7797,13.7797,13.7797,13.7797,13.7797,13.7797,13.7797,13.7797,13.7797,13.7797,13.7797,13.7797,13.7797,13.7797,13.7797,13.7797,13.7797,13.7797,13.7797,13.7797,13.7797,13.7797,13.7797,13.7797,13.7797,13.7797,13.7797,13.7797,13.7797,13.7544,0.0,11.317,11.2578,11.3894,11.2184,10.9817,10.8567,10.8238,0.0,10.8436,10.9422,11.0737,11.225,11.488,11.7839,12.093,12.3955,12.7374,0.0,13.2437,0.0,0.0,14.7233,0.0,0.0,0.0,0.0,0.0,0.0,0.0,0.0,15.5913,15.5913,15.5913,15.5913,15.5913,15.5913,15.5913,15.5913,15.5913,15.5913,15.5913,15.5913,15.5913,15.5913,0.0,0.0,0.0,0.0,15.5913,15.5913,15.5913,15.5913,15.5913,15.5913,15.5913,15.5913,15.5913,15.5913,15.5913,15.5847,15.5782,15.5716,15.5453,15.4072,15.4664,15.5847,15.5782,15.5847,15.5913,15.5913,15.5847,15.5519,15.439,15.2769,15.0479,14.7647,14.4526,14.211,14.0405,13.8859,13.7797,13.7797,13.7797,13.7797,13.7797,13.7797,13.7797,13.7797,13.7797,13.7797,13.7797,13.7797,13.7797,13.7797,13.7797,13.7797,13.7797,13.7797,13.7797,13.7797,13.7797,13.7797,13.7797,13.7797,13.7797,13.7797,13.7797,13.7797,13.7797,13.7797,13.7855,11.7444,11.8365,11.8102,11.8694,11.659,11.4288,11.3696,11.1526,10.9882,11.0737,10.9948,11.008,11.3302,11.4748,11.6787,12.0667,12.4415,12.7769,0.0,0.0,0.0,14.0263,0.0,0.0,0.0,0.0,0.0,0.0,0.0,0.0,0.0,15.5913,15.5913,15.5913,15.5913,15.5913,15.5913,15.5913,15.5913,15.5913,15.5913,15.5913,15.5913,15.5913,15.5913,0.0,0.0,0.0,0.0,15.5913,15.5913,15.5913,15.5913,15.5913,15.5913,15.5913,15.5913,15.5913,15.5913,15.5913,15.5913,15.5913,15.5913,15.5782,15.5256,15.5453,15.5913,15.5913,15.5913,15.5913,15.5913,15.5913,15.5716,15.452,15.2962,15.0947,14.8341,14.5404,14.2709,14.0776,13.9357,13.8359,13.7855,13.7797,13.7797,13.7797,13.7797,13.7797,13.7797,13.7797,13.7797,13.7797,13.7797,13.7797,13.7797,13.7797,13.7797,13.7797,13.7797,13.7797,13.7797,13.7797,13.7797,13.7797,13.7797,13.7797,13.7797,13.7797,13.7797,13.7797,13.7797,13.7797,12.2376,12.3626,12.3889,12.3428,12.1456,11.922,11.7905,11.5274,11.3039,11.2578,11.1329,11.1263,11.4157,11.5472,11.7247,12.0732,12.4875,12.8229,0.0,0.0,0.0,14.0328,14.5523,14.9535,0.0,0.0,0.0,0.0,0.0,0.0,0.0,15.5913,15.5913,15.5913,15.5913,15.5913,15.5913,15.5913,15.5913,15.5913,15.5913,15.5913,15.5913,15.5913,15.5913,0.0,0.0,0.0,0.0,15.5913,15.5913,15.5913,15.5913,15.5913,15.5913,15.5913,15.5913,15.5913,15.5913,15.5913,15.5913,15.5913,15.5913,15.5913,15.5913,15.5913,15.5913,15.5913,15.5913,15.5913,15.5913,15.5913,15.5716,15.4722,15.3168,15.1435,14.9221,14.632,14.3599,14.1688,14.0041,13.8801,13.8359,13.7855,13.7797,13.7797,13.7797,13.7797,13.7797,13.7797,13.7797,13.7797,13.7797,13.7797,13.7797,13.7797,13.7797,13.7797,13.7797,13.7797,13.7797,13.7797,13.7797,13.7797,13.7797,13.7797,13.7797,13.7797,13.7797,13.7797,13.7797,13.7797,12.7374,12.8821,12.9544,12.8097,12.6651,12.4481,12.0272,11.922,11.7905,11.3499,11.3762,11.4748,11.4748,11.7181,11.9615,12.1061,12.4941,12.8229,12.9676,13.2503,13.5988,0.0,0.0,14.5129,15.1047,0.0,0.0,0.0,0.0,0.0,0.0,15.5913,15.5913,15.5913,15.5913,15.5913,15.5913,15.5913,15.5913,15.5913,15.5913,15.5913,15.5913,15.5913,15.5913,0.0,0.0,0.0,0.0,15.5913,15.5913,15.5913,15.5913,15.5913,15.5913,15.5913,15.5913,15.5913,15.5913,15.5913,15.5913,15.5913,15.5913,15.5913,15.5913,15.5913,15.5913,15.5913,15.5913,15.5913,15.5913,15.5913,15.5716,15.5321,15.3847,15.2066,15.0305,14.7674,14.5003,14.3125,14.1204,13.9488,13.8801,13.8359,13.7797,13.7797,13.7797,13.7797,13.7797,13.7797,13.7797,13.7797,13.7797,13.7797,13.7797,13.7797,13.7797,13.7797,13.7797,13.7797,13.7797,13.7797,13.7797,13.7797,13.7797,13.7797,13.7797,13.7797,13.7797,13.7797,13.7797,13.7797,13.1385,13.27,13.2898,13.2437,13.0465,12.8295,12.6979,12.356,12.0272,11.8957,11.7379,11.6524,11.7642,11.9417,12.1127,0.0,12.7242,13.0859,13.132,13.566,13.9671,14.1972,0.0,14.6312,0.0,0.0,0.0,0.0,0.0,0.0,0.0,15.5913,15.5913,15.5913,15.5913,15.5913,15.5913,15.5913,15.5913,15.5913,15.5913,15.5913,15.5913,15.5913,15.5913,15.5913,15.5913,0.0,0.0,15.5913,15.5913,15.5913,15.5913,15.5913,15.5913,15.5913,15.5913,15.5913,15.5913,15.5913,15.5913,15.5913,15.5913,15.5913,15.5913,15.5913,15.5913,15.5913,15.5913,15.5913,15.5913,15.5913,15.5716,15.5321,15.4455,15.3168,15.1371,14.9439,14.7226,14.4942,14.3125,14.1204,13.9735,13.905,13.83,13.7855,13.7797,13.7797,13.7797,13.7797,13.7797,13.7797,13.7797,13.7797,13.7797,13.7797,13.7797,13.7797,13.7797,13.7797,13.7797,13.7797,13.7797,13.7797,13.7797,13.7797,13.7797,13.7797,13.7797,13.7797,13.7797,13.7797,13.4279,13.5594,13.5923,13.5331,13.3358,13.1188,12.9413,12.6322,12.3165,12.093,11.9943,11.9417,11.922,12.1258,12.3297,12.4152,12.8623,13.2372,13.3621,13.7764,14.1446,14.3485,14.4997,14.7365,0.0,0.0,0.0,0.0,0.0,0.0,15.5913,15.5913,15.5913,15.5913,15.5913,15.5913,15.5913,15.5913,15.5913,15.5913,15.5913,15.5913,15.5913,15.5913,15.5913,15.5913,15.5913,0.0,0.0,15.5913,15.5913,15.5913,15.5913,15.5913,15.5913,15.5913,15.5913,15.5913,15.5913,15.5913,15.5913,15.5913,15.5913,15.5913,15.5913,15.5913,15.5913,15.5913,15.5913,15.5913,15.5913,15.5913,15.5913,15.5519,15.4857,15.4188,15.2898,15.1223,14.9439,14.7226,14.4942,14.2888,14.0961,13.9547,13.8609,13.7797,13.7797,13.7797,13.7797,13.7797,13.7797,13.7797,13.7797,13.7797,13.7797,13.7797,13.7797,13.7797,13.7797,13.7797,13.7797,13.7797,13.7797,13.7797,13.7797,13.7797,13.7797,13.7797,13.7797,13.7797,13.7797,13.7797,13.6186,13.7632,13.829,13.6975,13.5462,13.3226,12.9018,12.79,12.619,12.0864,12.185,12.2902,12.0404,12.3231,12.5993,12.6125,12.9676,13.3358,13.6251,13.9079,14.1972,14.4734,14.6312,14.8285,15.1113,15.1507,15.2757,0.0,0.0,0.0,15.5913,15.5913,15.5913,15.5913,15.5913,15.5913,15.5913,15.5913,15.5913,15.5913,15.5913,15.5913,15.5913,15.5913,15.5913,15.5913,15.5913,0.0,0.0,15.5913,15.5913,15.5913,15.5913,15.5913,15.5913,15.5913,15.5913,15.5913,15.5913,15.5913,15.5913,15.5913,15.5913,15.5913,15.5913,15.5913,15.5913,15.5913,15.5913,15.5913,15.5913,15.5913,15.5913,15.5913,15.5519,15.5122,15.439,15.2898,15.1223,14.9503,14.6774,14.4009,14.223,14.0287,13.8609,13.7855,13.7797,13.7797,13.7797,13.7797,13.7797,13.7797,13.7797,13.7797,13.7797,13.7797,13.7797,13.7797,13.7797,13.7797,13.7797,13.7797,13.7797,13.7797,13.7797,13.7797,13.7797,13.7797,13.7797,13.7797,13.7797,13.7797,13.7435,13.8356,13.8553,13.8224,13.6186,13.3753,13.1583,12.9281,12.7045,12.4678,12.4678,12.527,12.5796,12.7571,12.9347,13.0399,13.3358,13.612,13.7895,14.0591,14.3025,14.48,14.6312,14.7891,14.9732,15.0916,0.0,15.4138,0.0,0.0,15.5913,15.5913,15.5913,15.5913,15.5913,15.5913,15.5913,15.5913,15.5913,15.5913,15.5913,15.5913,15.5913,15.5913,15.5913,15.5913,15.5913,0.0,0.0,15.5913,15.5913,15.5913,15.5913,15.5913,15.5913,15.5913,15.5913,15.5913,15.5913,15.5913,15.5913,15.5913,15.5913,15.5913,15.5913,15.5913,15.5913,15.5913,15.5913,15.5913,15.5913,15.5913,15.5913,15.5913,15.5913,15.5519,15.5056,15.3847,15.2548,15.0861,14.7897,14.5173,14.2888,14.0836,13.9416,13.8107,13.7797,13.7797,13.7797,13.7797,13.7797,13.7797,13.7797,13.7797,13.7797,13.7797,13.7797,13.7797,13.7797,13.7797,13.7797,13.7797,13.7797,13.7797,13.7797,13.7797,13.7797,13.7797,13.7797,13.7797,13.7797,13.7797,13.6975,13.8093,13.8619,13.8619,13.6975,13.4936,13.3424,13.1385,12.9149,12.7045,12.7703,12.8426,12.7834,13.007,13.224,13.2963,13.5002,13.7435,14.0263,14.1907,14.3616,14.5786,14.6707,14.7759,14.9337,15.0126,15.1442,15.3612,0.0,15.4861,15.4861,15.4861,15.519,15.5847,15.5913,15.5913,15.5913,15.5913,15.5913,15.5913,15.5913,15.5913,15.5913,15.5913,15.5913,15.5913,15.5913,0.0,15.5913,15.5913,15.5913,15.5913,15.5913,15.5913,15.5913,15.5913,15.5913,15.5913,15.5913,15.5913,15.5913,15.5913,15.5913,15.5913,15.5913,15.5913,15.5913,15.5913,15.5913,15.5913,15.5913,15.5913,15.5913,15.5913,15.5716,15.5519,15.5122,15.4253,15.2755,15.1287,14.8562,14.5864,14.3125,14.108,13.9416,13.8107,13.7797,13.7797,13.7797,13.7797,13.7797,13.7797,13.7797,13.7797,13.7797,13.7797,13.7797,13.7797,13.7797,13.7797,13.7797,13.7797,13.7797,13.7797,13.7797,13.7797,13.7797,13.7797,13.7797,13.7797,13.7797,13.7797,13.5923,13.7304,13.829,13.8553,13.7501,13.6054,13.4673,13.3358,13.1648,12.8952,13.0333,13.132,12.9215,13.1846,13.441,13.4673,13.5857,13.8224,14.2301,14.2827,14.3945,14.6773,14.7167,14.7628,14.8943,14.9337,0.0,0.0,0.0,15.3151,15.3414,15.3414,15.4072,15.5519,15.5519,15.565,15.5913,15.5913,15.5913,15.5913,15.5913,15.5913,15.5913,15.5913,15.5913,15.5913,15.5913,0.0,15.5913,15.5913,15.5913,15.5913,15.5913,15.5913,15.5913,15.5913,15.5913,15.5913,15.5913,15.5913,15.5847,15.5584,15.5716,15.5913,15.5913,15.5913,15.5913,15.5913,15.5913,15.5913,15.5913,15.5913,15.5913,15.5913,15.5519,15.5122,15.4922,15.4051,15.2755,15.0861,14.8562,14.5802,14.2888,14.108,13.9416,13.8107,13.7797,13.7797,13.7797,13.7797,13.7797,13.7797,13.7797,13.7797,13.7797,13.7797,13.7797,13.7797,13.7797,13.7797,13.7797,13.7797,13.7797,13.7797,13.7797,13.7797,13.7797,13.7797,13.7797,13.7797,13.7797,13.7797,13.5331,13.658,13.704,13.829,13.7501,13.6054,13.4673,13.4147,13.3555,13.178,13.1714,13.2306,13.3292,13.395,13.4739,13.5923,13.7369,13.9408,14.2433,14.2827,14.3945,14.6773,14.7167,14.7233,14.743,14.868,14.9666,14.9995,15.0061,15.0587,15.1836,15.1902,15.2559,15.4006,15.4072,15.4664,15.5847,15.5913,15.5913,15.5913,15.5913,15.5913,15.5913,15.5913,15.5913,15.5913,0.0,0.0,15.5913,15.5913,15.5913,15.5913,15.5913,15.5913,15.5913,15.5913,15.5913,15.5913,15.5913,15.5913,15.565,15.4466,15.4927,15.5913,15.5913,15.5913,15.5913,15.5913,15.5913,15.5913,15.5913,15.5913,15.5913,15.5913,15.5519,15.4922,15.4455,15.3783,15.2548,14.9937,14.7,14.4243,14.217,14.0287,13.8609,13.7855,13.7797,13.7797,13.7797,13.7797,13.7797,13.7797,13.7797,13.7797,13.7797,13.7797,13.7797,13.7797,13.7797,13.7797,13.7797,13.7797,13.7797,13.7797,13.7797,13.7797,13.7797,13.7797,13.7797,13.7797,13.7797,13.7797,13.224,13.4542,13.658,13.7238,13.7501,13.7501,13.6909,13.612,13.5331,13.4607,13.3818,13.349,13.4213,13.5002,13.5725,0.0,0.0,0.0,14.1381,14.2367,14.3616,14.5721,14.6641,14.7167,14.7167,14.7759,14.8548,0.0,14.868,14.8811,15.0324,15.0389,15.1047,15.2494,15.2559,15.3283,15.4729,15.5519,15.5913,15.5913,15.5913,15.5913,15.5913,15.5913,15.5913,15.5913,0.0,15.5913,15.5913,15.5913,15.5913,15.5913,15.5913,15.5913,15.5913,15.5913,15.5387,15.4729,15.4729,15.4138,15.3349,15.2757,15.2954,15.348,15.348,15.348,15.348,15.348,15.348,15.3677,15.4466,15.4729,15.4927,15.5716,15.5321,15.452,15.3847,15.3027,15.1921,15.0,14.6774,14.3774,14.1447,13.9794,13.8609,13.7797,13.7797,13.7797,13.7797,13.7797,13.7797,13.7797,13.7797,13.7797,13.7797,13.7797,13.7797,13.7797,13.7797,13.7797,13.7797,13.7797,13.7797,13.7797,13.7797,13.7797,13.7797,13.7797,13.7797,13.7797,13.7157,13.6808,12.9018,13.1977,13.4936,13.5725,13.6975,13.8093,13.8093,13.7501,13.6975,13.6975,13.5857,13.487,13.487,13.5725,13.6449,13.6449,13.7632,0.0,14.0526,14.1644,14.2827,14.4274,14.5721,14.6641,14.6641,14.6904,0.0,0.0,14.7628,14.7628,14.8811,14.8877,14.9535,15.0981,15.1047,15.177,15.3217,15.4269,15.4795,15.4795,15.4795,15.4795,15.4795,15.4795,15.4795,15.4795,15.4795,15.4795,15.4795,15.4795,15.4795,15.4795,15.4795,15.4795,15.4795,15.4795,15.4138,15.3151,15.2823,15.1968,15.1047,15.1047,15.131,15.1573,15.1573,15.1573,15.1573,15.1573,15.1573,15.1836,15.2954,15.348,15.4072,15.5124,15.486,15.4116,15.3439,15.234,15.1138,15.0064,14.7288,14.4304,14.193,14.0041,13.8609,13.7797,13.7797,13.7797,13.7797,13.7797,13.7797,13.7797,13.7797,13.7797,13.7797,13.7797,13.7797,13.7797,13.7797,13.7797,13.7797,13.7797,13.7797,13.7797,13.7506,13.739,13.739,13.7041,13.6866,13.6866,13.5936,13.5528,12.6716,12.8952,13.0925,13.3753,13.5528,13.658,13.658,13.7567,13.8487,13.8487,13.7369,13.6317,13.6317,13.6383,13.6449,13.6449,13.7632,13.9145,14.0526,14.0789,14.1381,14.2761,14.4274,14.5129,14.5129,14.6378,0.0,14.5392,0.0,14.7167,14.7233,14.7233,14.7956,14.9535,14.96,15.0258,15.1705,15.177,15.1836,15.1836,15.1836,15.1836,15.1836,15.1836,15.1836,15.1836,15.1836,15.1836,15.1836,15.1836,15.1836,15.1836,15.1836,15.1836,15.1836,15.1836,15.177,15.1507,15.0192,14.9666,14.96,14.96,15.0521,15.1573,15.1573,15.1573,15.1573,15.1573,15.1573,15.1639,15.1705,15.2757,15.3809,15.3875,15.414,15.4116,15.3439,15.213,15.0647,14.9347,14.7637,14.5819,14.3895,14.102,13.8609,13.7797,13.7797,13.7797,13.7797,13.7797,13.7797,13.7797,13.7797,13.7797,13.7797,13.7797,13.7797,13.7797,13.7797,13.7797,13.7797,13.7797,13.7797,13.7797,13.6692,13.611,13.611,13.4889,13.4307,13.4307,13.4249,13.4249,12.2902,12.527,12.7571,12.9544,13.1846,13.3555,13.3555,13.4739,13.5857,13.5857,13.4673,13.3884,13.487,13.5068,13.5397,13.6251,13.7632,13.8816,13.9342,14.0131,14.092,14.1446,14.2761,14.3616,0.0,0.0,0.0,14.3682,14.4997,14.5786,14.5786,14.6641,14.743,14.7956,14.7956,14.868,15.0258,15.0258,15.0718,15.1573,15.1573,15.1573,15.1573,15.1573,15.1573,15.1573,15.1573,15.1573,15.1573,15.1573,15.1573,15.1573,15.1573,15.1573,15.1573,15.1573,15.1047,14.9995,14.8482,14.7956,14.7956,14.7956,14.8351,14.8745,14.8745,14.8745,14.8745,14.8745,14.8745,14.8943,14.9995,15.0652,15.1244,15.2165,15.2897,15.3087,15.2217,15.1968,15.1351,14.9347,14.8085,14.6216,14.413,14.1748,13.9547,13.8107,13.7797,13.7797,13.7797,13.7797,13.7797,13.7797,13.7797,13.7797,13.7797,13.7797,13.7797,13.7797,13.7099,13.6692,13.6692,13.5877,13.547,13.547,13.5005,13.483,13.483,13.4365,13.4132,13.4132,13.326,13.2853,11.9417,12.1587,12.3757,12.5204,12.7308,12.9149,12.9149,13.0267,13.1517,13.1977,13.1254,13.1122,13.3161,13.3555,13.4016,13.5462,13.6909,13.7895,13.7895,13.9145,14.0,14.0,14.1249,0.0,0.0,0.0,0.0,14.2104,14.3485,14.4274,14.4274,14.5195,14.5918,14.6444,14.6444,14.7167,14.868,14.868,14.914,15.0126,15.0126,15.0126,15.0126,15.0126,15.0126,15.0126,15.0126,15.0126,15.0126,15.0126,15.0126,15.0126,15.0126,15.0126,15.0126,15.0126,14.9535,14.8548,14.7496,14.7167,14.7167,14.7167,14.7167,14.7167,14.7167,14.7167,14.7167,14.7167,14.7167,14.7365,14.8229,14.8886,14.9288,15.0014,15.0741,15.1191,15.0121,15.0076,14.946,14.796,14.6426,14.4858,14.3024,14.0909,13.9102,13.7849,13.7466,13.7099,13.6634,13.6575,13.6575,13.6575,13.6575,13.6575,13.6575,13.6575,13.6575,13.6575,13.5819,13.5412,13.5412,13.4598,13.4132,13.4132,13.3667,13.3434,13.3434,13.3027,13.2795,13.2795,13.1922,13.1457,11.6261,11.7708,11.922,12.0667,12.2113,12.3231,12.3231,12.4349,12.5796,12.7177,12.7506,12.836,13.1254,13.178,13.2306,13.4016,13.5397,13.6317,13.6383,13.7632,13.8553,13.8553,13.9802,14.0657,0.0,14.0591,14.0591,14.0657,14.1972,14.2761,14.2761,14.2827,14.3485,14.4931,14.4997,14.5655,14.7102,14.7102,14.7102,14.7167,14.7167,14.7167,14.7167,14.7167,14.7167,14.7167,14.7167,14.7167,14.7167,14.7167,14.7167,14.7167,14.7167,14.7167,14.7167,14.7167,14.7167,14.7167,14.7167,14.7167,14.7167,14.7167,14.7167,14.7167,14.7167,14.7167,14.7167,14.7167,14.7167,14.6982,14.6608,14.7467,14.8388,14.7421,14.7668,14.8031,14.7624,14.6241,14.4974,14.4974,14.3026,14.1309,14.0631,13.8501,13.7032,13.767,13.6621,13.547,13.4249,13.4132,13.4132,13.4132,13.4132,13.4132,13.4132,13.4132,13.4132,13.4132,13.4074,13.4074,13.4074,13.4016,13.4016,13.4016,13.2736,13.2097,13.2038,13.0817,13.0235,13.0235,13.0177,13.0177,11.1526,11.2513,11.317,11.4617,11.6064,11.7379,11.8431,11.9812,12.1324,12.2771,12.3034,12.3889,12.6782,12.7308,12.8492,13.2043,13.2963,13.3621,13.4739,13.612,13.704,13.704,13.829,13.875,13.7698,13.7632,13.8093,13.9145,14.0526,14.1315,14.1315,14.2301,14.3025,14.3419,14.3419,14.4142,14.5589,14.5589,14.6115,14.7167,14.7167,14.7167,14.7167,14.7167,14.7167,14.7167,14.7167,14.7167,14.7167,14.7167,14.7167,14.7167,14.7167,14.7167,14.7167,14.7167,14.7167,14.7167,14.7167,14.7167,14.7167,14.7167,14.7167,14.7167,14.7167,14.7167,14.7167,14.7167,14.7167,14.6982,14.6608,14.6682,14.682,14.5669,14.6576,14.7017,14.5807,14.5479,14.506,14.3401,14.1858,14.0282,13.8905,13.7328,13.6076,13.5947,13.4272,13.3434,13.4016,13.4132,13.4132,13.4132,13.4132,13.4132,13.4132,13.4132,13.4132,13.4132,13.3202,13.2678,13.2678,13.1806,13.1282,13.1282,13.0933,13.0759,13.0759,13.041,13.0235,13.0177,12.9246,12.8839,10.7318,10.7712,10.8107,10.9488,11.0014,11.0934,11.3565,11.3959,11.442,11.705,11.7116,11.7773,12.1258,12.1916,12.3363,0.0,12.8952,13.007,13.2174,13.3687,13.4805,13.5462,13.5725,13.5791,13.5594,13.6054,13.6777,13.7632,13.9013,13.9868,13.9868,14.0657,14.1381,14.1907,14.1972,14.263,14.4077,14.4142,14.4537,14.5326,14.5326,14.5655,14.6247,14.6247,14.6575,14.7167,14.7167,14.7167,14.7167,14.7167,14.7167,14.7167,14.7167,14.7167,14.7036,14.5786,14.5326,14.5326,14.5326,14.5326,14.5326,14.5326,14.5326,14.5326,14.5326,14.5326,14.5458,14.6049,14.6247,14.6193,14.6101,14.5853,14.5406,14.3851,14.3897,14.3665,14.2287,14.1737,14.1163,13.9974,13.8351,13.6986,13.5891,13.4779,13.3889,13.317,13.2047,13.1631,13.2387,13.2504,13.2504,13.2504,13.2504,13.2504,13.2504,13.2504,13.2504,13.2504,13.1748,13.134,13.134,13.0119,12.9421,12.9421,12.8897,12.8607,12.8607,12.8607,12.8607,12.8607,12.785,12.7211,10.2846,10.278,10.3109,10.4359,10.3832,10.4096,0.0,10.712,10.6529,11.0474,11.0606,11.1132,11.5143,11.5998,11.7576,12.1982,12.3757,12.5664,12.8755,13.0399,13.1714,13.2963,13.1846,13.178,13.3621,13.5002,13.5857,13.6186,13.7567,13.8356,13.8356,13.8553,13.9211,14.046,14.0526,14.1183,14.2564,14.263,14.2696,14.2827,14.2827,14.3551,14.48,14.48,14.5458,14.6641,14.6641,14.6641,14.6641,14.6641,14.6641,14.6641,14.6641,14.6641,14.6378,14.3814,14.2827,14.2827,14.2827,14.2827,14.2827,14.2827,14.2827,14.2827,14.2827,14.2827,14.309,14.4405,14.48,14.488,14.5259,14.4824,14.3793,14.1808,14.0378,13.9337,13.8128,13.6675,13.5473,13.525,13.3958,13.2761,13.2761,13.183,13.0831,12.9828,12.977,12.977,12.977,12.9886,13.0003,13.0003,13.0119,13.0235,13.0235,13.0061,13.0003,13.0003,12.9886,12.977,12.977,12.8665,12.8083,12.8083,12.6978,12.6396,12.6396,12.6396,12.6396,12.6396,12.6222,12.5291,0.0,0.0,0.0,0.0,0.0,0.0,0.0,10.0413,10.1399,10.3372,10.5476,10.7581,10.9619,11.0869,11.3104,11.7444,11.8365,12.0009,12.4152,12.5927,12.6519,12.5664,12.5335,12.6585,13.0399,13.0991,13.2174,13.4542,13.6054,13.6843,13.6843,13.7961,13.875,13.9013,13.9013,13.9737,14.1117,14.1117,14.1709,14.2827,14.2827,14.3025,14.3288,14.3288,14.3419,14.3682,14.3682,14.3682,14.3682,14.3682,14.3682,14.3682,14.3682,14.3682,14.3616,14.3025,14.2827,14.2827,14.2827,14.2827,14.2827,14.2827,14.2827,14.2827,14.2827,14.2827,14.2893,14.3156,14.3288,14.3172,14.2333,14.1838,14.1082,13.8946,13.7949,13.6935,13.4859,13.4593,13.4237,13.2294,13.2049,13.2123,13.0889,13.0652,12.9774,12.7443,12.7152,12.7152,12.7152,12.8025,12.8665,12.8665,12.9595,13.0235,13.0235,12.9246,12.8665,12.8665,12.7734,12.7152,12.7152,12.692,12.6803,12.6803,12.6513,12.6396,12.6396,12.6396,12.6396,12.6396,12.5291,12.3023,0.0,0.0,0.0,0.0,0.0,0.0,0.0,0.0,0.0,0.0,0.0,10.1334,0.0,0.0,10.837,11.1987,11.3762,11.5998,11.9615,12.1456,12.2113,12.139,12.1916,12.3494,12.6388,12.7966,12.9676,13.1911,13.3424,13.487,13.6383,13.7106,13.7895,13.8619,13.8619,13.8947,13.9671,13.9671,14.0065,14.0723,14.0723,14.1117,14.1775,14.1775,14.217,14.2827,14.2827,14.2827,14.2827,14.2827,14.2827,14.2696,14.1315,14.0723,14.0723,14.0723,14.0723,14.0723,14.0723,14.0723,14.0723,14.0723,14.0723,14.0723,14.0723,14.0723,14.0854,14.1578,14.1775,14.1793,14.1356,14.0555,13.9415,13.7265,13.5713,13.4266,13.2513,13.1981,13.1363,12.9854,12.9703,12.9483,12.855,12.8316,12.785,12.6571,12.6396,12.6396,12.6396,12.6978,12.7385,12.7385,12.7909,12.8316,12.8316,12.7734,12.7385,12.7385,12.6745,12.6396,12.6396,12.5756,12.5407,12.5407,12.4186,12.3546,12.3546,12.2906,12.2615,12.2557,12.058,11.866,0.0,0.0,0.0,0.0,0.0,0.0,0.0,0.0,0.0,0.0,0.0,0.0,0.0,0.0,0.0,10.6529,10.9159,11.2052,11.5537,11.659,11.7247,11.7839,11.8891,12.0404,12.2442,12.4678,12.6782,12.8492,12.9939,13.2043,13.5002,13.5462,0.0,13.7764,13.7764,13.7895,13.8224,13.8224,13.8356,13.8619,0.0,0.0,14.0328,14.0328,14.092,14.2038,14.2038,14.2038,14.2038,14.2038,14.2038,14.1775,13.8882,13.7764,13.7764,13.7764,13.7764,13.7764,13.7764,13.7764,13.7764,13.7764,13.7764,13.7764,13.7764,13.7764,0.0,13.9145,13.9474,13.956,13.9596,13.8693,13.7365,13.5206,13.3484,13.1781,13.0433,12.9643,12.8996,12.804,12.7597,12.7317,12.6396,12.5989,12.564,12.564,12.564,12.564,12.564,12.5873,12.6047,12.6047,12.6222,12.6396,12.6396,12.6629,12.6571,12.6047,12.628,12.628,12.6047,12.5,12.4302,12.407,12.2092,12.0696,11.994,11.8893,11.8253,11.7962,11.5112,11.3658,0.0,0.0,0.0,0.0,0.0,0.0,0.0,0.0,0.0,0.0,0.0,0.0,0.0,0.0,0.0,0.0,10.3832,10.6857,11.225,11.1,11.0474,11.2973,11.3433,11.5143,11.922,11.9943,12.1258,12.3955,12.5533,12.7571,13.0465,0.0,0.0,0.0,0.0,13.5397,13.6646,13.6646,13.7304,13.8619,13.8619,13.8684,13.8882,13.8882,13.8947,13.9079,13.9079,13.9079,13.9079,13.9079,13.9079,13.8816,13.5923,13.4805,13.4805,13.4805,13.4805,13.4805,13.4805,0.0,0.0,13.4805,13.4805,13.4805,13.4805,13.4805,13.487,13.5002,13.5068,13.4897,13.3926,13.3951,13.3516,13.1509,13.1152,13.0619,12.8555,12.8893,12.9035,12.6844,12.7402,12.7774,12.6627,12.4535,12.3023,12.3023,12.3023,12.3023,12.3023,12.3953,12.4651,12.4651,0.0,0.0,12.6396,12.7443,12.7094,12.4768,12.5756,12.5873,12.4651,12.4477,12.3895,12.2848,12.2557,12.0696,11.7264,11.709,11.645,11.5228,11.1564,10.9237,0.0,0.0,0.0,0.0,0.0,0.0,0.0,0.0,0.0,0.0,0.0,0.0,0.0,0.0,0.0,0.0,10.0019,10.3175,10.4753,10.5476,10.6529,10.8567,11.0277,11.2052,11.3894,11.5603,11.7444,11.9483,12.0995,12.3494,12.7177,12.79,12.9347,13.1648,13.2569,13.3226,13.3818,13.4739,13.5528,13.612,13.612,13.612,13.612,13.612,13.612,0.0,13.612,13.612,13.612,13.612,13.612,0.0,0.0,0.0,0.0,0.0,13.1714,13.1714,13.1714,13.1714,13.1714,13.1714,13.1714,13.1714,13.1714,13.1714,13.1714,13.1714,13.2306,13.2796,13.171,13.1703,13.1291,12.9173,12.7934,12.6835,12.52,12.539,12.5498,12.4139,12.482,0.0,12.2877,12.1907,12.151,12.151,12.215,12.2615,12.2615,12.3081,12.3372,12.3372,12.3837,12.4186,12.4186,12.4709,0.0,0.0,0.0,12.3953,12.3372,12.2674,0.0,0.0,0.0,0.0,0.0,0.0,0.0,0.0,10.4816,10.3537,0.0,0.0,0.0,0.0,0.0,0.0,0.0,0.0,0.0,0.0,0.0,0.0,0.0,0.0,0.0,0.0,0.0,9.8835,9.7388,9.9755,10.2254,10.4096,10.6857,10.883,10.9225,11.1526,11.3565,11.4946,11.6129,11.8628,12.2968,12.3165,12.4481,12.744,12.8492,12.9413,13.0202,13.132,13.2306,13.3095,13.349,13.3687,13.3687,13.4147,13.4344,13.4344,13.4344,13.4344,13.4279,13.3884,13.3687,13.3292,12.9149,12.7506,12.7506,12.7506,12.7506,12.7506,12.7506,12.7506,12.7506,12.7506,12.7506,12.7506,12.7506,12.7506,12.7506,12.7506,12.8395,12.9282,12.8452,12.862,12.8669,12.6592,12.5512,12.4627,12.3223,12.3225,12.3077,12.2439,12.2188,12.1404,11.929,11.9227,11.9765,12.0114,12.0987,0.0,12.2034,12.2092,12.2208,12.2557,12.2615,12.2615,12.2615,12.2906,12.2964,12.2615,12.2906,12.279,12.2092,12.1568,11.9998,11.738,11.5752,11.4007,0.0,0.0,0.0,0.0,0.0,0.0,0.0,0.0,0.0,0.0,0.0,0.0,0.0,0.0,0.0,0.0,0.0,0.0,0.0,0.0,0.0,0.0,0.0,0.0,9.1404,9.3706,9.6599,9.9427,10.2386,10.4753,10.6134,10.7646,10.9093,11.054,11.0671,11.2578,11.6853,11.7116,11.8497,12.1456,12.1587,12.2968,12.573,12.5796,12.7242,13.0004,13.1385,13.2043,13.2109,13.3621,13.4344,13.4344,13.4344,13.4344,13.4213,13.27,13.2043,13.1385,12.4283,12.1522,12.1522,12.1522,12.1522,12.1522,12.1522,12.1522,12.1522,12.1522,12.1522,12.1522,12.1522,12.1522,12.1522,12.1522,12.2264,12.3064,12.2426,12.3787,12.4838,12.3268,12.4331,12.5149,12.3608,12.3524,12.3421,12.239,12.0173,11.8127,11.705,11.6857,11.738,11.866,11.8893,0.0,12.0638,12.0754,12.1219,12.2499,12.2615,12.2615,12.2615,12.3662,12.3837,12.2674,12.3721,12.3255,12.087,12.1917,12.1336,11.8776,11.6217,11.1855,10.5689,0.0,0.0,0.0,0.0,0.0,0.0,0.0,0.0,0.0,0.0,0.0,0.0,0.0,0.0,0.0,0.0,0.0,0.0,0.0,0.0,0.0,0.0,0.0,0.0,0.0,9.2391,9.627,9.844,10.015,10.1662,10.3043,10.4096,10.4556,10.5608,10.7646,11.1,11.1197,11.2513,11.5406,11.7313,11.876,11.9746,12.1719,12.3231,12.4218,12.4678,12.5401,12.6322,12.6914,12.7637,12.8558,12.8558,12.7966,12.7111,12.6585,12.4612,12.1522,11.7181,11.5472,11.5472,11.5472,11.6064,11.6918,11.6918,11.6918,11.6787,11.5801,11.5472,11.5472,11.5472,11.5472,11.5472,11.5472,11.6885,11.8331,11.787,11.9384,12.0792,12.0333,11.9816,11.9488,11.9301,11.9958,11.9842,11.7972,11.4718,11.2621,11.3459,11.3166,11.3658,11.5868,11.6915,11.7613,11.8078,11.9649,12.087,12.1278,12.2092,12.2615,12.2615,12.2964,12.2674,12.1452,12.1743,12.0812,11.8195,11.6915,11.5403,11.3658,11.0284,10.6678,10.2781,0.0,0.0,0.0,0.0,0.0,0.0,0.0,0.0,0.0,0.0,0.0,0.0,0.0,0.0,0.0,0.0,0.0,0.0,0.0,0.0,0.0,0.0,0.0,0.0,0.0,0.0,9.0944,9.3574,0.0,9.6402,9.8243,9.9361,9.9361,10.0282,10.2123,10.5016,10.5213,10.6529,10.9356,11.1789,11.3236,11.3762,11.6195,11.7642,11.8168,11.922,12.0206,12.1127,12.2179,12.3165,12.402,12.402,12.356,12.2508,11.9878,11.6524,11.2841,11.0934,10.9948,10.9488,10.9488,11.008,11.0869,11.0869,11.1197,11.1395,10.9948,10.9488,10.9488,10.9488,10.9488,10.9619,11.008,11.1495,11.3023,11.3249,11.4917,11.6362,11.6117,11.5998,11.5906,11.5237,11.622,11.6101,11.2581,10.9995,10.8912,11.0575,11.082,11.1508,11.3015,11.472,11.5865,11.5555,11.7322,11.9184,12.058,12.1452,12.2092,12.2557,12.2208,12.1568,12.0754,11.9823,11.8137,11.5519,11.3425,11.0808,10.7667,10.4758,10.1792,0.0,0.0,0.0,0.0,0.0,0.0,0.0,0.0,0.0,0.0,0.0,0.0,0.0,0.0,0.0,0.0,0.0,0.0,0.0,0.0,0.0,0.0,0.0,0.0,0.0,0.0,0.0,8.371,8.7853,0.0,0.0,0.0,0.0,9.4824,9.4824,9.6073,9.8901,9.9032,10.0413,10.3372,10.4885,10.6397,10.7844,10.9422,11.0869,11.225,11.5077,11.6458,11.659,11.9417,12.0798,12.0798,12.0798,12.0798,12.0141,11.2973,10.837,10.5871,10.5805,10.495,10.3635,10.3569,10.3569,10.3569,10.3569,10.449,10.5476,10.4096,10.3701,10.3635,10.3569,10.3569,0.0,0.0,10.6184,10.7066,10.8563,11.045,11.1763,11.0898,11.3003,11.4427,11.1456,11.2379,11.2013,0.0,10.5887,10.6924,10.795,0.0,11.036,11.005,11.2331,11.3715,11.2525,11.3774,11.6101,11.9823,12.0405,12.0987,12.215,12.1161,12.0463,12.0347,11.7904,11.5345,11.2785,11.1215,10.755,10.1385,9.9814,0.0,0.0,0.0,0.0,0.0,0.0,0.0,0.0,0.0,0.0,0.0,0.0,0.0,0.0,0.0,0.0,0.0,0.0,0.0,0.0,0.0,0.0,0.0,0.0,0.0,0.0,7.3255,7.5162,7.9107,8.154,8.3316,0.0,0.0,0.0,0.0,0.0,0.0,9.147,9.1601,9.2917,9.581,9.8309,10.0347,10.1794,10.5411,10.7383,10.7778,10.9619,11.1066,11.2052,11.2841,11.3762,11.4748,11.4748,11.4157,11.271,10.6463,10.3438,10.2715,10.1662,10.0347,9.8966,9.7848,9.752,9.752,9.752,9.844,9.9558,9.9164,0.0,9.8901,9.7848,0.0,0.0,0.0,0.0,10.1603,10.4283,10.5895,10.6861,10.6908,10.7235,10.7577,10.7502,10.7994,10.5966,0.0,9.9125,10.1465,10.1034,0.0,0.0,0.0,0.0,10.7279,10.6115,10.9412,11.2378,11.3367,11.6043,11.7555,11.6915,11.7439,11.6973,11.5054,11.3367,11.1331,10.883,10.47,10.1268,9.8709,0.0,0.0,0.0,0.0,0.0,0.0,0.0,0.0,0.0,0.0,0.0,0.0,0.0,0.0,0.0,0.0,0.0,0.0,0.0,0.0,0.0,0.0,0.0,0.0,0.0,0.0,0.0,6.8389,7.069,7.3715,7.5425,7.6674,0.0,0.0,0.0,0.0,0.0,0.0,0.0,0.0,0.0,8.9234,9.2719,9.4955,9.581,10.0084,10.2254,10.232,10.4424,10.5805,10.6594,10.7318,10.8041,10.8764,10.8764,10.6529,10.2649,9.9953,9.7717,9.6007,0.0,0.0,0.0,0.0,9.1075,9.0615,9.1273,9.1996,0.0,9.2654,0.0,0.0,0.0,0.0,0.0,0.0,0.0,0.0,0.0,0.0,0.0,10.3344,10.3547,10.3526,10.2376,10.0015,9.6875,0.0,9.3753,9.527,9.5945,0.0,0.0,0.0,0.0,10.4145,10.1279,10.534,10.8946,11.0051,11.2611,11.4181,11.4065,11.4181,11.3425,11.1447,10.9586,10.7143,10.4002,10.057,9.6789,0.0,0.0,0.0,0.0,0.0,0.0,0.0,0.0,0.0,0.0,0.0,0.0,0.0,0.0,0.0,0.0,0.0,0.0,0.0,0.0,0.0,0.0,0.0,0.0,0.0,0.0,0.0,0.0,0.0,6.6482,6.7928,0.0,0.0,0.0,0.0,0.0,0.0,0.0,0.0,0.0,0.0,0.0,0.0,0.0,8.93,8.9497,9.3969,9.627,9.627,9.9164,10.0545,10.061,10.2123,10.2846,10.278,10.186,0.0,9.2062,9.2917,0.0,0.0,0.0,0.0,0.0,0.0,0.0,0.0,0.0,0.0,0.0,0.0,0.0,0.0,0.0,0.0,0.0,0.0,0.0,0.0,0.0,0.0,10.0293,9.8858,9.972,9.9726,0.0,9.0217,8.6874,8.9724,8.9118,0.0,0.0,0.0,0.0,0.0,0.0,0.0,9.7374,10.1559,10.5689,10.7957,10.9412,11.0691,11.1913,11.0749,10.9528,10.8481,10.5863,10.2839,9.9465,9.7604,0.0,0.0,0.0,0.0,0.0,0.0,0.0,0.0,0.0,0.0,0.0,0.0,0.0,0.0,0.0,0.0,0.0,0.0,0.0,0.0,0.0,0.0,0.0,0.0,0.0,0.0,0.0,0.0,0.0,0.0,0.0,0.0,0.0,0.0,0.0,0.0,0.0,0.0,0.0,0.0,0.0,0.0,0.0,0.0,0.0,0.0,0.0,0.0,0.0,0.0,9.3245,9.4626,9.4692,9.6139,9.6796,9.6468,9.0418,8.713,8.5749,0.0,0.0,0.0,0.0,0.0,0.0,0.0,0.0,0.0,0.0,0.0,0.0,0.0,0.0,0.0,0.0,0.0,0.0,0.0,0.0,0.0,0.0,0.0,0.0,0.0,9.0224,8.9172,0.0,0.0,0.0,0.0,0.0,0.0,0.0,0.0,0.0,0.0,0.0,0.0,9.3299,9.8302,10.2315,10.2781,10.4933,10.6445,10.6678,10.5456,10.4642,10.4409,10.0977,9.8709,0.0,0.0,0.0,0.0,0.0,0.0,0.0,0.0,0.0,0.0,0.0,0.0,0.0,0.0,0.0,0.0,0.0,0.0,0.0,0.0,0.0,0.0,0.0,0.0,0.0,0.0,0.0,0.0,0.0,0.0,0.0,0.0,0.0,0.0,0.0,0.0,0.0,0.0,0.0,0.0,0.0,0.0,0.0,0.0,0.0,0.0,0.0,0.0,0.0,0.0,0.0,0.0,0.0,0.0,0.0,0.0,0.0,0.0,0.0,7.8384,0.0,0.0,0.0,0.0,0.0,0.0,0.0,0.0,0.0,0.0,0.0,0.0,0.0,0.0,0.0,0.0,0.0,0.0,0.0,0.0,0.0,0.0,0.0,0.0,0.0,0.0,0.0,0.0,0.0,0.0,0.0,0.0,0.0,0.0,0.0,0.0,0.0,0.0,0.0,0.0,8.917,9.4521,9.8767,9.9407,10.121,10.2373,10.2373,10.2373,10.1559,9.9523,9.772,0.0,0.0,0.0,0.0,0.0,0.0,0.0,0.0,0.0,0.0,0.0,0.0,0.0,0.0,0.0,0.0,0.0,0.0,0.0,0.0,0.0,0.0,0.0,0.0,0.0,0.0,0.0,0.0,0.0,0.0,0.0,0.0,0.0,0.0,0.0,0.0,0.0,0.0,0.0,0.0,0.0,0.0,0.0,0.0,0.0,0.0,0.0,0.0,0.0,0.0,0.0,0.0,0.0,0.0,0.0,0.0,0.0,0.0,0.0,7.5359,0.0,0.0,0.0,0.0,0.0,0.0,0.0,0.0,0.0,0.0,0.0,0.0,0.0,0.0,0.0,0.0,0.0,0.0,0.0,0.0,0.0,0.0,0.0,0.0,0.0,0.0,0.0,0.0,0.0,0.0,0.0,0.0,0.0,0.0,0.0,0.0,0.0,0.0,0.0,0.0,0.0,8.5912,9.1613,9.6266,9.7546,9.8302,9.8942,9.9523,9.9756,9.8593,9.5568,9.4346,0.0,0.0,0.0,0.0,0.0,0.0,0.0,0.0,0.0,0.0,0.0,0.0,0.0,0.0,0.0,0.0,0.0,0.0,0.0,0.0,0.0,0.0,0.0,0.0,0.0,0.0,0.0,0.0,0.0,0.0,0.0,0.0,0.0,0.0,0.0,0.0,0.0,0.0,0.0,0.0,0.0,0.0,0.0,0.0,0.0,0.0,0.0,0.0,0.0,0.0,0.0,0.0,0.0,0.0,0.0,0.0,0.0,0.0,0.0,0.0,0.0,0.0,0.0,0.0,0.0,0.0,0.0,0.0,0.0,0.0,0.0,0.0,0.0,0.0,0.0,0.0,0.0,0.0,0.0,0.0,0.0,0.0,0.0,0.0,0.0,0.0,0.0,0.0,0.0,0.0,0.0,0.0,0.0,0.0,0.0,0.0,0.0,0.0,0.0,0.0,0.0,8.4574,9.1031,9.6266,9.7546,9.6731,9.708,9.9349,9.6499,9.4405,9.4056,0.0,0.0,0.0,0.0,0.0,0.0,0.0,0.0,0.0,0.0,0.0,0.0,0.0,0.0,0.0,0.0,0.0,0.0,0.0,0.0,0.0,0.0,0.0,0.0,0.0,0.0,0.0,0.0,0.0,0.0,0.0,0.0,0.0,0.0,0.0,0.0,0.0,0.0,0.0,0.0,0.0,0.0,0.0,0.0,0.0,0.0,0.0,0.0,0.0,0.0,0.0,0.0,0.0,0.0,0.0,0.0,0.0,0.0,0.0,0.0,0.0,0.0,0.0,0.0,0.0,0.0,0.0,0.0,0.0,0.0,0.0,0.0,0.0,0.0,0.0,0.0,0.0,0.0,0.0,0.0,0.0,0.0,0.0,0.0,0.0,0.0,0.0,0.0,0.0,0.0,0.0,0.0,0.0,0.0,0.0,0.0,0.0,0.0,0.0,0.0,0.0,0.0,8.1899,8.8704,9.3939,9.5219,9.4928,9.5044,9.6033,9.5452,9.3648,9.0566,0.0,0.0,0.0,0.0,0.0,0.0,0.0,0.0,0.0,0.0,0.0,0.0,0.0,0.0,0.0,0.0,0.0,0.0,0.0,0.0,0.0,0.0,0.0,0.0,0.0,0.0,0.0,0.0,0.0,0.0,0.0,0.0,0.0,0.0,0.0,0.0,0.0,0.0,0.0,0.0,0.0,0.0,0.0,0.0,0.0,0.0,0.0,0.0,0.0,0.0,0.0,0.0,0.0,0.0,0.0,0.0,0.0,0.0,0.0,0.0,0.0,0.0,0.0,0.0,0.0,0.0,0.0,0.0,0.0,0.0,0.0,0.0,0.0,0.0,0.0,0.0,0.0,0.0,0.0,0.0,0.0,0.0,0.0,0.0,0.0,0.0,0.0,0.0,0.0,0.0,0.0,0.0,0.0,0.0,0.0,0.0,0.0,0.0,0.0,0.0,0.0,0.0,7.9688,8.661,9.1903,9.3183,9.3299,9.3299,9.3299,9.3765,9.1845,8.6668,0.0,0.0,0.0,0.0,0.0,0.0,0.0,0.0,0.0,0.0,0.0,0.0,0.0,0.0,0.0,0.0,0.0,0.0,0.0,0.0,0.0,0.0,0.0,0.0,0.0,0.0,0.0,0.0,0.0,0.0,0.0,0.0,0.0,0.0,0.0,0.0,0.0,0.0,0.0,0.0,0.0,0.0,0.0,0.0,0.0,0.0,0.0,0.0,0.0,0.0,0.0,0.0,0.0,0.0,0.0,0.0,0.0,0.0,0.0,0.0,0.0,0.0,0.0,0.0,0.0,0.0,0.0,0.0,0.0,0.0,0.0,0.0,0.0,0.0,0.0,0.0,0.0,0.0,0.0,0.0,0.0,0.0,0.0,0.0,0.0,0.0,0.0,0.0,0.0,0.0,0.0,0.0,0.0,0.0,0.0,0.0,0.0,0.0,0.0,0.0,0.0,0.0,7.8409,8.5272,9.0566,9.1845,9.1962,9.1962,9.1962,9.0856,8.789,0.0,0.0,0.0,0.0,0.0,0.0,0.0,0.0,0.0,0.0,0.0,0.0,0.0,0.0,0.0,0.0,0.0,0.0,0.0,0.0,0.0,0.0,0.0,0.0,0.0,0.0,0.0,0.0,0.0,0.0,0.0,0.0,0.0,0.0,0.0,0.0,0.0,0.0,0.0,0.0,0.0,0.0,0.0,0.0,0.0,0.0,0.0,0.0,0.0,0.0,0.0,0.0,0.0,0.0,0.0,0.0,0.0,0.0,0.0,0.0,0.0,0.0,0.0,0.0,0.0,0.0,0.0,0.0,0.0,0.0,0.0,0.0,0.0,0.0,0.0,0.0,0.0,0.0,0.0,0.0,0.0,0.0,0.0,0.0,0.0,0.0,0.0,0.0,0.0,0.0,0.0,0.0,0.0,0.0,0.0,0.0,0.0,0.0,0.0,0.0,0.0,0.0,0.0,7.5675,8.3353,8.917,9.0507,9.1438,9.1613,9.074,8.946,8.6145,8.0096,0.0,0.0,0.0,0.0,0.0,0.0,0.0,0.0,0.0,0.0,0.0,0.0,0.0,0.0,0.0,0.0,0.0,0.0,0.0,0.0,0.0,0.0,0.0,0.0,0.0,0.0,0.0,0.0,0.0,0.0,0.0,0.0,0.0,0.0,0.0,0.0,0.0,0.0,0.0,0.0,0.0,0.0,0.0,0.0,0.0,0.0,0.0,0.0,0.0,0.0,0.0,0.0,0.0,0.0,0.0,0.0,0.0,0.0,0.0,0.0,0.0,0.0,0.0,0.0,0.0,0.0,0.0,0.0,0.0,0.0,0.0,0.0,0.0,0.0,0.0,0.0,0.0,0.0,0.0,0.0,0.0,0.0,0.0,0.0,0.0,0.0,0.0,0.0,0.0,0.0,0.0,0.0,0.0,0.0,0.0,0.0,0.0,0.0,0.0,0.0,0.0,0.0,0.0,8.2364,8.7832,8.917,9.0915,9.1264,8.946,8.8064,8.44,7.7478,0.0,0.0,0.0,0.0,0.0,0.0,0.0,0.0,0.0,0.0,0.0,0.0,0.0,0.0,0.0,0.0,0.0,0.0,0.0,0.0,0.0,0.0,0.0,0.0,0.0,0.0,0.0,0.0,0.0,0.0,0.0,0.0,0.0,0.0,0.0,0.0,0.0,0.0,0.0,0.0,0.0,0.0,0.0,0.0,0.0,0.0,0.0,0.0,0.0,0.0,0.0,0.0,0.0,0.0,0.0,0.0,0.0,0.0,0.0,0.0,0.0,0.0,0.0,0.0,0.0,0.0,0.0,0.0,0.0,0.0,0.0,0.0,0.0,0.0,0.0,0.0,0.0,0.0,0.0,0.0,0.0,0.0,0.0,0.0,0.0,0.0,0.0,0.0,0.0,0.0,0.0,0.0,0.0,0.0,0.0,0.0,0.0,0.0,0.0,0.0,0.0,0.0,0.0,8.1841,8.6261,8.7657,9.01,9.0682,8.8123,8.6668,8.2597,7.4977,7.2069,0.0,0.0,0.0,0.0,0.0,0.0,0.0,0.0,0.0,0.0,0.0,0.0,0.0,0.0,0.0,0.0,0.0,0.0,0.0,0.0,0.0,0.0,0.0,0.0,0.0,0.0,0.0,0.0,0.0,0.0,0.0,0.0,0.0,0.0,0.0,0.0,0.0,0.0,0.0,0.0,0.0,0.0,0.0,0.0,0.0,0.0,0.0,0.0,0.0,0.0,0.0,0.0,0.0,0.0,0.0,0.0,0.0,0.0,0.0,0.0,0.0,0.0,0.0,0.0,0.0,0.0,0.0,0.0,0.0,0.0,0.0,0.0,0.0,0.0,0.0,0.0,0.0,0.0,0.0,0.0,0.0,0.0,0.0,0.0,0.0,0.0,0.0,0.0,0.0,0.0,0.0,0.0,0.0,0.0,0.0,0.0,0.0,0.0,0.0,0.0,0.0,0.0,7.8409,8.2655,8.4865,8.7425,8.8355,8.6727,8.4516,8.0386,7.3581,6.9858,0.0,0.0,0.0,0.0,0.0,0.0,0.0,0.0,0.0,0.0,0.0,0.0,0.0,0.0,0.0,0.0,0.0,0.0,0.0,0.0,0.0,0.0,0.0,0.0,0.0,0.0,0.0,0.0,0.0,0.0,0.0,0.0,0.0,0.0,0.0,0.0,0.0,0.0,0.0,0.0,0.0,0.0,0.0,0.0,0.0,0.0,0.0,0.0,0.0,0.0,0.0,0.0,0.0,0.0,0.0,0.0,0.0,0.0,0.0,0.0,0.0,0.0,0.0,0.0,0.0,0.0,0.0,0.0,0.0,0.0,0.0,0.0,0.0,0.0,0.0,0.0,0.0,0.0,0.0,0.0,0.0,0.0,0.0,0.0,0.0,0.0,0.0,0.0,0.0,0.0,0.0,0.0,0.0,0.0,0.0,0.0,0.0,0.0,0.0,0.0,0.0,0.0,7.3348,7.8583,8.2888,8.568,8.6436,8.4574,8.2073,7.7885,7.1429,6.7415,0.0,0.0,0.0,0.0,0.0,0.0,0.0,0.0,0.0,0.0,0.0,0.0,0.0,0.0,0.0,0.0,0.0,0.0,0.0,0.0,0.0,0.0,0.0,0.0,0.0,0.0,0.0,0.0,0.0,0.0,0.0,0.0,0.0,0.0,0.0,0.0,0.0,0.0,0.0,0.0,0.0,0.0,0.0,0.0,0.0,0.0,0.0,0.0,0.0,0.0,0.0,0.0,0.0,0.0,0.0,0.0,0.0,0.0,0.0,0.0,0.0,0.0,0.0,0.0,0.0,0.0,0.0,0.0,0.0,0.0,0.0,0.0,0.0,0.0,0.0,0.0,0.0,0.0,0.0,0.0,0.0,0.0,0.0,0.0,0.0,0.0,0.0,0.0,0.0,0.0,0.0,0.0,0.0,0.0,0.0,0.0,0.0,0.0,0.0,0.0,0.0,0.0,0.0,7.4628,8.027,8.3527,8.44,8.2248,7.9688,7.5617,6.9393,0.0,0.0,0.0,0.0,0.0,0.0,0.0,0.0,0.0,0.0,0.0,0.0,0.0,0.0,0.0,0.0,0.0,0.0,0.0,0.0,0.0,0.0,0.0,0.0,0.0,0.0,0.0,0.0,0.0,0.0,0.0,0.0,0.0,0.0,0.0,0.0,0.0,0.0,0.0,0.0,0.0,0.0,0.0,0.0,0.0,0.0,0.0,0.0,0.0,0.0,0.0,0.0,0.0,0.0,0.0,0.0,0.0,0.0,0.0,0.0,0.0,0.0,0.0,0.0,0.0,0.0,0.0,0.0,0.0,0.0,0.0,0.0,0.0,0.0,0.0,0.0,0.0,0.0,0.0,0.0,0.0,0.0,0.0,0.0,0.0,0.0,0.0,0.0,0.0,0.0,0.0,0.0,0.0,0.0,0.0,0.0,0.0,0.0,0.0,0.0,0.0,0.0,0.0,0.0,7.1952,7.3988,7.8467,8.1143,8.0794,7.8409,7.4628,6.9335,0.0,0.0,0.0,0.0,0.0,0.0,0.0,0.0,0.0,0.0,0.0,0.0,0.0,0.0]}],[{"header":{"parameterUnit":"kt","parameterCategory":2,"dx":1,"dy":1,"la1":29.285339999999998,"la2":30.599998999999997,"lo1":-89.70041500000002,"lo2":-87.6738589999976,"nx":112,"ny":82,"refTime":"2022-10-22T18:00:00:Z","depth":0,"parameterNumber":2,"parameterNumberName":"V-component_of_WINDS"},"data":[-7.7867,-7.7336,0.0,-7.4754,-7.4868,0.0,-7.2325,0.0,-7.1299,0.0,-6.8528,-6.7693,-6.6895,0.0,0.0,0.0,0.0,0.0,0.0,-6.1201,0.0,0.0,0.0,0.0,0.0,0.0,0.0,0.0,0.0,0.0,0.0,0.0,-8.2423,-8.3259,-8.379,-8.4625,-8.5802,-8.6903,-8.789,-8.8802,-8.9333,-8.9713,-9.0016,-9.0016,-9.0016,-9.0016,-9.0016,-9.0016,-9.0696,-9.1335,-9.2348,-9.3021,-9.4949,-9.694,-9.8544,-9.9852,-10.3045,-10.785,-11.2238,-11.4115,-11.5072,-11.5674,-11.5625,-11.5625,-11.5625,-11.5625,-11.5625,-11.5625,-11.5625,-11.5625,-11.5625,-11.5625,-11.5625,-11.5625,-11.5625,-11.5625,-11.5625,-11.5625,-11.5625,-11.5625,-11.5625,-11.5625,-11.5625,-11.5625,-11.5625,-11.5625,-11.5625,-11.5625,-11.5625,-11.6823,-11.8309,-12.0655,-12.3485,-12.7203,-13.1422,-13.3558,-13.4261,-13.2853,-13.1166,-12.9246,-12.7036,-12.6105,-12.5117,-12.3779,-12.3779,-12.3372,-12.2615,-12.284,-12.3228,-12.4113,-12.5952,-12.8008,0.0,0.0,-7.3653,-7.1717,0.0,0.0,0.0,0.0,0.0,-6.7389,-6.6592,-6.587,-6.4769,0.0,0.0,0.0,0.0,0.0,0.0,0.0,0.0,0.0,0.0,0.0,0.0,0.0,0.0,0.0,0.0,0.0,0.0,-8.2879,-8.3714,-8.4587,-8.5385,-8.6258,-8.7131,-8.8232,-8.8915,-8.9219,-8.9751,-9.0016,-9.0016,-9.0016,-9.0016,-9.0016,-9.0016,-9.0016,-9.0016,-9.0696,-9.1035,-9.1035,-9.2685,-9.4322,-9.5947,-9.7229,-9.9852,-10.3409,-10.9055,-11.2544,-11.4721,-11.5373,-11.5625,-11.5625,-11.5625,-11.5625,-11.5625,-11.5625,-11.5625,-11.5625,-11.5625,-11.5625,-11.5625,-11.5625,-11.5625,-11.5625,-11.5625,-11.5625,-11.5625,-11.5625,-11.5625,-11.5625,-11.5625,-11.5625,-11.5625,-11.5625,-11.5625,-11.5625,-11.5625,-11.6275,-11.7419,-11.9193,-12.1475,-12.4621,-12.8521,-13.1519,-13.3727,-13.4336,-13.3144,-13.1224,-12.9014,-12.8141,-12.6862,-12.5117,-12.5058,-12.4477,-12.3197,-12.3197,-12.3248,-12.3509,-12.4967,-12.6371,0.0,0.0,0.0,-6.8452,0.0,0.0,0.0,0.0,-6.6668,-6.4238,-6.3782,-6.3782,-6.3744,0.0,0.0,0.0,0.0,0.0,0.0,0.0,0.0,0.0,0.0,0.0,0.0,0.0,0.0,0.0,0.0,0.0,-8.3828,-8.4549,-8.5423,-8.6334,-8.7131,-8.7966,-8.8802,-8.884,-8.9219,-9.0016,-9.0016,-9.0016,-9.0016,-9.0016,-9.0016,-9.0016,-9.0016,-9.0016,-9.0016,-9.0016,-9.0016,-9.0016,-9.1035,-9.2348,-9.4027,-9.4989,-9.694,-9.981,-10.4962,-11.0033,-11.4418,-11.5324,-11.5674,-11.5625,-11.5625,-11.5625,-11.5577,-11.5577,-11.5577,-11.5577,-11.5577,-11.5625,-11.5625,-11.5625,-11.5625,-11.5625,-11.5625,-11.5625,-11.5625,-11.5625,-11.5625,-11.5625,-11.5625,-11.5625,-11.5625,-11.5625,-11.5625,-11.5625,-11.5625,-11.6275,-11.7171,-11.7766,-12.0072,-12.2627,-12.5747,-12.8521,-13.1533,-13.4546,-13.5495,-13.4307,-13.0526,-13.0352,-12.913,-12.6571,-12.6513,-12.5873,-12.4477,-12.4477,-12.4063,-12.3567,-12.4798,-12.5514,-6.9363,-6.8452,-6.7921,-6.5681,-6.587,-6.625,-6.5035,-6.5225,-6.5301,-6.401,-6.4238,0.0,0.0,0.0,0.0,0.0,0.0,-6.6288,0.0,0.0,0.0,0.0,0.0,0.0,0.0,0.0,0.0,0.0,0.0,0.0,-8.4663,-8.5461,-8.66,-8.808,-8.8308,-8.884,-8.9675,-8.9675,-8.9789,-9.0016,-9.0016,-9.0016,-9.0016,-9.0016,-9.0016,-9.0016,-9.0016,-9.0016,-9.0016,-9.0016,-9.0016,-9.0016,-9.0356,-9.1035,-9.2348,-9.2982,-9.4949,-9.7888,-10.18,-10.5598,-10.9723,-11.346,-11.5023,-11.5625,-11.5625,-11.5137,-11.4552,-11.4552,-11.4503,-11.4503,-11.4552,-11.5088,-11.5625,-11.5625,-11.5625,-11.5625,-11.5625,-11.5625,-11.5625,-11.5625,-11.5625,-11.5625,-11.5625,-11.5625,-11.5625,-11.5625,-11.5625,-11.5625,-11.5625,-11.5975,-11.6226,-11.7171,-11.8604,-12.1185,-12.4054,-12.7141,-12.9991,-13.3113,-13.4383,-13.4567,-13.3144,-13.3027,-13.1806,-12.9246,-12.9188,-12.8083,-12.5873,-12.5873,-12.5175,-12.4122,-12.4982,-12.5128,-6.6478,-6.5263,-6.4731,-6.3099,-6.3175,-6.3744,-6.4162,-6.4352,-6.4428,-6.4276,0.0,0.0,0.0,0.0,0.0,0.0,-6.7199,0.0,0.0,0.0,0.0,0.0,0.0,0.0,0.0,0.0,0.0,0.0,0.0,-8.66,-8.6068,-8.6865,-8.7777,-8.8764,-8.9105,-8.9523,-9.0016,-9.0016,-9.0016,-9.0016,-9.0016,-9.0016,-9.0016,-9.0016,-9.0016,-9.0016,-9.0016,-9.0016,-9.0016,-9.0016,-9.0016,-9.0016,-9.0016,-9.0356,-9.1035,-9.1673,-9.3653,-9.5906,-9.9063,-10.2435,-10.5871,-10.9836,-11.2803,-11.4594,-11.4454,-11.4259,-11.4064,-11.3624,-11.3429,-11.3527,-11.4015,-11.46,-11.5137,-11.5528,-11.5625,-11.5625,-11.5625,-11.5625,-11.5625,-11.5625,-11.5625,-11.5625,-11.5625,-11.5625,-11.5625,-11.5625,-11.5625,-11.5625,-11.5625,-11.5625,-11.5975,-11.6226,-11.7419,-11.9193,-12.2052,-12.4903,-12.7971,-13.1501,-13.3522,-13.4637,-13.5205,-13.4932,-13.3958,-13.1922,-13.1282,-13.0003,-12.8025,-12.7501,-12.6803,-12.6047,-12.5753,-12.5501,-6.3516,-6.1087,-6.01,-6.0935,-6.0669,-6.1049,-6.4352,0.0,-6.4314,-6.5225,0.0,0.0,0.0,0.0,0.0,0.0,0.0,0.0,0.0,0.0,0.0,0.0,0.0,0.0,0.0,0.0,0.0,-8.6372,-8.7131,-8.7549,-8.7663,-8.8384,-8.884,-8.8915,-8.9637,-9.0016,-9.0016,-9.0016,-9.0016,-9.0016,-9.0016,-9.0016,-9.0016,-9.0016,-9.0016,-9.0016,-9.0016,-9.0016,-9.0016,-9.0016,-9.0016,-9.0016,-9.0016,-9.0016,-8.9979,-9.092,-9.2231,-9.4043,-9.6363,-9.9209,-10.2561,-10.5468,-10.9173,-11.2189,-11.2501,-11.3136,-11.3575,-11.2599,-11.2355,-11.2599,-11.3673,-11.4064,-11.4405,-11.543,-11.5625,-11.5625,-11.5625,-11.5625,-11.5625,-11.5625,-11.5625,-11.5625,-11.5625,-11.5625,-11.5625,-11.5625,-11.5625,-11.5625,-11.5625,-11.5625,-11.5625,-11.5625,-11.6275,-11.7716,-11.978,-12.2103,-12.5466,-12.9613,-13.2035,-13.4463,-13.6585,-13.6306,-13.5645,-13.4365,-13.3202,-13.1864,-13.041,-12.9305,-12.8607,-12.8258,-12.6978,-12.5928,-6.1163,-5.9758,-5.915,-6.0062,-6.0669,-6.1884,0.0,0.0,0.0,0.0,0.0,0.0,0.0,0.0,0.0,0.0,0.0,0.0,0.0,0.0,0.0,0.0,0.0,0.0,0.0,0.0,-8.5612,-8.7169,-8.7435,-8.7814,-8.8498,-8.8688,-8.9105,-8.9751,-8.9941,-9.0016,-9.0016,-9.0016,-9.0016,-9.0016,-9.0016,-9.0016,-9.0016,-9.0016,-9.0016,-9.0016,-9.0016,-9.0016,-9.0016,-9.0016,-9.0016,-9.0016,-9.0016,-9.0016,-8.9941,-8.9594,-8.9998,-9.1179,-9.2904,-9.5448,-9.8546,-10.3049,-10.65,-10.9143,-11.1032,-11.143,-11.1477,-11.1233,-11.1184,-11.1428,-11.255,-11.3478,-11.4405,-11.543,-11.5625,-11.5625,-11.5625,-11.5625,-11.5625,-11.5625,-11.5625,-11.5625,-11.5625,-11.5625,-11.5625,-11.5625,-11.5625,-11.5625,-11.5625,-11.5625,-11.5625,-11.5625,-11.6275,-11.7171,-11.8358,-12.0655,-12.3485,-12.6586,-12.9613,-13.2301,-13.4983,-13.6042,-13.6422,-13.5703,-13.5412,-13.4132,-13.1748,-13.1515,-13.0352,-12.8258,-12.6978,-12.5698,-5.934,-5.8733,-5.8923,-5.9834,-6.0669,0.0,0.0,0.0,-6.682,0.0,0.0,0.0,0.0,0.0,0.0,0.0,0.0,0.0,0.0,0.0,0.0,0.0,0.0,0.0,0.0,0.0,-8.66,-8.7473,-8.7928,-8.8498,-8.9371,-8.9409,-8.9599,-8.9979,-9.0016,-9.0016,-9.0016,-9.0016,-9.0016,-9.0016,-9.0016,-9.0016,-9.0016,-9.0016,-9.0016,-9.0016,-9.0016,-9.0016,-9.0016,-9.0016,-9.0016,-9.0016,-9.0016,-8.9751,-8.9333,-8.8953,-8.9166,-8.9662,-9.0403,-9.2304,-9.5047,-9.8907,-10.2178,-10.5021,-10.8209,-10.9443,-10.9488,-10.9775,-11.0061,-11.0305,-11.1428,-11.2502,-11.3575,-11.46,-11.5235,-11.5625,-11.5625,-11.5625,-11.5625,-11.5625,-11.5625,-11.5625,-11.5625,-11.5625,-11.5625,-11.5625,-11.5625,-11.5625,-11.5625,-11.5625,-11.5625,-11.5625,-11.5975,-11.6525,-11.7469,-11.9193,-12.1764,-12.4621,-12.7917,-13.1233,-13.4202,-13.6015,-13.6806,-13.6924,-13.6343,-13.5063,-13.3144,-13.3144,-13.2097,-13.0177,-12.7618,-12.6047,-5.7784,-5.7822,-5.8695,-5.9796,-6.0897,0.0,-6.6174,-6.7085,-6.8034,0.0,0.0,0.0,0.0,0.0,0.0,0.0,0.0,0.0,0.0,0.0,0.0,0.0,0.0,0.0,0.0,0.0,-8.7814,-8.8004,-8.865,-8.9295,-8.9979,-9.0016,-9.0016,-9.0016,-9.0016,-9.0016,-9.0016,-9.0016,-9.0016,-9.0016,-9.0016,-9.0016,-9.0016,-9.0016,-9.0016,-9.0016,-9.0016,-9.0016,-9.0016,-9.0016,-9.0016,-9.0016,-9.0016,-8.9523,-8.8764,-8.8612,-8.8337,-8.8483,-8.8206,-8.9822,-9.2203,-9.4888,-9.7989,-10.1424,-10.5557,-10.7322,-10.814,-10.8996,-10.928,-10.9524,-11.0598,-11.1526,-11.2453,-11.3527,-11.46,-11.5333,-11.5333,-11.5528,-11.5625,-11.5625,-11.5625,-11.5625,-11.5625,-11.5625,-11.5625,-11.5625,-11.5625,-11.5625,-11.5625,-11.5625,-11.5625,-11.5625,-11.5625,-11.5926,-11.6574,-11.8013,-12.0021,-12.2913,-12.6479,-12.983,-13.2887,-13.5242,-13.6783,-13.7544,-13.6866,-13.5761,-13.4481,-13.4481,-13.3667,-13.2038,-12.8723,-12.6862,-5.6417,-5.6986,-5.8011,-5.9644,-6.177,0.0,-6.868,-7.0198,0.0,0.0,0.0,0.0,0.0,0.0,0.0,0.0,0.0,0.0,0.0,0.0,0.0,0.0,0.0,0.0,0.0,0.0,-8.8953,-8.9675,-8.9827,-8.9903,-9.0016,-9.0016,-9.0016,-9.0016,-9.0016,-9.0016,-9.0016,-9.0016,-9.0016,-9.0016,-9.0016,-9.0016,-9.0016,-9.0016,-9.0016,-9.0016,-9.0016,-9.0016,-9.0016,-9.0016,-9.0016,-9.0016,-9.0016,-8.9523,-8.8688,-8.7928,-8.7131,-8.6622,-8.6711,-8.764,-8.9817,-9.278,-9.6689,-10.0349,-10.3836,-10.6461,-10.814,-10.8996,-10.928,-10.9524,-11.0598,-11.094,-11.133,-11.2453,-11.3527,-11.4308,-11.4308,-11.4991,-11.5625,-11.5625,-11.5625,-11.5625,-11.5625,-11.5625,-11.5625,-11.5625,-11.5625,-11.5625,-11.5625,-11.5625,-11.5625,-11.5625,-11.5625,-11.5625,-11.5674,-11.6574,-11.8013,-12.0655,-12.3717,-12.7034,-13.0696,-13.3359,-13.55,-13.684,-13.7428,-13.7041,-13.5819,-13.5819,-13.454,-13.2097,-13.0526,-12.8548,-5.5961,-5.7176,-5.8733,-6.0935,0.0,0.0,-6.9287,-7.1413,0.0,0.0,0.0,0.0,0.0,0.0,0.0,0.0,0.0,0.0,0.0,0.0,0.0,0.0,0.0,0.0,0.0,0.0,0.0,0.0,-9.0016,-9.0016,-9.0016,-9.0016,-9.0016,-9.0016,-9.0016,-9.0016,-9.0016,-9.0016,-9.0016,-9.0016,-9.0016,-9.0016,-9.0016,-9.0016,-9.0016,-9.0016,-9.0016,-9.0016,-9.0016,-9.0016,-9.0016,-8.9979,-8.9485,-8.8802,-8.7966,-8.7131,-8.6258,-8.5461,-8.5402,-8.6248,-8.7801,-9.1224,-9.4284,-9.7599,-10.2473,-10.5158,-10.6943,-10.8663,-10.928,-10.9378,-10.9817,-11.0403,-11.0989,-11.1477,-11.2404,-11.338,-11.4015,-11.4503,-11.4942,-11.5528,-11.5186,-11.4942,-11.5528,-11.5186,-11.4991,-11.5577,-11.5625,-11.5625,-11.5625,-11.5625,-11.5625,-11.5625,-11.5625,-11.5625,-11.5625,-11.6275,-11.7716,-11.9486,-12.2627,-12.5747,-12.9068,-13.2035,-13.4463,-13.6329,-13.684,-13.7059,-13.7099,-13.7099,-13.6168,-13.4307,-13.1515,-12.8839,-5.5809,0.0,0.0,0.0,0.0,0.0,0.0,0.0,0.0,0.0,0.0,0.0,0.0,0.0,0.0,0.0,0.0,0.0,0.0,0.0,0.0,0.0,0.0,0.0,0.0,0.0,0.0,0.0,-9.0016,-9.0016,-9.0016,-9.0016,-9.0016,-9.0016,-9.0016,-9.0016,-9.0016,-9.0016,-9.0016,-9.0016,-9.0016,-9.0016,-9.0016,-9.0016,-9.0016,-9.0016,-9.0016,-9.0016,-9.0016,-9.0016,-9.0016,-8.9941,-8.9105,-8.827,-8.7435,-8.66,-8.5726,-8.4967,-8.4967,-8.5608,-8.6886,-8.9697,-9.247,-9.5817,-10.0945,-10.3944,-10.6029,-10.8377,-10.8996,-10.928,-10.928,-10.9866,-11.0403,-11.0403,-11.1281,-11.2355,-11.3478,-11.3722,-11.4112,-11.5381,-11.4844,-11.4356,-11.5088,-11.4649,-11.4405,-11.5137,-11.5479,-11.5625,-11.5625,-11.5625,-11.5625,-11.5625,-11.5625,-11.5625,-11.5625,-11.6275,-11.7122,-11.8309,-12.1185,-12.4054,-12.6864,-13.0156,-13.3095,-13.5299,-13.6329,-13.7037,-13.7797,-13.7797,-13.739,-13.6459,-13.3318,-13.0061,0.0,0.0,0.0,0.0,0.0,0.0,-7.2666,0.0,0.0,0.0,0.0,0.0,0.0,0.0,0.0,0.0,0.0,0.0,0.0,0.0,0.0,0.0,0.0,0.0,0.0,0.0,0.0,0.0,0.0,-9.0016,-9.0016,-9.0016,-9.0016,-9.0016,-9.0016,-9.0016,-9.0016,-9.0016,-9.0016,-9.0016,-9.0016,-9.0016,-9.0016,-9.0016,-9.0016,-9.0016,-9.0016,-9.0016,-9.0016,-9.0016,-9.0016,-8.9941,-8.9105,-8.827,-8.7435,-8.66,-8.5726,-8.4967,-8.4967,-8.5608,-8.6567,-8.8434,-9.1536,-9.5512,-9.8806,-10.2722,-10.6029,-10.7518,-10.8711,-10.928,-10.928,-10.928,-10.9329,-10.9329,-11.011,-11.1233,-11.2355,-11.2599,-11.3185,-11.5235,-11.4844,-11.4161,-11.4161,-11.4161,-11.4161,-11.4161,-11.504,-11.5625,-11.5625,-11.5625,-11.5625,-11.5625,-11.5625,-11.5625,-11.5625,-11.5625,-11.5926,-11.6873,-11.9193,-12.1526,-12.3822,-12.8246,-13.1557,-13.3678,-13.5758,-13.7037,-13.7797,-13.7797,-13.7797,-13.7739,-13.6459,-13.3144,-5.7328,-5.934,0.0,0.0,0.0,-7.0806,-7.3881,0.0,0.0,0.0,0.0,0.0,0.0,0.0,0.0,0.0,0.0,0.0,0.0,0.0,0.0,0.0,0.0,0.0,0.0,0.0,0.0,0.0,0.0,0.0,-9.0016,-9.0016,-9.0016,-9.0016,-9.0016,-9.0016,-9.0016,-9.0016,-9.0016,-9.0016,-9.0016,-9.0016,-9.0016,-9.0016,-9.0016,-9.0016,-9.0016,-9.0016,-9.0016,-9.0016,-8.9675,-8.9105,-8.827,-8.7435,-8.66,-8.5726,-8.5233,-8.4967,-8.4967,-8.5288,-8.5928,-8.8118,-9.0285,-9.3358,-9.8203,-10.1836,-10.4867,-10.7231,-10.8711,-10.928,-10.928,-10.928,-10.928,-10.928,-10.9524,-11.0305,-11.216,-11.1965,-11.1867,-11.3331,-11.2697,-11.2209,-11.2941,-11.3087,-11.3331,-11.4015,-11.4991,-11.5625,-11.5625,-11.5625,-11.5625,-11.5625,-11.5625,-11.5625,-11.5625,-11.5625,-11.5975,-11.6873,-11.8062,-11.978,-12.2052,-12.5747,-12.8795,-13.1501,-13.4202,-13.5758,-13.6585,-13.7095,-13.7291,-13.7797,-13.6575,-13.4656,0.0,0.0,0.0,-6.7769,-7.0274,-7.2514,0.0,0.0,0.0,0.0,0.0,0.0,0.0,0.0,0.0,0.0,0.0,0.0,0.0,0.0,0.0,0.0,0.0,0.0,0.0,0.0,0.0,0.0,0.0,0.0,-9.0016,-9.0016,-9.0016,-9.0016,-9.0016,-9.0016,-9.0016,-9.0016,-9.0016,-9.0016,-9.0016,-9.0016,-9.0016,-9.0016,-9.0016,-9.0016,-9.0016,-9.0016,-9.0016,-9.0016,-8.9523,-8.8688,-8.7852,-8.7017,-8.6182,-8.5271,-8.4967,-8.4967,-8.4967,-8.4967,-8.5288,-8.7205,-8.9382,-9.2159,-9.6689,-10.0647,-10.399,-10.6655,-10.8091,-10.928,-10.928,-10.928,-10.928,-10.928,-10.928,-10.9768,-11.1574,-11.1379,-11.1184,-11.2306,-11.1623,-11.1086,-11.1818,-11.2258,-11.2795,-11.3478,-11.4747,-11.5625,-11.5625,-11.5625,-11.5625,-11.5625,-11.5625,-11.5625,-11.5625,-11.5625,-11.5975,-11.6275,-11.7171,-11.8604,-12.0604,-12.3485,-12.6586,-12.9613,-13.2566,-13.4463,-13.504,-13.6329,-13.7037,-13.7797,-13.7041,-13.5994,0.0,-6.3289,0.0,-7.0388,-7.2097,0.0,0.0,0.0,0.0,0.0,0.0,0.0,0.0,0.0,0.0,0.0,0.0,0.0,0.0,0.0,0.0,0.0,0.0,0.0,0.0,0.0,0.0,0.0,0.0,-9.0016,-9.0016,-9.0016,-9.0016,-9.0016,-9.0016,-9.0016,-9.0016,-9.0016,-9.0016,-9.0016,-9.0016,-9.0016,-9.0016,-9.0016,-9.0016,-9.0016,-9.0016,-9.0016,-9.0016,-9.0016,-8.9485,-8.865,-8.7814,-8.6979,-8.6144,-8.5271,-8.4967,-8.4967,-8.4967,-8.4967,-8.4967,-8.5928,-8.8434,-9.1536,-9.3976,-9.885,-10.3697,-10.5158,-10.7518,-10.928,-10.928,-10.928,-10.928,-10.928,-10.928,-10.9524,-11.0549,-11.0793,-11.1086,-11.216,-11.1526,-11.0793,-11.0842,-11.1818,-11.255,-11.2648,-11.4356,-11.5625,-11.5625,-11.5625,-11.5625,-11.5625,-11.5625,-11.5625,-11.5625,-11.5625,-11.5625,-11.5625,-11.6275,-11.7419,-11.8899,-12.2052,-12.4903,-12.7971,-13.0696,-13.2566,-13.3678,-13.5758,-13.7095,-13.7797,-13.7797,-13.7157,0.0,0.0,-6.9439,-7.2362,-7.4678,-7.688,0.0,0.0,0.0,0.0,0.0,0.0,0.0,0.0,0.0,0.0,0.0,0.0,0.0,0.0,0.0,0.0,0.0,0.0,0.0,0.0,0.0,0.0,0.0,-9.0016,-9.0016,-9.0016,-9.0016,-9.0016,-9.0016,-9.0016,-9.0016,-9.0016,-9.0016,-9.0016,-9.0016,-9.0016,-9.0016,-9.0016,-9.0016,-9.0016,-9.0016,-9.0016,-9.0016,-9.0016,-8.9143,-8.7814,-8.7587,-8.66,-8.5271,-8.5043,-8.4967,-8.4967,-8.4967,-8.4967,-8.4967,-8.5928,-8.8118,-9.0911,-9.3976,-9.8549,-10.3109,-10.5158,-10.7518,-10.928,-10.928,-10.928,-10.928,-10.928,-10.928,-10.9329,-10.9622,-10.9671,-10.9768,-11.0061,-10.9866,-10.9915,-11.0745,-11.1818,-11.2843,-11.3624,-11.4844,-11.5625,-11.5625,-11.5625,-11.5625,-11.5625,-11.5625,-11.5625,-11.5625,-11.5625,-11.5625,-11.5625,-11.5975,-11.6275,-11.7419,-11.978,-12.234,-12.4903,-12.681,-12.874,-13.1289,-13.3883,-13.6015,-13.7095,-13.7544,-13.7157,-6.234,-6.7617,-7.2135,0.0,-7.6463,-7.8513,-8.0183,0.0,0.0,0.0,0.0,0.0,0.0,0.0,0.0,0.0,0.0,0.0,0.0,0.0,0.0,0.0,0.0,0.0,0.0,0.0,0.0,0.0,0.0,-9.0016,-9.0016,-9.0016,-9.0016,-9.0016,-9.0016,-9.0016,-9.0016,-9.0016,-9.0016,-9.0016,-9.0016,-9.0016,-9.0016,-9.0016,-9.0016,-9.0016,-9.0016,-9.0016,-9.0016,-9.0016,-8.9257,-8.8042,-8.7663,-8.6713,-8.5499,-8.5119,-8.4967,-8.4967,-8.4967,-8.4967,-8.4967,-8.5608,-8.7483,-9.0011,-9.247,-9.7036,-10.1585,-10.3697,-10.6366,-10.8711,-10.8711,-10.8996,-10.928,-10.928,-10.928,-10.928,-10.928,-10.928,-10.928,-10.928,-10.928,-10.9622,-11.0696,-11.1818,-11.2892,-11.3966,-11.4991,-11.5625,-11.5625,-11.5625,-11.5625,-11.5625,-11.5625,-11.5625,-11.5625,-11.5625,-11.5625,-11.5625,-11.5625,-11.5975,-11.6873,-11.8309,-12.0364,-12.2627,-12.4338,-12.6586,-12.9613,-13.2301,-13.4723,-13.6329,-13.7037,-13.7196,0.0,0.0,-7.3729,0.0,-7.7678,-7.9348,0.0,0.0,-8.2727,0.0,0.0,0.0,0.0,0.0,0.0,0.0,0.0,0.0,0.0,0.0,0.0,0.0,0.0,0.0,0.0,0.0,0.0,0.0,0.0,0.0,-9.0016,-9.0016,-9.0016,-9.0016,-9.0016,-9.0016,-9.0016,-9.0016,-9.0016,-9.0016,-9.0016,-9.0016,-9.0016,-9.0016,-9.0016,-9.0016,-9.0016,-9.0016,-9.0016,-9.0016,-8.9523,-8.8688,-8.7852,-8.7017,-8.6182,-8.5271,-8.4967,-8.4967,-8.4967,-8.4967,-8.4967,-8.4967,-8.6847,-8.9066,-9.0639,-9.4856,-10.005,-10.163,-10.4867,-10.7853,-10.814,-10.8711,-10.928,-10.928,-10.928,-10.928,-10.928,-10.928,-10.928,-10.928,-10.928,-10.9622,-11.0696,-11.1916,-11.3136,-11.421,-11.5088,-11.5625,-11.5625,-11.5625,-11.5625,-11.5625,-11.5625,-11.5625,-11.5625,-11.5625,-11.5625,-11.5625,-11.5625,-11.5975,-11.6574,-11.7469,-11.8899,-12.0895,-12.234,-12.4903,-12.7695,-13.0696,-13.3359,-13.5557,-13.6329,-13.7037,-6.4693,0.0,-7.1717,-7.6197,-7.8589,0.0,-8.1019,-8.1892,-8.2727,0.0,0.0,0.0,0.0,0.0,0.0,0.0,0.0,0.0,0.0,0.0,0.0,0.0,0.0,0.0,0.0,0.0,0.0,0.0,0.0,0.0,-9.0016,-9.0016,-9.0016,-9.0016,-9.0016,-9.0016,-9.0016,-9.0016,-9.0016,-9.0016,-9.0016,-9.0016,-9.0016,-9.0016,-9.0016,-9.0016,-9.0016,-9.0016,-9.0016,-9.0016,-8.9523,-8.8688,-8.7852,-8.7017,-8.6182,-8.5271,-8.4967,-8.4967,-8.4967,-8.4967,-8.4967,-8.4967,-8.6847,-8.9066,-9.0011,-9.4284,-9.9151,-10.0692,-10.3944,-10.7183,-10.7805,-10.8711,-10.928,-10.928,-10.928,-10.928,-10.928,-10.928,-10.928,-10.928,-10.928,-10.9622,-11.0696,-11.255,-11.421,-11.5235,-11.5528,-11.5625,-11.5625,-11.5625,-11.5625,-11.5625,-11.5625,-11.5625,-11.5625,-11.5625,-11.5625,-11.5625,-11.5625,-11.5625,-11.5975,-11.6574,-11.7122,-11.7716,-11.978,-12.2052,-12.4621,-12.8192,-13.091,-13.3095,-13.5242,-13.6329,-6.5756,0.0,0.0,-7.5817,0.0,-8.0259,-8.1057,-8.155,-8.2082,-8.2917,0.0,0.0,0.0,0.0,0.0,0.0,0.0,0.0,0.0,0.0,0.0,0.0,0.0,0.0,0.0,0.0,0.0,0.0,0.0,0.0,0.0,-9.0016,-9.0016,-9.0016,-9.0016,-9.0016,-9.0016,-9.0016,-9.0016,-9.0016,-9.0016,-9.0016,-9.0016,-9.0016,-9.0016,-9.0016,-9.0016,-9.0016,-9.0016,-9.0016,-8.9789,-8.9295,-8.8004,-8.7283,-8.6789,-8.5461,-8.4967,-8.4967,-8.4967,-8.4967,-8.4967,-8.4967,-8.621,-8.784,-8.8434,-9.2118,-9.6428,-9.7989,-10.1881,-10.5739,-10.6655,-10.8091,-10.928,-10.928,-10.928,-10.928,-10.928,-10.928,-10.928,-10.928,-10.972,-11.0257,-11.0793,-11.2697,-11.4503,-11.5479,-11.5625,-11.5625,-11.5625,-11.5625,-11.5625,-11.5625,-11.5625,-11.5625,-11.5625,-11.5625,-11.5625,-11.5625,-11.5625,-11.5625,-11.5625,-11.5975,-11.6574,-11.6873,-11.8309,-12.0364,-12.2627,-12.536,-12.8138,-13.091,-13.3095,-13.4983,-6.6857,-6.9743,0.0,0.0,-7.7867,-7.9766,-8.0753,-8.0981,-8.1284,-8.2272,-8.2993,0.0,0.0,0.0,0.0,0.0,0.0,0.0,0.0,0.0,0.0,0.0,0.0,0.0,0.0,0.0,0.0,0.0,0.0,0.0,0.0,0.0,0.0,-9.0016,-9.0016,-9.0016,-9.0016,-9.0016,-9.0016,0.0,-9.0016,-9.0016,-9.0016,-9.0016,-9.0016,-9.0016,-9.0016,-9.0016,-9.0016,-9.0016,-9.0016,-8.9865,-8.8384,-8.7701,-8.7321,-8.5802,-8.5119,-8.4967,-8.4967,-8.4967,-8.4967,-8.4967,-8.5608,-8.6567,-8.7166,-9.0285,-9.3709,-9.5554,-10.0095,-10.4622,-10.5449,-10.7518,-10.928,-10.8996,-10.928,-10.928,-10.928,-10.928,-10.928,-10.928,-11.011,-11.094,-11.1184,-11.2843,-11.4503,-11.5479,-11.5625,-11.5625,-11.5625,-11.5625,-11.5625,-11.5625,-11.5625,-11.5625,-11.5625,-11.5625,-11.5625,-11.5625,-11.5625,-11.5625,-11.5625,-11.5625,-11.5975,-11.6525,-11.7469,-11.8604,-12.0604,-12.2862,-12.5641,-12.8412,-13.091,-13.3359,-6.8642,0.0,0.0,-7.5552,-7.6994,0.0,-7.9804,-8.0145,-8.0601,-8.2158,0.0,-8.3069,-8.4663,0.0,0.0,0.0,0.0,0.0,0.0,0.0,0.0,0.0,0.0,0.0,0.0,0.0,0.0,0.0,0.0,0.0,0.0,0.0,0.0,0.0,-9.0016,-9.0016,-9.0016,-9.0016,-9.0016,0.0,-9.0016,-9.0016,-9.0016,-9.0016,-9.0016,-9.0016,-9.0016,-9.0016,-9.0016,-9.0016,-9.0016,-8.9903,-8.9029,-8.8194,-8.7397,-8.6524,-8.565,-8.4967,-8.4967,-8.4967,-8.4967,-8.4967,-8.5608,-8.6248,-8.6248,-8.9382,-9.2822,-9.4634,-9.9151,-10.399,-10.5449,-10.7518,-10.8996,-10.8426,-10.8711,-10.928,-10.928,-10.928,-10.928,-10.928,-11.011,-11.1184,-11.2209,-11.338,-11.4503,-11.5479,-11.5625,-11.5625,-11.5625,-11.5625,-11.5625,-11.5625,-11.5625,-11.5625,-11.5625,-11.5625,-11.5625,-11.5625,-11.5625,-11.5625,-11.5625,-11.5625,-11.5674,-11.5674,-11.6574,-11.7469,-11.8358,-12.0604,-12.2862,-12.536,-12.9014,-13.1768,-6.5984,-6.8604,0.0,-7.2742,-7.464,-7.6463,-7.8171,0.0,0.0,0.0,-8.174,-8.2082,-8.3259,-8.3866,0.0,0.0,0.0,0.0,0.0,0.0,0.0,0.0,0.0,0.0,0.0,0.0,0.0,0.0,0.0,0.0,0.0,0.0,0.0,0.0,-9.0016,-9.0016,-9.0016,-9.0016,-9.0016,-9.0016,-9.0016,-9.0016,-9.0016,-9.0016,-9.0016,-9.0016,-9.0016,-9.0016,-9.0016,-9.0016,-9.0016,-8.9941,-8.9105,-8.827,-8.7435,-8.66,-8.5726,-8.4967,-8.4967,-8.4967,-8.4967,-8.4967,-8.5288,-8.5608,-8.5608,-8.7801,-9.0639,-9.2159,-9.6689,-10.1539,-10.3109,-10.6076,-10.8426,-10.814,-10.8711,-10.928,-10.928,-10.928,-10.928,-10.928,-11.0696,-11.2014,-11.2453,-11.3917,-11.5186,-11.5577,-11.5625,-11.5625,-11.5625,-11.5625,-11.5625,-11.5625,-11.5625,-11.5625,-11.5625,-11.5625,-11.5625,-11.5625,-11.5625,-11.5625,-11.5625,-11.5625,-11.5625,-11.5625,-11.5975,-11.6574,-11.7171,-11.8604,-12.0604,-12.2862,-12.6253,-12.9068,-6.439,-6.6857,0.0,-7.0806,0.0,0.0,-7.6387,-7.6994,-7.7792,-8.007,-8.0715,-8.1133,-8.1968,-8.2613,0.0,0.0,0.0,0.0,0.0,0.0,0.0,0.0,0.0,0.0,0.0,0.0,0.0,0.0,0.0,0.0,0.0,0.0,0.0,0.0,-9.0016,-9.0016,-9.0016,-9.0016,-9.0016,-9.0016,-9.0016,-9.0016,-9.0016,-9.0016,-9.0016,-9.0016,-9.0016,-9.0016,-9.0016,-9.0016,-9.0016,-8.9941,-8.9371,-8.8498,-8.7473,-8.6865,-8.5954,-8.4967,-8.4967,-8.4967,-8.4967,-8.4967,-8.4967,-8.4967,-8.4967,-8.6847,-8.9066,-9.0325,-9.4899,-9.9751,-10.163,-10.399,-10.6655,-10.7231,-10.8091,-10.8996,-10.928,-10.928,-10.928,-10.928,-11.1037,-11.255,-11.255,-11.4259,-11.5625,-11.5625,-11.5625,-11.5625,-11.5625,-11.5625,-11.5625,-11.5625,-11.5625,-11.5625,-11.5625,-11.5625,-11.5625,-11.5625,-11.5625,-11.5625,-11.5625,-11.5625,-11.5625,-11.5625,-11.5625,-11.5926,-11.6574,-11.7171,-11.8604,-12.0895,-12.4054,-12.7141,-6.5111,-6.682,-6.8072,0.0,0.0,-7.297,-7.464,-7.5628,-7.6691,-7.8437,-7.9462,-8.0297,-8.1095,-8.1284,0.0,0.0,0.0,0.0,0.0,0.0,0.0,0.0,0.0,0.0,0.0,0.0,0.0,0.0,0.0,0.0,0.0,0.0,0.0,0.0,-9.0016,-9.0016,-9.0016,-9.0016,-9.0016,-9.0016,-9.0016,-9.0016,-9.0016,-9.0016,-9.0016,-9.0016,-9.0016,-9.0016,-9.0016,-9.0016,-9.0016,-9.0016,-8.9979,-8.8991,-8.7511,-8.7511,-8.6448,-8.4967,-8.4967,-8.4967,-8.4967,-8.4967,-8.4967,-8.4967,-8.4967,-8.6847,-8.9066,-8.9697,-9.4284,-9.8894,-10.0692,-10.1585,-10.2768,-10.5158,-10.6943,-10.8426,-10.8996,-10.928,-10.928,-10.928,-11.1037,-11.255,-11.255,-11.4259,-11.5625,-11.5625,-11.5625,-11.5625,-11.5625,-11.5625,-11.5625,-11.5625,-11.5625,-11.5625,-11.5625,-11.5625,-11.5625,-11.5625,-11.5625,-11.5625,-11.5625,-11.5625,-11.5625,-11.5625,-11.5625,-11.5625,-11.5625,-11.6574,-11.7716,-11.9143,-12.234,-12.5694,-6.215,-6.3858,-6.5529,-6.8034,-6.9743,-7.1224,-7.2894,-7.4792,-7.6197,-7.6197,-7.7792,-7.9234,-7.95,-8.0487,0.0,0.0,0.0,0.0,0.0,0.0,0.0,0.0,0.0,0.0,0.0,0.0,0.0,0.0,0.0,0.0,0.0,0.0,0.0,0.0,-9.0016,-9.0016,-9.0016,-9.0016,-9.0016,-9.0016,-9.0016,-9.0016,-9.0016,-9.0016,-9.0016,-9.0016,-9.0016,-9.0016,-9.0016,-9.0016,-9.0016,-9.0016,-9.0016,-8.9333,-8.8308,-8.7739,-8.6827,-8.5802,-8.5157,-8.4967,-8.4967,-8.4967,-8.4967,-8.4967,-8.4967,-8.589,-8.7166,-8.8118,-9.1183,-9.4591,-9.5817,-9.8247,-10.1288,-10.3651,-10.5449,-10.6943,-10.8091,-10.8426,-10.8905,-10.9921,-11.1526,-11.2795,-11.3527,-11.4747,-11.5625,-11.5625,-11.5625,-11.5625,-11.5625,-11.5625,-11.5625,-11.5625,-11.5625,-11.5625,-11.5625,-11.5625,-11.5625,-11.5625,-11.5625,-11.5625,-11.5625,-11.5625,-11.5625,-11.5625,-11.5625,-11.5625,-11.5625,-11.5926,-11.6525,-11.7716,-12.0364,-12.3147,-6.1125,-6.2719,-6.4352,-6.682,-6.7769,-6.8642,-7.0654,-7.278,-7.4299,-7.4109,-7.5817,-7.745,-7.7754,0.0,-8.0487,-8.0981,0.0,0.0,0.0,0.0,0.0,0.0,0.0,0.0,0.0,0.0,0.0,0.0,0.0,0.0,0.0,0.0,0.0,-9.0016,-9.0016,-9.0016,-9.0016,-9.0016,-9.0016,-9.0016,-9.0016,-9.0016,-9.0016,-9.0016,-9.0016,-9.0016,-9.0016,-9.0016,-9.0016,-9.0016,-9.0016,-9.0016,-9.0016,-8.9523,-8.8688,-8.7814,-8.7017,-8.6182,-8.5271,-8.4967,-8.4967,-8.4967,-8.4967,-8.4967,-8.4967,-8.5608,-8.6567,-8.6847,-8.9342,-9.2159,-9.2159,-9.4591,-9.7945,-10.1288,-10.3357,-10.5158,-10.7231,-10.7805,-10.8716,-11.0359,-11.177,-11.2892,-11.3966,-11.4991,-11.5625,-11.5625,-11.5625,-11.5625,-11.5625,-11.5625,-11.5625,-11.5625,-11.5625,-11.5625,-11.5625,-11.5625,-11.5625,-11.5625,-11.5625,-11.5625,-11.5625,-11.5625,-11.5625,-11.5625,-11.5625,-11.5625,-11.5625,-11.5625,-11.5975,-11.6873,-11.8899,-12.1475,-6.1466,-6.2909,-6.4086,-6.6554,-6.6136,-6.5756,-6.8148,-7.0047,-7.1489,-7.2173,-7.3653,-7.5058,0.0,-7.7412,-7.8665,-7.8893,-8.0829,0.0,0.0,0.0,0.0,0.0,0.0,0.0,0.0,0.0,0.0,0.0,0.0,0.0,0.0,0.0,0.0,-9.0016,-9.0016,-9.0016,-9.0016,-9.0016,-9.0016,-9.0016,-9.0016,-9.0016,-9.0016,-9.0016,-9.0016,-9.0016,-9.0016,-9.0016,-9.0016,-9.0016,-9.0016,-9.0016,-9.0016,-8.9523,-8.8764,-8.7928,-8.7093,-8.6258,-8.5347,-8.5005,-8.4967,-8.4967,-8.4967,-8.4967,-8.4967,-8.5608,-8.6248,-8.6248,-8.8434,-9.0679,-9.0011,-9.1224,-9.3358,-9.8291,-10.0647,-10.2768,-10.6124,-10.7327,-10.8574,-11.0602,-11.1916,-11.299,-11.4064,-11.504,-11.5625,-11.5625,-11.5625,-11.5625,-11.5625,-11.5625,-11.5625,-11.5625,-11.5625,-11.5625,-11.5625,-11.5625,-11.5625,-11.5625,-11.5625,-11.5625,-11.5625,-11.5625,-11.5625,-11.5625,-11.5625,-11.5625,-11.5625,-11.5625,-11.5926,-11.6873,-11.8309,-12.0604,-6.0062,-6.0783,-6.1504,-6.401,-6.5756,-6.7009,-6.7617,-6.9591,-7.1148,-7.0692,-7.1907,0.0,0.0,-7.5665,0.0,-8.0259,-8.0639,-8.1322,0.0,0.0,0.0,0.0,0.0,0.0,0.0,0.0,0.0,0.0,0.0,0.0,0.0,0.0,-9.0016,-9.0016,-9.0016,-9.0016,-9.0016,-9.0016,-9.0016,-9.0016,-9.0016,-9.0016,-9.0016,-9.0016,-9.0016,-9.0016,-9.0016,-9.0016,-9.0016,-9.0016,-9.0016,-9.0016,-9.0016,-8.9865,-8.9637,-8.8802,-8.7966,-8.7131,-8.6296,-8.5537,-8.4967,-8.4967,-8.4967,-8.4967,-8.4967,-8.4967,-8.5288,-8.5288,-8.6248,-8.7483,-8.8118,-8.9342,-9.1224,-9.4284,-9.6732,-9.9674,-10.3779,-10.6039,-10.8418,-11.181,-11.328,-11.4112,-11.5137,-11.5479,-11.5625,-11.5625,-11.5625,-11.5625,-11.5625,-11.5625,-11.5625,-11.5625,-11.5625,-11.5625,-11.5625,-11.5625,-11.5625,-11.5625,-11.5625,-11.5625,-11.5625,-11.5625,-11.5625,-11.5625,-11.5625,-11.5625,-11.5625,-11.5625,-11.5674,-11.5926,-11.6823,-11.8604,-6.0138,-6.0897,-6.1314,-6.1884,-6.3327,-6.4693,-6.5111,-6.6857,-6.8376,-6.83,-6.9629,-7.1034,0.0,0.0,-7.5476,-7.8437,0.0,-8.1057,-8.2423,0.0,0.0,0.0,0.0,0.0,0.0,0.0,0.0,0.0,0.0,0.0,0.0,0.0,-9.0016,-9.0016,-9.0016,-9.0016,-9.0016,-9.0016,-9.0016,-9.0016,-9.0016,-9.0016,-9.0016,-9.0016,-9.0016,-9.0016,0.0,-9.0016,-9.0016,-9.0016,-9.0016,-9.0016,-9.0016,-9.0016,-8.9941,-8.9523,-8.884,-8.7966,-8.7169,-8.6524,-8.6068,-8.5688,-8.5575,-8.5499,-8.5081,-8.4967,-8.4967,-8.4967,-8.586,-8.7119,-8.7728,-8.8422,-8.9664,-9.2464,-9.4621,-9.6992,-10.1953,-10.518,-10.7914,-11.2237,-11.3566,-11.4454,-11.5479,-11.5625,-11.5625,-11.5625,-11.5625,-11.5625,-11.5625,-11.5625,-11.5625,-11.5625,-11.5625,-11.5625,-11.5625,-11.5625,-11.5625,-11.5625,-11.5625,-11.5625,-11.5625,-11.5625,-11.5625,-11.5625,-11.5625,-11.5625,-11.5625,-11.5625,-11.5625,-11.5625,-11.6574,-11.8013,-6.0631,-6.1618,-6.1846,-6.0555,-6.0745,-6.1466,-6.2188,-6.3516,-6.4845,-6.5832,-6.7199,-6.8528,0.0,-7.1186,-7.3046,0.0,0.0,-8.0601,0.0,0.0,-8.3904,0.0,0.0,0.0,0.0,0.0,0.0,0.0,0.0,0.0,0.0,-9.0016,-9.0016,-9.0016,-9.0016,-9.0016,-9.0016,-9.0016,-9.0016,-9.0016,-9.0016,-9.0016,-9.0016,-9.0016,-9.0016,0.0,0.0,-9.0016,-9.0016,-9.0016,-9.0016,-9.0016,-9.0016,-9.0016,-9.0016,-9.0016,-8.9561,-8.884,-8.8004,-8.7625,-8.7397,-8.6713,-8.6486,-8.6334,-8.5423,-8.5233,-8.5347,-8.5347,-8.641,-8.7511,-8.8501,-8.7963,-8.84,-9.154,-9.2834,-9.5269,-10.1142,-10.4398,-10.7697,-11.2178,-11.3809,-11.4649,-11.5479,-11.5625,-11.5625,-11.5625,-11.5625,-11.5625,-11.5625,-11.5625,-11.5625,-11.5625,-11.5625,-11.5625,-11.5625,-11.5625,-11.5625,-11.5625,-11.5625,-11.5625,-11.5625,-11.5625,-11.5625,-11.5625,-11.5625,-11.5625,-11.5625,-11.5625,-11.5625,-11.5625,-11.6275,-11.7419,-5.9948,-6.0327,-6.0517,-6.0973,-6.1163,-6.1314,-6.1428,-6.2226,-6.3327,-6.4845,-6.5377,-6.625,-6.8566,-7.035,0.0,0.0,0.0,0.0,-7.9918,-8.1626,-8.3221,-8.4777,0.0,0.0,0.0,0.0,0.0,0.0,0.0,0.0,0.0,-9.0016,-9.0016,-9.0016,-9.0016,-9.0016,-9.0016,-9.0016,-9.0016,-9.0016,-9.0016,-9.0016,-9.0016,-9.0016,-9.0016,-9.0016,0.0,0.0,-9.0016,-9.0016,-9.0016,-9.0016,-9.0016,-9.0016,-9.0016,-9.0016,-8.9941,-8.9713,-8.8878,-8.8118,-8.7511,-8.7397,-8.7321,-8.7169,-8.6334,-8.6562,-8.7131,-8.7131,-8.7321,-8.7511,-8.7511,-8.7435,-8.798,-8.9947,-9.2385,-9.5353,-10.0726,-10.501,-10.8758,-11.2516,-11.4576,-11.5479,-11.5625,-11.5625,-11.5625,-11.5625,-11.5625,-11.5625,-11.5625,-11.5625,-11.5625,-11.5625,-11.5625,-11.5625,-11.5625,-11.5625,-11.5625,-11.5625,-11.5625,-11.5625,-11.5625,-11.5625,-11.5625,-11.5625,-11.5625,-11.5625,-11.5625,-11.5625,-11.5625,-11.5625,-11.5674,-11.6226,-6.0479,-6.1049,-6.1466,-6.1846,-6.1618,-6.139,-6.1846,-6.1884,-6.2302,-6.3972,-6.3972,-6.4276,-6.6326,-6.8072,-6.9781,0.0,-7.3919,0.0,0.0,0.0,-8.2272,-8.3448,0.0,0.0,0.0,0.0,0.0,0.0,0.0,0.0,0.0,-9.0016,-9.0016,-9.0016,-9.0016,-9.0016,-9.0016,-9.0016,-9.0016,-9.0016,-9.0016,-9.0016,-9.0016,-9.0016,-9.0016,0.0,0.0,0.0,-9.0016,-9.0016,-9.0016,-9.0016,-9.0016,-9.0016,-9.0016,-9.0016,-9.0016,-8.9941,-8.9561,-8.9181,-8.8802,-8.8346,-8.8194,-8.8042,-8.7207,-8.7852,-8.8764,-8.8346,-8.8536,-8.8878,-8.8878,-8.8536,-8.8527,-9.0517,-9.2378,-9.5448,-10.0569,-10.5151,-10.9178,-11.2802,-11.4467,-11.5625,-11.5625,-11.5625,-11.5625,-11.5625,-11.5625,-11.5625,-11.5625,-11.5625,-11.5625,-11.5625,-11.5625,-11.5625,-11.5625,-11.5625,-11.5625,-11.5625,-11.5625,-11.5625,-11.5625,-11.5625,-11.5625,-11.5625,-11.5625,-11.5625,-11.5625,-11.5625,-11.5625,-11.5625,-11.5625,-11.5975,-6.2036,0.0,-6.3137,-6.3365,-6.2605,-6.196,0.0,-6.2036,-6.1922,-6.3213,-6.3137,-6.3251,-6.4693,-6.6326,-6.8224,-7.0616,-7.2894,-7.5058,-7.6956,0.0,0.0,-8.2006,-8.5347,0.0,0.0,0.0,0.0,0.0,0.0,0.0,0.0,-9.0016,-9.0016,-9.0016,-9.0016,-9.0016,-9.0016,-9.0016,-9.0016,-9.0016,-9.0016,-9.0016,-9.0016,-9.0016,-9.0016,0.0,0.0,0.0,-9.0016,-9.0016,-9.0016,-9.0016,-9.0016,-9.0016,-9.0016,-9.0016,-9.0016,-9.0016,-9.0016,-9.0016,-8.9903,-8.9257,-8.9067,-8.8915,-8.808,-8.884,-8.9865,-8.9257,-8.9523,-9.0016,-9.0016,-8.9523,-8.9404,-9.1413,-9.3138,-9.5985,-10.0915,-10.5466,-10.9457,-11.2544,-11.4467,-11.5625,-11.5625,-11.5625,-11.5625,-11.5625,-11.5625,-11.5625,-11.5625,-11.5625,-11.5625,-11.5625,-11.5625,-11.5625,-11.5625,-11.5625,-11.5625,-11.5625,-11.5625,-11.5625,-11.5625,-11.5625,-11.5625,-11.5625,-11.5625,-11.5625,-11.5625,-11.5625,-11.5625,-11.5625,-11.5625,-11.5926,0.0,-6.5339,-6.4997,-6.5756,-6.4769,-6.3403,-6.2681,-6.2491,0.0,-6.2605,-6.3175,-6.3934,-6.4807,-6.6326,-6.8034,-6.9819,-7.1565,-7.3539,0.0,-7.6463,0.0,0.0,-8.5005,0.0,0.0,0.0,0.0,0.0,0.0,0.0,0.0,-9.0016,-9.0016,-9.0016,-9.0016,-9.0016,-9.0016,-9.0016,-9.0016,-9.0016,-9.0016,-9.0016,-9.0016,-9.0016,-9.0016,0.0,0.0,0.0,0.0,-9.0016,-9.0016,-9.0016,-9.0016,-9.0016,-9.0016,-9.0016,-9.0016,-9.0016,-9.0016,-9.0016,-8.9979,-8.9941,-8.9903,-8.9751,-8.8953,-8.9295,-8.9979,-8.9941,-8.9979,-9.0016,-9.0016,-8.9979,-9.0242,-9.2309,-9.4536,-9.7722,-10.195,-10.6457,-11.0033,-11.2687,-11.4467,-11.5625,-11.5625,-11.5625,-11.5625,-11.5625,-11.5625,-11.5625,-11.5625,-11.5625,-11.5625,-11.5625,-11.5625,-11.5625,-11.5625,-11.5625,-11.5625,-11.5625,-11.5625,-11.5625,-11.5625,-11.5625,-11.5625,-11.5625,-11.5625,-11.5625,-11.5625,-11.5625,-11.5625,-11.5625,-11.5625,-11.5674,-6.7807,-6.8338,-6.8186,-6.8528,-6.7313,-6.5984,-6.5643,-6.439,-6.3441,-6.3934,-6.3479,-6.3554,-6.5415,-6.625,-6.7427,-6.9667,-7.1831,-7.3767,0.0,0.0,0.0,-8.0981,0.0,0.0,0.0,0.0,0.0,0.0,0.0,0.0,0.0,-9.0016,-9.0016,-9.0016,-9.0016,-9.0016,-9.0016,-9.0016,-9.0016,-9.0016,-9.0016,-9.0016,-9.0016,-9.0016,-9.0016,0.0,0.0,0.0,0.0,-9.0016,-9.0016,-9.0016,-9.0016,-9.0016,-9.0016,-9.0016,-9.0016,-9.0016,-9.0016,-9.0016,-9.0016,-9.0016,-9.0016,-8.9941,-8.9637,-8.9751,-9.0016,-9.0016,-9.0016,-9.0016,-9.0016,-9.0016,-9.0356,-9.2387,-9.4656,-9.7558,-10.1476,-10.5642,-10.9505,-11.1979,-11.386,-11.5072,-11.5674,-11.5625,-11.5625,-11.5625,-11.5625,-11.5625,-11.5625,-11.5625,-11.5625,-11.5625,-11.5625,-11.5625,-11.5625,-11.5625,-11.5625,-11.5625,-11.5625,-11.5625,-11.5625,-11.5625,-11.5625,-11.5625,-11.5625,-11.5625,-11.5625,-11.5625,-11.5625,-11.5625,-11.5625,-11.5625,-7.0654,-7.1375,-7.1527,-7.1261,-7.0123,-6.8832,-6.8072,-6.6554,-6.5263,-6.4997,-6.4276,-6.4238,-6.5908,-6.6668,-6.7693,-6.9705,-7.2097,-7.4033,0.0,0.0,0.0,-8.1019,-8.4018,-8.6334,0.0,0.0,0.0,0.0,0.0,0.0,0.0,-9.0016,-9.0016,-9.0016,-9.0016,-9.0016,-9.0016,-9.0016,-9.0016,-9.0016,-9.0016,-9.0016,-9.0016,-9.0016,-9.0016,0.0,0.0,0.0,0.0,-9.0016,-9.0016,-9.0016,-9.0016,-9.0016,-9.0016,-9.0016,-9.0016,-9.0016,-9.0016,-9.0016,-9.0016,-9.0016,-9.0016,-9.0016,-9.0016,-9.0016,-9.0016,-9.0016,-9.0016,-9.0016,-9.0016,-9.0016,-9.0356,-9.205,-9.4322,-9.694,-10.0178,-10.4369,-10.8209,-11.0699,-11.2898,-11.4418,-11.5072,-11.5674,-11.5625,-11.5625,-11.5625,-11.5625,-11.5625,-11.5625,-11.5625,-11.5625,-11.5625,-11.5625,-11.5625,-11.5625,-11.5625,-11.5625,-11.5625,-11.5625,-11.5625,-11.5625,-11.5625,-11.5625,-11.5625,-11.5625,-11.5625,-11.5625,-11.5625,-11.5625,-11.5625,-11.5625,-7.3539,-7.4375,-7.4792,-7.3957,-7.3122,-7.1869,-6.9439,-6.8832,-6.8072,-6.5529,-6.5681,-6.625,-6.625,-6.7655,-6.9059,-6.9895,-7.2135,-7.4033,-7.4868,-7.6501,-7.8513,0.0,0.0,-8.379,-8.7207,0.0,0.0,0.0,0.0,0.0,0.0,-9.0016,-9.0016,-9.0016,-9.0016,-9.0016,-9.0016,-9.0016,-9.0016,-9.0016,-9.0016,-9.0016,-9.0016,-9.0016,-9.0016,0.0,0.0,0.0,0.0,-9.0016,-9.0016,-9.0016,-9.0016,-9.0016,-9.0016,-9.0016,-9.0016,-9.0016,-9.0016,-9.0016,-9.0016,-9.0016,-9.0016,-9.0016,-9.0016,-9.0016,-9.0016,-9.0016,-9.0016,-9.0016,-9.0016,-9.0016,-9.0356,-9.1035,-9.3357,-9.5947,-9.8544,-10.2445,-10.6321,-10.8835,-11.1316,-11.346,-11.4418,-11.5072,-11.5625,-11.5625,-11.5625,-11.5625,-11.5625,-11.5625,-11.5625,-11.5625,-11.5625,-11.5625,-11.5625,-11.5625,-11.5625,-11.5625,-11.5625,-11.5625,-11.5625,-11.5625,-11.5625,-11.5625,-11.5625,-11.5625,-11.5625,-11.5625,-11.5625,-11.5625,-11.5625,-11.5625,-7.5855,-7.6615,-7.6729,-7.6463,-7.5324,-7.4071,-7.3312,-7.1337,-6.9439,-6.868,-6.7769,-6.7275,-6.7921,-6.8946,-6.9933,0.0,-7.3463,-7.5552,-7.5817,-7.8323,-8.0639,-8.1968,0.0,-8.4474,0.0,0.0,0.0,0.0,0.0,0.0,0.0,-9.0016,-9.0016,-9.0016,-9.0016,-9.0016,-9.0016,-9.0016,-9.0016,-9.0016,-9.0016,-9.0016,-9.0016,-9.0016,-9.0016,-9.0016,-9.0016,0.0,0.0,-9.0016,-9.0016,-9.0016,-9.0016,-9.0016,-9.0016,-9.0016,-9.0016,-9.0016,-9.0016,-9.0016,-9.0016,-9.0016,-9.0016,-9.0016,-9.0016,-9.0016,-9.0016,-9.0016,-9.0016,-9.0016,-9.0016,-9.0016,-9.0356,-9.1035,-9.2348,-9.4322,-9.6899,-9.9852,-10.3088,-10.6276,-10.8835,-11.1316,-11.3155,-11.4115,-11.5023,-11.5674,-11.5625,-11.5625,-11.5625,-11.5625,-11.5625,-11.5625,-11.5625,-11.5625,-11.5625,-11.5625,-11.5625,-11.5625,-11.5625,-11.5625,-11.5625,-11.5625,-11.5625,-11.5625,-11.5625,-11.5625,-11.5625,-11.5625,-11.5625,-11.5625,-11.5625,-11.5625,-7.7526,-7.8285,-7.8475,-7.8133,-7.6994,-7.5741,-7.4716,-7.2932,-7.111,-6.9819,-6.9249,-6.8946,-6.8832,-7.0009,-7.1186,-7.1679,-7.4261,-7.6425,-7.7146,-7.9538,-8.1664,-8.2841,-8.3714,-8.5081,0.0,0.0,0.0,0.0,0.0,0.0,-9.0016,-9.0016,-9.0016,-9.0016,-9.0016,-9.0016,-9.0016,-9.0016,-9.0016,-9.0016,-9.0016,-9.0016,-9.0016,-9.0016,-9.0016,-9.0016,-9.0016,0.0,0.0,-9.0016,-9.0016,-9.0016,-9.0016,-9.0016,-9.0016,-9.0016,-9.0016,-9.0016,-9.0016,-9.0016,-9.0016,-9.0016,-9.0016,-9.0016,-9.0016,-9.0016,-9.0016,-9.0016,-9.0016,-9.0016,-9.0016,-9.0016,-9.0016,-9.0696,-9.1673,-9.2646,-9.4616,-9.727,-9.9852,-10.3088,-10.6276,-10.9147,-11.1624,-11.3508,-11.4769,-11.5625,-11.5625,-11.5625,-11.5625,-11.5625,-11.5625,-11.5625,-11.5625,-11.5625,-11.5625,-11.5625,-11.5625,-11.5625,-11.5625,-11.5625,-11.5625,-11.5625,-11.5625,-11.5625,-11.5625,-11.5625,-11.5625,-11.5625,-11.5625,-11.5625,-11.5625,-11.5625,-7.8627,-7.9462,-7.9842,-7.9082,-7.8209,-7.6918,-7.4489,-7.3843,-7.2856,-6.9781,-7.035,-7.0958,-6.9515,-7.1148,-7.2742,-7.2818,-7.4868,-7.6994,-7.8665,-8.0297,-8.1968,-8.3562,-8.4474,-8.5612,-8.7245,-8.7473,-8.8194,0.0,0.0,0.0,-9.0016,-9.0016,-9.0016,-9.0016,-9.0016,-9.0016,-9.0016,-9.0016,-9.0016,-9.0016,-9.0016,-9.0016,-9.0016,-9.0016,-9.0016,-9.0016,-9.0016,0.0,0.0,-9.0016,-9.0016,-9.0016,-9.0016,-9.0016,-9.0016,-9.0016,-9.0016,-9.0016,-9.0016,-9.0016,-9.0016,-9.0016,-9.0016,-9.0016,-9.0016,-9.0016,-9.0016,-9.0016,-9.0016,-9.0016,-9.0016,-9.0016,-9.0016,-9.0016,-9.0696,-9.1374,-9.2309,-9.4616,-9.727,-9.9894,-10.373,-10.7536,-11.0126,-11.2592,-11.4769,-11.5674,-11.5625,-11.5625,-11.5625,-11.5625,-11.5625,-11.5625,-11.5625,-11.5625,-11.5625,-11.5625,-11.5625,-11.5625,-11.5625,-11.5625,-11.5625,-11.5625,-11.5625,-11.5625,-11.5625,-11.5625,-11.5625,-11.5625,-11.5625,-11.5625,-11.5625,-11.5625,-7.9348,-7.988,-7.9994,-7.9804,-7.8627,-7.7222,-7.5969,-7.464,-7.335,-7.1983,-7.1983,-7.2325,-7.2628,-7.3653,-7.4678,-7.5286,-7.6994,-7.8589,-7.9614,-8.1171,-8.2575,-8.36,-8.4474,-8.5385,-8.6448,-8.7131,0.0,-8.8991,0.0,0.0,-9.0016,-9.0016,-9.0016,-9.0016,-9.0016,-9.0016,-9.0016,-9.0016,-9.0016,-9.0016,-9.0016,-9.0016,-9.0016,-9.0016,-9.0016,-9.0016,-9.0016,0.0,0.0,-9.0016,-9.0016,-9.0016,-9.0016,-9.0016,-9.0016,-9.0016,-9.0016,-9.0016,-9.0016,-9.0016,-9.0016,-9.0016,-9.0016,-9.0016,-9.0016,-9.0016,-9.0016,-9.0016,-9.0016,-9.0016,-9.0016,-9.0016,-9.0016,-9.0016,-9.0016,-9.0696,-9.1335,-9.3357,-9.5322,-9.797,-10.2123,-10.5959,-10.9147,-11.2026,-11.3908,-11.5373,-11.5625,-11.5625,-11.5625,-11.5625,-11.5625,-11.5625,-11.5625,-11.5625,-11.5625,-11.5625,-11.5625,-11.5625,-11.5625,-11.5625,-11.5625,-11.5625,-11.5625,-11.5625,-11.5625,-11.5625,-11.5625,-11.5625,-11.5625,-11.5625,-11.5625,-11.5625,-7.9082,-7.9728,-8.0032,-8.0032,-7.9082,-7.7905,-7.7032,-7.5855,-7.4564,-7.335,-7.3729,-7.4147,-7.3805,-7.5096,-7.6349,-7.6766,-7.7943,-7.9348,-8.0981,-8.193,-8.2917,-8.417,-8.4701,-8.5309,-8.622,-8.6676,-8.7435,-8.8688,0.0,-8.9409,-8.9409,-8.9409,-8.9599,-8.9979,-9.0016,-9.0016,-9.0016,-9.0016,-9.0016,-9.0016,-9.0016,-9.0016,-9.0016,-9.0016,-9.0016,-9.0016,-9.0016,0.0,-9.0016,-9.0016,-9.0016,-9.0016,-9.0016,-9.0016,-9.0016,-9.0016,-9.0016,-9.0016,-9.0016,-9.0016,-9.0016,-9.0016,-9.0016,-9.0016,-9.0016,-9.0016,-9.0016,-9.0016,-9.0016,-9.0016,-9.0016,-9.0016,-9.0016,-9.0016,-9.0356,-9.0696,-9.1374,-9.2685,-9.4989,-9.7311,-10.1153,-10.5007,-10.8835,-11.1718,-11.3908,-11.5373,-11.5625,-11.5625,-11.5625,-11.5625,-11.5625,-11.5625,-11.5625,-11.5625,-11.5625,-11.5625,-11.5625,-11.5625,-11.5625,-11.5625,-11.5625,-11.5625,-11.5625,-11.5625,-11.5625,-11.5625,-11.5625,-11.5625,-11.5625,-11.5625,-11.5625,-11.5625,-7.8475,-7.9272,-7.9842,-7.9994,-7.9386,-7.8551,-7.7754,-7.6994,-7.6007,-7.4451,-7.5248,-7.5817,-7.4602,-7.6121,-7.7602,-7.7754,-7.8437,-7.9804,-8.2158,-8.2461,-8.3107,-8.4739,-8.4967,-8.5233,-8.5992,-8.622,0.0,0.0,0.0,-8.8422,-8.8574,-8.8574,-8.8953,-8.9789,-8.9789,-8.9865,-9.0016,-9.0016,-9.0016,-9.0016,-9.0016,-9.0016,-9.0016,-9.0016,-9.0016,-9.0016,-9.0016,0.0,-9.0016,-9.0016,-9.0016,-9.0016,-9.0016,-9.0016,-9.0016,-9.0016,-9.0016,-9.0016,-9.0016,-9.0016,-8.9979,-8.9827,-8.9903,-9.0016,-9.0016,-9.0016,-9.0016,-9.0016,-9.0016,-9.0016,-9.0016,-9.0016,-9.0016,-9.0016,-9.0696,-9.1374,-9.1712,-9.3021,-9.4989,-9.797,-10.1153,-10.4962,-10.9147,-11.1718,-11.3908,-11.5373,-11.5625,-11.5625,-11.5625,-11.5625,-11.5625,-11.5625,-11.5625,-11.5625,-11.5625,-11.5625,-11.5625,-11.5625,-11.5625,-11.5625,-11.5625,-11.5625,-11.5625,-11.5625,-11.5625,-11.5625,-11.5625,-11.5625,-11.5625,-11.5625,-11.5625,-11.5625,-7.8133,-7.8855,-7.912,-7.9842,-7.9386,-7.8551,-7.7754,-7.745,-7.7108,-7.6083,-7.6045,-7.6387,-7.6956,-7.7336,-7.7792,-7.8475,-7.931,-8.0487,-8.2234,-8.2461,-8.3107,-8.4739,-8.4967,-8.5005,-8.5119,-8.584,-8.641,-8.66,-8.6638,-8.6941,-8.7663,-8.7701,-8.808,-8.8915,-8.8953,-8.9295,-8.9979,-9.0016,-9.0016,-9.0016,-9.0016,-9.0016,-9.0016,-9.0016,-9.0016,-9.0016,0.0,0.0,-9.0016,-9.0016,-9.0016,-9.0016,-9.0016,-9.0016,-9.0016,-9.0016,-9.0016,-9.0016,-9.0016,-9.0016,-8.9865,-8.9181,-8.9447,-9.0016,-9.0016,-9.0016,-9.0016,-9.0016,-9.0016,-9.0016,-9.0016,-9.0016,-9.0016,-9.0016,-9.0696,-9.1712,-9.2348,-9.3318,-9.5322,-9.9241,-10.3409,-10.7222,-11.008,-11.2592,-11.4769,-11.5674,-11.5625,-11.5625,-11.5625,-11.5625,-11.5625,-11.5625,-11.5625,-11.5625,-11.5625,-11.5625,-11.5625,-11.5625,-11.5625,-11.5625,-11.5625,-11.5625,-11.5625,-11.5625,-11.5625,-11.5625,-11.5625,-11.5625,-11.5625,-11.5625,-11.5625,-11.5625,-7.6349,-7.7678,-7.8855,-7.9234,-7.9386,-7.9386,-7.9044,-7.8589,-7.8133,-7.7716,-7.726,-7.707,-7.7488,-7.7943,-7.8361,0.0,0.0,0.0,-8.1626,-8.2196,-8.2917,-8.4132,-8.4663,-8.4967,-8.4967,-8.5309,-8.5764,0.0,-8.584,-8.5916,-8.6789,-8.6827,-8.7207,-8.8042,-8.808,-8.8498,-8.9333,-8.9789,-9.0016,-9.0016,-9.0016,-9.0016,-9.0016,-9.0016,-9.0016,-9.0016,0.0,-9.0016,-9.0016,-9.0016,-9.0016,-9.0016,-9.0016,-9.0016,-9.0016,-9.0016,-8.9713,-8.9333,-8.9333,-8.8991,-8.8536,-8.8194,-8.8308,-8.8612,-8.8612,-8.8612,-8.8612,-8.8612,-8.8612,-8.8726,-8.9181,-8.9333,-8.9447,-8.9903,-9.1035,-9.2387,-9.3357,-9.4696,-9.6319,-9.9283,-10.373,-10.785,-11.1008,-11.3203,-11.4769,-11.5625,-11.5625,-11.5625,-11.5625,-11.5625,-11.5625,-11.5625,-11.5625,-11.5625,-11.5625,-11.5625,-11.5625,-11.5625,-11.5625,-11.5625,-11.5625,-11.5625,-11.5625,-11.5625,-11.5625,-11.5625,-11.5625,-11.5625,-11.5625,-11.5625,-11.5088,-11.4796,-7.4489,-7.6197,-7.7905,-7.8361,-7.9082,-7.9728,-7.9728,-7.9386,-7.9082,-7.9082,-7.8437,-7.7867,-7.7867,-7.8361,-7.8779,-7.8779,-7.9462,0.0,-8.1133,-8.1778,-8.2461,-8.3297,-8.4132,-8.4663,-8.4663,-8.4815,0.0,0.0,-8.5233,-8.5233,-8.5916,-8.5954,-8.6334,-8.7169,-8.7207,-8.7625,-8.846,-8.9067,-8.9371,-8.9371,-8.9371,-8.9371,-8.9371,-8.9371,-8.9371,-8.9371,-8.9371,-8.9371,-8.9371,-8.9371,-8.9371,-8.9371,-8.9371,-8.9371,-8.9371,-8.9371,-8.8991,-8.8422,-8.8232,-8.7739,-8.7207,-8.7207,-8.7359,-8.7511,-8.7511,-8.7511,-8.7511,-8.7511,-8.7511,-8.7663,-8.8308,-8.8612,-8.8953,-8.9561,-9.122,-9.306,-9.4027,-9.5655,-9.7682,-9.9325,-10.3132,-10.7267,-11.039,-11.2898,-11.4769,-11.5625,-11.5625,-11.5625,-11.5625,-11.5625,-11.5625,-11.5625,-11.5625,-11.5625,-11.5625,-11.5625,-11.5625,-11.5625,-11.5625,-11.5625,-11.5625,-11.5625,-11.5625,-11.5625,-11.5381,-11.5284,-11.5284,-11.4991,-11.4844,-11.4844,-11.4064,-11.3722,-7.316,-7.4451,-7.559,-7.7222,-7.8247,-7.8855,-7.8855,-7.9424,-7.9956,-7.9956,-7.931,-7.8703,-7.8703,-7.8741,-7.8779,-7.8779,-7.9462,-8.0335,-8.1133,-8.1284,-8.1626,-8.2423,-8.3297,-8.379,-8.379,-8.4511,0.0,-8.3942,0.0,-8.4967,-8.5005,-8.5005,-8.5423,-8.6334,-8.6372,-8.6751,-8.7587,-8.7625,-8.7663,-8.7663,-8.7663,-8.7663,-8.7663,-8.7663,-8.7663,-8.7663,-8.7663,-8.7663,-8.7663,-8.7663,-8.7663,-8.7663,-8.7663,-8.7663,-8.7663,-8.7663,-8.7625,-8.7473,-8.6713,-8.641,-8.6372,-8.6372,-8.6903,-8.7511,-8.7511,-8.7511,-8.7511,-8.7511,-8.7511,-8.7549,-8.7587,-8.8194,-8.8802,-8.884,-9.0796,-9.306,-9.4027,-9.5987,-9.8299,-10.0263,-10.2897,-10.5458,-10.7941,-11.1671,-11.4769,-11.5625,-11.5625,-11.5625,-11.5625,-11.5625,-11.5625,-11.5625,-11.5625,-11.5625,-11.5625,-11.5625,-11.5625,-11.5625,-11.5625,-11.5625,-11.5625,-11.5625,-11.5625,-11.5625,-11.4698,-11.421,-11.421,-11.3185,-11.2697,-11.2697,-11.2648,-11.2648,-7.0958,-7.2325,-7.3653,-7.4792,-7.6121,-7.7108,-7.7108,-7.7792,-7.8437,-7.8437,-7.7754,-7.7298,-7.7867,-7.7981,-7.8171,-7.8665,-7.9462,-8.0145,-8.0449,-8.0905,-8.136,-8.1664,-8.2423,-8.2917,0.0,0.0,0.0,-8.2955,-8.3714,-8.417,-8.417,-8.4663,-8.5119,-8.5423,-8.5423,-8.584,-8.6751,-8.6751,-8.7017,-8.7511,-8.7511,-8.7511,-8.7511,-8.7511,-8.7511,-8.7511,-8.7511,-8.7511,-8.7511,-8.7511,-8.7511,-8.7511,-8.7511,-8.7511,-8.7511,-8.7511,-8.7207,-8.66,-8.5726,-8.5423,-8.5423,-8.5423,-8.565,-8.5878,-8.5878,-8.5878,-8.5878,-8.5878,-8.5878,-8.5992,-8.66,-8.6979,-8.7321,-8.7852,-8.9614,-9.153,-9.2823,-9.496,-9.7352,-10.0263,-10.2252,-10.4777,-10.7627,-11.0746,-11.3508,-11.5373,-11.5625,-11.5625,-11.5625,-11.5625,-11.5625,-11.5625,-11.5625,-11.5625,-11.5625,-11.5625,-11.5625,-11.5625,-11.504,-11.4698,-11.4698,-11.4015,-11.3673,-11.3673,-11.3283,-11.3136,-11.3136,-11.2746,-11.255,-11.255,-11.1818,-11.1477,-6.8946,-7.0198,-7.1451,-7.2287,-7.3501,-7.4564,-7.4564,-7.521,-7.5931,-7.6197,-7.5779,-7.5703,-7.688,-7.7108,-7.7374,-7.8209,-7.9044,-7.9614,-7.9614,-8.0335,-8.0829,-8.0829,-8.155,0.0,0.0,0.0,0.0,-8.2044,-8.2841,-8.3297,-8.3297,-8.3828,-8.4246,-8.4549,-8.4549,-8.4967,-8.584,-8.584,-8.6106,-8.6676,-8.6676,-8.6676,-8.6676,-8.6676,-8.6676,-8.6676,-8.6676,-8.6676,-8.6676,-8.6676,-8.6676,-8.6676,-8.6676,-8.6676,-8.6676,-8.6676,-8.6334,-8.5764,-8.5157,-8.4967,-8.4967,-8.4967,-8.4967,-8.4967,-8.4967,-8.4967,-8.4967,-8.4967,-8.4967,-8.5081,-8.6012,-8.6393,-8.7062,-8.7925,-8.9681,-9.1294,-9.2898,-9.4691,-9.706,-9.9332,-10.1579,-10.3804,-10.6316,-10.9104,-11.1641,-11.414,-11.4838,-11.504,-11.4649,-11.46,-11.46,-11.46,-11.46,-11.46,-11.46,-11.46,-11.46,-11.46,-11.3966,-11.3624,-11.3624,-11.2941,-11.255,-11.255,-11.216,-11.1965,-11.1965,-11.1623,-11.1428,-11.1428,-11.0696,-11.0305,-6.7123,-6.7958,-6.8832,-6.9667,-7.0502,-7.1148,-7.1148,-7.1793,-7.2628,-7.3426,-7.3615,-7.4109,-7.5779,-7.6083,-7.6387,-7.7374,-7.8171,-7.8703,-7.8741,-7.9462,-7.9994,-7.9994,-8.0715,-8.1208,0.0,-8.1171,-8.1171,-8.1208,-8.1968,-8.2423,-8.2423,-8.2461,-8.2841,-8.3676,-8.3714,-8.4094,-8.4929,-8.4929,-8.4929,-8.4967,-8.4967,-8.4967,-8.4967,-8.4967,-8.4967,-8.4967,-8.4967,-8.4967,-8.4967,-8.4967,-8.4967,-8.4967,-8.4967,-8.4967,-8.4967,-8.4967,-8.4967,-8.4967,-8.4967,-8.4967,-8.4967,-8.4967,-8.4967,-8.4967,-8.4967,-8.4967,-8.4967,-8.4967,-8.4967,-8.5288,-8.5928,-8.6865,-8.7844,-8.9457,-9.138,-9.295,-9.3595,-9.588,-9.7786,-9.7786,-10.0613,-10.3139,-10.4062,-10.6756,-10.9489,-11.1483,-11.3123,-11.3673,-11.2648,-11.255,-11.255,-11.255,-11.255,-11.255,-11.255,-11.255,-11.255,-11.255,-11.2502,-11.2502,-11.2502,-11.2453,-11.2453,-11.2453,-11.1379,-11.0842,-11.0793,-10.9768,-10.928,-10.928,-10.9232,-10.9232,-6.439,-6.4959,-6.5339,-6.6174,-6.7009,-6.7769,-6.8376,-6.9173,-7.0047,-7.0882,-7.1034,-7.1527,-7.3198,-7.3501,-7.4185,-7.6235,-7.6766,-7.7146,-7.7792,-7.8589,-7.912,-7.912,-7.9842,-8.0107,-7.95,-7.9462,-7.9728,-8.0335,-8.1133,-8.1588,-8.1588,-8.2158,-8.2575,-8.2803,-8.2803,-8.3221,-8.4056,-8.4056,-8.436,-8.4967,-8.4967,-8.4967,-8.4967,-8.4967,-8.4967,-8.4967,-8.4967,-8.4967,-8.4967,-8.4967,-8.4967,-8.4967,-8.4967,-8.4967,-8.4967,-8.4967,-8.4967,-8.4967,-8.4967,-8.4967,-8.4967,-8.4967,-8.4967,-8.4967,-8.4967,-8.4967,-8.4967,-8.4967,-8.4967,-8.5288,-8.5928,-8.6402,-8.6915,-8.883,-8.9822,-9.1421,-9.3337,-9.538,-9.7385,-9.9945,-10.2123,-10.4278,-10.6105,-10.8261,-11.0192,-11.1073,-11.1673,-11.1965,-11.2453,-11.255,-11.255,-11.255,-11.255,-11.255,-11.255,-11.255,-11.255,-11.255,-11.177,-11.133,-11.133,-11.0598,-11.0159,-11.0159,-10.9866,-10.972,-10.972,-10.9427,-10.928,-10.9232,-10.8451,-10.8109,-6.196,-6.2188,-6.2415,-6.3213,-6.3516,-6.4048,-6.5567,-6.5794,-6.606,-6.7579,-6.7617,-6.7996,-7.0009,-7.0388,-7.1224,0.0,-7.4451,-7.5096,-7.6311,-7.7184,-7.783,-7.8209,-7.8361,-7.8399,-7.8285,-7.8551,-7.8969,-7.9462,-8.0259,-8.0753,-8.0753,-8.1208,-8.1626,-8.193,-8.1968,-8.2347,-8.3183,-8.3221,-8.3448,-8.3904,-8.3904,-8.4094,-8.4436,-8.4436,-8.4625,-8.4967,-8.4967,-8.4967,-8.4967,-8.4967,-8.4967,-8.4967,-8.4967,-8.4967,-8.4891,-8.417,-8.3904,-8.3904,-8.3904,-8.3904,-8.3904,-8.3904,-8.3904,-8.3904,-8.3904,-8.3904,-8.398,-8.4322,-8.4436,-8.4831,-8.649,-8.7205,-8.7801,-9.0325,-9.1673,-9.3297,-9.5523,-9.7413,-9.9303,-10.1231,-10.3311,-10.5113,-10.6648,-10.8172,-10.9392,-11.0266,-11.031,-11.0452,-11.1086,-11.1184,-11.1184,-11.1184,-11.1184,-11.1184,-11.1184,-11.1184,-11.1184,-11.1184,-11.0549,-11.0208,-11.0208,-10.9183,-10.8597,-10.8597,-10.8158,-10.7914,-10.7914,-10.7914,-10.7914,-10.7914,-10.7279,-10.6742,-5.9378,-5.934,-5.953,-6.0251,-5.9948,-6.01,0.0,-6.1846,-6.1504,-6.3782,-6.3858,-6.4162,-6.6478,-6.6971,-6.7883,-7.0426,-7.1451,-7.2552,-7.4337,-7.5286,-7.6045,-7.6766,-7.6121,-7.6083,-7.7146,-7.7943,-7.8437,-7.8627,-7.9424,-7.988,-7.988,-7.9994,-8.0373,-8.1095,-8.1133,-8.1512,-8.2309,-8.2347,-8.2385,-8.2461,-8.2461,-8.2879,-8.36,-8.36,-8.398,-8.4663,-8.4663,-8.4663,-8.4663,-8.4663,-8.4663,-8.4663,-8.4663,-8.4663,-8.4511,-8.3031,-8.2461,-8.2461,-8.2461,-8.2461,-8.2461,-8.2461,-8.2461,-8.2461,-8.2461,-8.2461,-8.2613,-8.3373,-8.36,-8.4068,-8.642,-8.7882,-8.9416,-9.2532,-9.4686,-9.6212,-9.8071,-10.0214,-10.2086,-10.2381,-10.419,-10.6076,-10.6076,-10.7231,-10.8329,-10.8939,-10.889,-10.889,-10.889,-10.8988,-10.9085,-10.9085,-10.9183,-10.928,-10.928,-10.9134,-10.9085,-10.9085,-10.8988,-10.889,-10.889,-10.7963,-10.7474,-10.7474,-10.6547,-10.6059,-10.6059,-10.6059,-10.6059,-10.6059,-10.5913,-10.5132,0.0,0.0,0.0,0.0,0.0,0.0,0.0,-5.7974,-5.8543,-5.9682,-6.0897,-6.2112,-6.3289,-6.401,-6.5301,-6.7807,-6.8338,-6.9287,-7.1679,-7.2704,-7.3046,-7.2552,-7.2362,-7.3084,-7.5286,-7.5628,-7.6311,-7.7678,-7.8551,-7.9006,-7.9006,-7.9652,-8.0107,-8.0259,-8.0259,-8.0677,-8.1474,-8.1474,-8.1816,-8.2461,-8.2461,-8.2575,-8.2727,-8.2727,-8.2803,-8.2955,-8.2955,-8.2955,-8.2955,-8.2955,-8.2955,-8.2955,-8.2955,-8.2955,-8.2917,-8.2575,-8.2461,-8.2461,-8.2461,-8.2461,-8.2461,-8.2461,-8.2461,-8.2461,-8.2461,-8.2461,-8.2499,-8.2651,-8.2727,-8.3078,-8.51,-8.607,-8.7304,-9.0664,-9.2175,-9.3674,-9.6639,-9.8688,-10.0697,-10.336,-10.5508,-10.6991,-10.8377,-10.8663,-10.8412,-10.6938,-10.6694,-10.6694,-10.6694,-10.7426,-10.7963,-10.7963,-10.8743,-10.928,-10.928,-10.8451,-10.7963,-10.7963,-10.7182,-10.6694,-10.6694,-10.6498,-10.6401,-10.6401,-10.6157,-10.6059,-10.6059,-10.6059,-10.6059,-10.6059,-10.5132,-10.3228,0.0,0.0,0.0,0.0,0.0,0.0,0.0,0.0,0.0,0.0,0.0,-5.8505,0.0,0.0,-6.2567,-6.4655,-6.5681,-6.6971,-6.9059,-7.0123,-7.0502,-7.0085,-7.0388,-7.1299,-7.297,-7.3881,-7.4868,-7.6159,-7.7032,-7.7867,-7.8741,-7.9158,-7.9614,-8.0032,-8.0032,-8.0221,-8.0639,-8.0639,-8.0867,-8.1246,-8.1246,-8.1474,-8.1854,-8.1854,-8.2082,-8.2461,-8.2461,-8.2461,-8.2461,-8.2461,-8.2461,-8.2385,-8.1588,-8.1246,-8.1246,-8.1246,-8.1246,-8.1246,-8.1246,-8.1246,-8.1246,-8.1246,-8.1246,-8.1246,-8.1246,-8.1246,-8.1322,-8.174,-8.1854,-8.2277,-8.4516,-8.6132,-8.7965,-9.1285,-9.371,-9.5771,-9.8055,-9.9907,-10.1712,-10.3754,-10.5032,-10.6264,-10.739,-10.767,-10.7279,-10.6205,-10.6059,-10.6059,-10.6059,-10.6547,-10.6889,-10.6889,-10.7328,-10.767,-10.767,-10.7182,-10.6889,-10.6889,-10.6352,-10.6059,-10.6059,-10.5522,-10.5229,-10.5229,-10.4204,-10.3667,-10.3667,-10.3131,-10.2887,-10.2838,-10.1178,-9.9568,0.0,0.0,0.0,0.0,0.0,0.0,0.0,0.0,0.0,0.0,0.0,0.0,0.0,0.0,0.0,-6.1504,-6.3023,-6.4693,-6.6706,-6.7313,-6.7693,-6.8034,-6.8642,-6.9515,-7.0692,-7.1983,-7.3198,-7.4185,-7.502,-7.6235,-7.7943,-7.8209,0.0,-7.9538,-7.9538,-7.9614,-7.9804,-7.9804,-7.988,-8.0032,0.0,0.0,-8.1019,-8.1019,-8.136,-8.2006,-8.2006,-8.2006,-8.2006,-8.2006,-8.2006,-8.1854,-8.0183,-7.9538,-7.9538,-7.9538,-7.9538,-7.9538,-7.9538,-7.9538,-7.9538,-7.9538,-7.9538,-7.9538,-7.9538,-7.9538,0.0,-8.0335,-8.0525,-8.0982,-8.3464,-8.5826,-8.8356,-9.1627,-9.4775,-9.7513,-9.9183,-10.0833,-10.2149,-10.3223,-10.4251,-10.4952,-10.6059,-10.5717,-10.5425,-10.5425,-10.5425,-10.5425,-10.5425,-10.562,-10.5766,-10.5766,-10.5913,-10.6059,-10.6059,-10.6254,-10.6205,-10.5766,-10.5961,-10.5961,-10.5766,-10.4888,-10.4302,-10.4107,-10.2447,-10.1276,-10.0641,-9.9763,-9.9226,-9.8982,-9.659,-9.537,0.0,0.0,0.0,0.0,0.0,0.0,0.0,0.0,0.0,0.0,0.0,0.0,0.0,0.0,0.0,0.0,-5.9948,-6.1694,-6.4807,-6.4086,-6.3782,-6.5225,-6.5491,-6.6478,-6.8832,-6.9249,-7.0009,-7.1565,-7.2476,-7.3653,-7.5324,0.0,0.0,0.0,0.0,-7.8171,-7.8893,-7.8893,-7.9272,-8.0032,-8.0032,-8.007,-8.0183,-8.0183,-8.0221,-8.0297,-8.0297,-8.0297,-8.0297,-8.0297,-8.0297,-8.0145,-7.8475,-7.783,-7.783,-7.783,-7.783,-7.783,-7.783,0.0,0.0,-7.783,-7.783,-7.783,-7.783,-7.783,-7.7867,-7.7943,-7.7981,-7.8276,-8.0074,-8.2085,-8.465,-8.7872,-9.056,-9.317,-9.5997,-9.7569,-9.9012,-10.1803,-10.3168,-10.4395,-10.5783,-10.4497,-10.3228,-10.3228,-10.3228,-10.3228,-10.3228,-10.4009,-10.4595,-10.4595,0.0,0.0,-10.6059,-10.6938,-10.6645,-10.4692,-10.5522,-10.562,-10.4595,-10.4448,-10.396,-10.3082,-10.2838,-10.1276,-9.8396,-9.825,-9.7713,-9.6688,-9.3613,-9.1661,0.0,0.0,0.0,0.0,0.0,0.0,0.0,0.0,0.0,0.0,0.0,0.0,0.0,0.0,0.0,0.0,-5.7746,-5.9568,-6.0479,-6.0897,-6.1504,-6.2681,-6.3668,-6.4693,-6.5756,-6.6744,-6.7807,-6.8984,-6.9857,-7.1299,-7.3426,-7.3843,-7.4678,-7.6007,-7.6539,-7.6918,-7.726,-7.7792,-7.8247,-7.8589,-7.8589,-7.8589,-7.8589,-7.8589,-7.8589,0.0,-7.8589,-7.8589,-7.8589,-7.8589,-7.8589,0.0,0.0,0.0,0.0,0.0,-7.6045,-7.6045,-7.6045,-7.6045,-7.6045,-7.6045,-7.6045,-7.6045,-7.6045,-7.6045,-7.6045,-7.6045,-7.6387,-7.7056,-7.8749,-8.1103,-8.4045,-8.7128,-8.9997,-9.2574,-9.4774,-9.6651,-9.8491,-10.0078,-10.1529,0.0,-10.1743,-10.184,-10.1959,-10.1959,-10.2496,-10.2887,-10.2887,-10.3277,-10.3521,-10.3521,-10.3912,-10.4204,-10.4204,-10.4644,0.0,0.0,0.0,-10.4009,-10.3521,-10.2935,0.0,0.0,0.0,0.0,0.0,0.0,0.0,0.0,-8.7951,-8.6878,0.0,0.0,0.0,0.0,0.0,0.0,0.0,0.0,0.0,0.0,0.0,0.0,0.0,0.0,0.0,0.0,0.0,-5.7062,-5.6227,-5.7594,-5.9037,-6.01,-6.1694,-6.2833,-6.3061,-6.439,-6.5567,-6.6364,-6.7047,-6.849,-7.0996,-7.111,-7.1869,-7.3577,-7.4185,-7.4716,-7.5172,-7.5817,-7.6387,-7.6842,-7.707,-7.7184,-7.7184,-7.745,-7.7564,-7.7564,-7.7564,-7.7564,-7.7526,-7.7298,-7.7184,-7.6956,-7.4564,-7.3615,-7.3615,-7.3615,-7.3615,-7.3615,-7.3615,-7.3615,-7.3615,-7.3615,-7.3615,-7.3615,-7.3615,-7.3615,-7.3615,-7.3615,-7.4503,-7.5395,-7.6801,-7.9593,-8.2366,-8.5387,-8.8293,-9.0963,-9.2855,-9.4982,-9.7026,-9.7829,-9.8505,-9.875,-9.8335,-9.9601,-10.0495,-10.0788,-10.152,0.0,-10.2398,-10.2447,-10.2545,-10.2838,-10.2887,-10.2887,-10.2887,-10.3131,-10.3179,-10.2887,-10.3131,-10.3033,-10.2447,-10.2008,-10.069,-9.8494,-9.7127,-9.5663,0.0,0.0,0.0,0.0,0.0,0.0,0.0,0.0,0.0,0.0,0.0,0.0,0.0,0.0,0.0,0.0,0.0,0.0,0.0,0.0,0.0,0.0,0.0,0.0,-5.2772,-5.4101,-5.5772,-5.7404,-5.9112,-6.0479,-6.1277,-6.215,-6.2985,-6.382,-6.3896,-6.4997,-6.7465,-6.7617,-6.8414,-7.0123,-7.0198,-7.0996,-7.259,-7.2628,-7.3463,-7.5058,-7.5855,-7.6235,-7.6273,-7.7146,-7.7564,-7.7564,-7.7564,-7.7564,-7.7488,-7.6615,-7.6235,-7.5855,-7.1755,-7.016,-7.016,-7.016,-7.016,-7.016,-7.016,-7.016,-7.016,-7.016,-7.016,-7.016,-7.016,-7.016,-7.016,-7.016,-7.1302,-7.249,-7.3561,-7.5857,-7.8767,-8.1203,-8.4258,-8.7224,-8.9395,-9.182,-9.3852,-9.5193,-9.3468,-9.3124,-9.735,-9.8055,-9.8494,-9.9568,-9.9763,0.0,-10.1227,-10.1325,-10.1715,-10.2789,-10.2887,-10.2887,-10.2887,-10.3765,-10.3912,-10.2935,-10.3814,-10.3423,-10.1422,-10.2301,-10.1813,-9.9665,-9.7518,-9.3857,-8.8684,0.0,0.0,0.0,0.0,0.0,0.0,0.0,0.0,0.0,0.0,0.0,0.0,0.0,0.0,0.0,0.0,0.0,0.0,0.0,0.0,0.0,0.0,0.0,0.0,0.0,-5.3342,-5.5582,-5.6835,-5.7822,-5.8695,-5.9492,-6.01,-6.0365,-6.0973,-6.215,-6.4086,-6.42,-6.4959,-6.663,-6.7731,-6.8566,-6.9135,-7.0274,-7.1148,-7.1717,-7.1983,-7.24,-7.2932,-7.3274,-7.3691,-7.4223,-7.4223,-7.3881,-7.3388,-7.3084,-7.1945,-7.016,-6.7655,-6.6668,-6.6668,-6.6668,-6.7009,-6.7503,-6.7503,-6.7503,-6.7427,-6.6857,-6.6668,-6.6668,-6.6668,-6.6668,-6.6668,-6.6668,-6.8165,-7.0051,-7.0824,-7.3159,-7.6214,-7.8894,-8.158,-8.4056,-8.628,-8.7957,-8.9898,-9.2585,-8.9226,-8.7594,-9.3113,-9.4538,-9.537,-9.7225,-9.8103,-9.8689,-9.908,-10.0397,-10.1422,-10.1764,-10.2447,-10.2887,-10.2887,-10.3179,-10.2935,-10.191,-10.2154,-10.1374,-9.9177,-9.8103,-9.6834,-9.537,-9.2539,-8.9513,-8.6243,0.0,0.0,0.0,0.0,0.0,0.0,0.0,0.0,0.0,0.0,0.0,0.0,0.0,0.0,0.0,0.0,0.0,0.0,0.0,0.0,0.0,0.0,0.0,0.0,0.0,0.0,-5.2506,-5.4025,0.0,-5.5658,-5.6721,-5.7366,-5.7366,-5.7898,-5.8961,-6.0631,-6.0745,-6.1504,-6.3137,-6.4542,-6.5377,-6.5681,-6.7085,-6.7921,-6.8224,-6.8832,-6.9401,-6.9933,-7.054,-7.111,-7.1603,-7.1603,-7.1337,-7.073,-6.9211,-6.7275,-6.5149,-6.4048,-6.3479,-6.3213,-6.3213,-6.3554,-6.401,-6.401,-6.42,-6.4314,-6.3479,-6.3213,-6.3213,-6.3213,-6.3213,-6.3289,-6.3554,-6.5349,-6.7242,-6.8047,-7.0421,-7.3419,-7.5768,-7.7874,-8.0033,-8.2958,-8.3282,-8.3966,-8.6777,-8.4784,-8.3949,-8.835,-8.974,-9.0701,-9.2337,-9.373,-9.5088,-9.6534,-9.8445,-10.0007,-10.1178,-10.191,-10.2447,-10.2838,-10.2545,-10.2008,-10.1325,-10.0544,-9.9128,-9.6932,-9.5175,-9.2979,-9.0343,-8.7903,-8.5413,0.0,0.0,0.0,0.0,0.0,0.0,0.0,0.0,0.0,0.0,0.0,0.0,0.0,0.0,0.0,0.0,0.0,0.0,0.0,0.0,0.0,0.0,0.0,0.0,0.0,0.0,0.0,-4.833,-5.0722,0.0,0.0,0.0,0.0,-5.4746,-5.4746,-5.5468,-5.71,-5.7176,-5.7974,-5.9682,-6.0555,-6.1428,-6.2264,-6.3175,-6.401,-6.4807,-6.644,-6.7237,-6.7313,-6.8946,-6.9743,-6.9743,-6.9743,-6.9743,-6.9363,-6.5225,-6.2567,-6.1125,-6.1087,-6.0593,-5.9834,-5.9796,-5.9796,-5.9796,-5.9796,-6.0327,-6.0897,-6.01,-5.9872,-5.9834,-5.9796,-5.9796,0.0,0.0,-6.2547,-6.4332,-6.5231,-6.7684,-7.0177,-7.1675,-7.3035,-7.5022,-7.9501,-7.8323,-7.6984,0.0,-8.0154,-8.1676,-8.3208,0.0,-8.4682,-8.521,-8.6976,-8.9645,-9.4002,-9.5468,-9.742,-10.0544,-10.1032,-10.152,-10.2496,-10.1666,-10.1081,-10.0983,-9.8933,-9.6786,-9.4638,-9.332,-9.0245,-8.5072,-8.3754,0.0,0.0,0.0,0.0,0.0,0.0,0.0,0.0,0.0,0.0,0.0,0.0,0.0,0.0,0.0,0.0,0.0,0.0,0.0,0.0,0.0,0.0,0.0,0.0,0.0,0.0,-4.2294,-4.3395,-4.5673,-4.7077,-4.8102,0.0,0.0,0.0,0.0,0.0,0.0,-5.281,-5.2886,-5.3645,-5.5316,-5.6759,-5.7936,-5.8771,-6.0859,-6.1998,-6.2226,-6.3289,-6.4124,-6.4693,-6.5149,-6.5681,-6.625,-6.625,-6.5908,-6.5073,-6.1466,-5.972,-5.9302,-5.8695,-5.7936,-5.7138,-5.6493,-5.6303,-5.6303,-5.6303,-5.6835,-5.748,-5.7252,0.0,-5.71,-5.6493,0.0,0.0,0.0,0.0,-6.0448,-6.1734,-6.3628,-6.6127,-7.0426,-7.1991,-7.3247,-7.5624,-7.7031,-7.6989,0.0,-7.3349,-7.4397,-7.7877,0.0,0.0,0.0,0.0,-8.8434,-8.8647,-9.1807,-9.4296,-9.5126,-9.7371,-9.864,-9.8103,-9.8543,-9.8152,-9.6542,-9.5126,-9.3418,-9.1319,-8.7854,-8.4974,-8.2827,0.0,0.0,0.0,0.0,0.0,0.0,0.0,0.0,0.0,0.0,0.0,0.0,0.0,0.0,0.0,0.0,0.0,0.0,0.0,0.0,0.0,0.0,0.0,0.0,0.0,0.0,0.0,-3.9484,-4.0813,-4.2559,-4.3547,-4.4268,0.0,0.0,0.0,0.0,0.0,0.0,0.0,0.0,0.0,-5.1519,-5.3532,-5.4822,-5.5316,-5.7784,-5.9037,-5.9075,-6.0289,-6.1087,-6.1542,-6.196,-6.2378,-6.2795,-6.2795,-6.1504,-5.9264,-5.7708,-5.6417,-5.543,0.0,0.0,0.0,0.0,-5.2582,-5.2317,-5.2696,-5.3114,0.0,-5.3494,0.0,0.0,0.0,0.0,0.0,0.0,0.0,0.0,0.0,0.0,0.0,-6.6155,-6.8212,-7.0158,-7.2352,-7.2001,-7.0384,0.0,-6.7183,-6.8585,-7.1646,0.0,0.0,0.0,0.0,-8.4711,-8.4607,-8.8391,-9.1417,-9.2344,-9.4492,-9.5809,-9.5712,-9.5809,-9.5175,-9.3515,-9.1954,-8.9904,-8.7268,-8.4388,-8.1216,0.0,0.0,0.0,0.0,0.0,0.0,0.0,0.0,0.0,0.0,0.0,0.0,0.0,0.0,0.0,0.0,0.0,0.0,0.0,0.0,0.0,0.0,0.0,0.0,0.0,0.0,0.0,0.0,0.0,-3.8383,-3.9218,0.0,0.0,0.0,0.0,0.0,0.0,0.0,0.0,0.0,0.0,0.0,0.0,0.0,-5.1557,-5.1671,-5.4253,-5.5582,-5.5582,-5.7252,-5.8049,-5.8087,-5.8961,-5.9378,-5.934,-5.8809,0.0,-5.3152,-5.3645,0.0,0.0,0.0,0.0,0.0,0.0,0.0,0.0,0.0,0.0,0.0,0.0,0.0,0.0,0.0,0.0,0.0,0.0,0.0,0.0,0.0,0.0,-6.0859,-6.0877,-6.3223,-6.6007,0.0,-6.4947,-6.1397,-5.9106,-6.0963,0.0,0.0,0.0,0.0,0.0,0.0,0.0,-8.1345,-8.5218,-8.8684,-9.0587,-9.1807,-9.2881,-9.3906,-9.293,-9.1905,-9.1026,-8.883,-8.6292,-8.3461,-8.1899,0.0,0.0,0.0,0.0,0.0,0.0,0.0,0.0,0.0,0.0,0.0,0.0,0.0,0.0,0.0,0.0,0.0,0.0,0.0,0.0,0.0,0.0,0.0,0.0,0.0,0.0,0.0,0.0,0.0,0.0,0.0,0.0,0.0,0.0,0.0,0.0,0.0,0.0,0.0,0.0,0.0,0.0,0.0,0.0,0.0,0.0,0.0,0.0,0.0,0.0,-5.3835,-5.4633,-5.4671,-5.5506,-5.5885,-5.5696,-5.2203,-5.0304,-4.9507,0.0,0.0,0.0,0.0,0.0,0.0,0.0,0.0,0.0,0.0,0.0,0.0,0.0,0.0,0.0,0.0,0.0,0.0,0.0,0.0,0.0,0.0,0.0,0.0,0.0,-6.0002,-6.1286,0.0,0.0,0.0,0.0,0.0,0.0,0.0,0.0,0.0,0.0,0.0,0.0,-7.8288,-8.2485,-8.5853,-8.6243,-8.8049,-8.9318,-8.9513,-8.8488,-8.7805,-8.761,-8.473,-8.2827,0.0,0.0,0.0,0.0,0.0,0.0,0.0,0.0,0.0,0.0,0.0,0.0,0.0,0.0,0.0,0.0,0.0,0.0,0.0,0.0,0.0,0.0,0.0,0.0,0.0,0.0,0.0,0.0,0.0,0.0,0.0,0.0,0.0,0.0,0.0,0.0,0.0,0.0,0.0,0.0,0.0,0.0,0.0,0.0,0.0,0.0,0.0,0.0,0.0,0.0,0.0,0.0,0.0,0.0,0.0,0.0,0.0,0.0,0.0,-4.5255,0.0,0.0,0.0,0.0,0.0,0.0,0.0,0.0,0.0,0.0,0.0,0.0,0.0,0.0,0.0,0.0,0.0,0.0,0.0,0.0,0.0,0.0,0.0,0.0,0.0,0.0,0.0,0.0,0.0,0.0,0.0,0.0,0.0,0.0,0.0,0.0,0.0,0.0,0.0,0.0,-7.4822,-7.9312,-8.2875,-8.3412,-8.4925,-8.5901,-8.5901,-8.5901,-8.5218,-8.351,-8.1997,0.0,0.0,0.0,0.0,0.0,0.0,0.0,0.0,0.0,0.0,0.0,0.0,0.0,0.0,0.0,0.0,0.0,0.0,0.0,0.0,0.0,0.0,0.0,0.0,0.0,0.0,0.0,0.0,0.0,0.0,0.0,0.0,0.0,0.0,0.0,0.0,0.0,0.0,0.0,0.0,0.0,0.0,0.0,0.0,0.0,0.0,0.0,0.0,0.0,0.0,0.0,0.0,0.0,0.0,0.0,0.0,0.0,0.0,0.0,-4.3509,0.0,0.0,0.0,0.0,0.0,0.0,0.0,0.0,0.0,0.0,0.0,0.0,0.0,0.0,0.0,0.0,0.0,0.0,0.0,0.0,0.0,0.0,0.0,0.0,0.0,0.0,0.0,0.0,0.0,0.0,0.0,0.0,0.0,0.0,0.0,0.0,0.0,0.0,0.0,0.0,0.0,-7.2089,-7.6872,-8.0777,-8.185,-8.2485,-8.3022,-8.351,-8.3705,-8.2729,-8.0191,-7.9166,0.0,0.0,0.0,0.0,0.0,0.0,0.0,0.0,0.0,0.0,0.0,0.0,0.0,0.0,0.0,0.0,0.0,0.0,0.0,0.0,0.0,0.0,0.0,0.0,0.0,0.0,0.0,0.0,0.0,0.0,0.0,0.0,0.0,0.0,0.0,0.0,0.0,0.0,0.0,0.0,0.0,0.0,0.0,0.0,0.0,0.0,0.0,0.0,0.0,0.0,0.0,0.0,0.0,0.0,0.0,0.0,0.0,0.0,0.0,0.0,0.0,0.0,0.0,0.0,0.0,0.0,0.0,0.0,0.0,0.0,0.0,0.0,0.0,0.0,0.0,0.0,0.0,0.0,0.0,0.0,0.0,0.0,0.0,0.0,0.0,0.0,0.0,0.0,0.0,0.0,0.0,0.0,0.0,0.0,0.0,0.0,0.0,0.0,0.0,0.0,0.0,-7.0966,-7.6384,-8.0777,-8.185,-8.1167,-8.146,-8.3363,-8.0972,-7.9215,-7.8922,0.0,0.0,0.0,0.0,0.0,0.0,0.0,0.0,0.0,0.0,0.0,0.0,0.0,0.0,0.0,0.0,0.0,0.0,0.0,0.0,0.0,0.0,0.0,0.0,0.0,0.0,0.0,0.0,0.0,0.0,0.0,0.0,0.0,0.0,0.0,0.0,0.0,0.0,0.0,0.0,0.0,0.0,0.0,0.0,0.0,0.0,0.0,0.0,0.0,0.0,0.0,0.0,0.0,0.0,0.0,0.0,0.0,0.0,0.0,0.0,0.0,0.0,0.0,0.0,0.0,0.0,0.0,0.0,0.0,0.0,0.0,0.0,0.0,0.0,0.0,0.0,0.0,0.0,0.0,0.0,0.0,0.0,0.0,0.0,0.0,0.0,0.0,0.0,0.0,0.0,0.0,0.0,0.0,0.0,0.0,0.0,0.0,0.0,0.0,0.0,0.0,0.0,-6.8721,-7.4432,-7.8824,-7.9898,-7.9654,-7.9752,-8.0581,-8.0093,-7.858,-7.5994,0.0,0.0,0.0,0.0,0.0,0.0,0.0,0.0,0.0,0.0,0.0,0.0,0.0,0.0,0.0,0.0,0.0,0.0,0.0,0.0,0.0,0.0,0.0,0.0,0.0,0.0,0.0,0.0,0.0,0.0,0.0,0.0,0.0,0.0,0.0,0.0,0.0,0.0,0.0,0.0,0.0,0.0,0.0,0.0,0.0,0.0,0.0,0.0,0.0,0.0,0.0,0.0,0.0,0.0,0.0,0.0,0.0,0.0,0.0,0.0,0.0,0.0,0.0,0.0,0.0,0.0,0.0,0.0,0.0,0.0,0.0,0.0,0.0,0.0,0.0,0.0,0.0,0.0,0.0,0.0,0.0,0.0,0.0,0.0,0.0,0.0,0.0,0.0,0.0,0.0,0.0,0.0,0.0,0.0,0.0,0.0,0.0,0.0,0.0,0.0,0.0,0.0,-6.6867,-7.2675,-7.7116,-7.819,-7.8288,-7.8288,-7.8288,-7.8678,-7.7067,-7.2723,0.0,0.0,0.0,0.0,0.0,0.0,0.0,0.0,0.0,0.0,0.0,0.0,0.0,0.0,0.0,0.0,0.0,0.0,0.0,0.0,0.0,0.0,0.0,0.0,0.0,0.0,0.0,0.0,0.0,0.0,0.0,0.0,0.0,0.0,0.0,0.0,0.0,0.0,0.0,0.0,0.0,0.0,0.0,0.0,0.0,0.0,0.0,0.0,0.0,0.0,0.0,0.0,0.0,0.0,0.0,0.0,0.0,0.0,0.0,0.0,0.0,0.0,0.0,0.0,0.0,0.0,0.0,0.0,0.0,0.0,0.0,0.0,0.0,0.0,0.0,0.0,0.0,0.0,0.0,0.0,0.0,0.0,0.0,0.0,0.0,0.0,0.0,0.0,0.0,0.0,0.0,0.0,0.0,0.0,0.0,0.0,0.0,0.0,0.0,0.0,0.0,0.0,-6.5793,-7.1552,-7.5994,-7.7067,-7.7165,-7.7165,-7.7165,-7.6238,-7.3748,0.0,0.0,0.0,0.0,0.0,0.0,0.0,0.0,0.0,0.0,0.0,0.0,0.0,0.0,0.0,0.0,0.0,0.0,0.0,0.0,0.0,0.0,0.0,0.0,0.0,0.0,0.0,0.0,0.0,0.0,0.0,0.0,0.0,0.0,0.0,0.0,0.0,0.0,0.0,0.0,0.0,0.0,0.0,0.0,0.0,0.0,0.0,0.0,0.0,0.0,0.0,0.0,0.0,0.0,0.0,0.0,0.0,0.0,0.0,0.0,0.0,0.0,0.0,0.0,0.0,0.0,0.0,0.0,0.0,0.0,0.0,0.0,0.0,0.0,0.0,0.0,0.0,0.0,0.0,0.0,0.0,0.0,0.0,0.0,0.0,0.0,0.0,0.0,0.0,0.0,0.0,0.0,0.0,0.0,0.0,0.0,0.0,0.0,0.0,0.0,0.0,0.0,0.0,-6.3499,-6.9941,-7.4822,-7.5945,-7.6726,-7.6872,-7.614,-7.5066,-7.2284,-6.7208,0.0,0.0,0.0,0.0,0.0,0.0,0.0,0.0,0.0,0.0,0.0,0.0,0.0,0.0,0.0,0.0,0.0,0.0,0.0,0.0,0.0,0.0,0.0,0.0,0.0,0.0,0.0,0.0,0.0,0.0,0.0,0.0,0.0,0.0,0.0,0.0,0.0,0.0,0.0,0.0,0.0,0.0,0.0,0.0,0.0,0.0,0.0,0.0,0.0,0.0,0.0,0.0,0.0,0.0,0.0,0.0,0.0,0.0,0.0,0.0,0.0,0.0,0.0,0.0,0.0,0.0,0.0,0.0,0.0,0.0,0.0,0.0,0.0,0.0,0.0,0.0,0.0,0.0,0.0,0.0,0.0,0.0,0.0,0.0,0.0,0.0,0.0,0.0,0.0,0.0,0.0,0.0,0.0,0.0,0.0,0.0,0.0,0.0,0.0,0.0,0.0,0.0,0.0,-6.9112,-7.37,-7.4822,-7.6286,-7.6579,-7.5066,-7.3895,-7.082,-6.5012,0.0,0.0,0.0,0.0,0.0,0.0,0.0,0.0,0.0,0.0,0.0,0.0,0.0,0.0,0.0,0.0,0.0,0.0,0.0,0.0,0.0,0.0,0.0,0.0,0.0,0.0,0.0,0.0,0.0,0.0,0.0,0.0,0.0,0.0,0.0,0.0,0.0,0.0,0.0,0.0,0.0,0.0,0.0,0.0,0.0,0.0,0.0,0.0,0.0,0.0,0.0,0.0,0.0,0.0,0.0,0.0,0.0,0.0,0.0,0.0,0.0,0.0,0.0,0.0,0.0,0.0,0.0,0.0,0.0,0.0,0.0,0.0,0.0,0.0,0.0,0.0,0.0,0.0,0.0,0.0,0.0,0.0,0.0,0.0,0.0,0.0,0.0,0.0,0.0,0.0,0.0,0.0,0.0,0.0,0.0,0.0,0.0,0.0,0.0,0.0,0.0,0.0,0.0,-6.8672,-7.2382,-7.3553,-7.5603,-7.6091,-7.3944,-7.2723,-6.9307,-6.2913,-6.0473,0.0,0.0,0.0,0.0,0.0,0.0,0.0,0.0,0.0,0.0,0.0,0.0,0.0,0.0,0.0,0.0,0.0,0.0,0.0,0.0,0.0,0.0,0.0,0.0,0.0,0.0,0.0,0.0,0.0,0.0,0.0,0.0,0.0,0.0,0.0,0.0,0.0,0.0,0.0,0.0,0.0,0.0,0.0,0.0,0.0,0.0,0.0,0.0,0.0,0.0,0.0,0.0,0.0,0.0,0.0,0.0,0.0,0.0,0.0,0.0,0.0,0.0,0.0,0.0,0.0,0.0,0.0,0.0,0.0,0.0,0.0,0.0,0.0,0.0,0.0,0.0,0.0,0.0,0.0,0.0,0.0,0.0,0.0,0.0,0.0,0.0,0.0,0.0,0.0,0.0,0.0,0.0,0.0,0.0,0.0,0.0,0.0,0.0,0.0,0.0,0.0,0.0,-6.5793,-6.9356,-7.121,-7.3358,-7.4139,-7.2772,-7.0918,-6.7452,-6.1742,-5.8618,0.0,0.0,0.0,0.0,0.0,0.0,0.0,0.0,0.0,0.0,0.0,0.0,0.0,0.0,0.0,0.0,0.0,0.0,0.0,0.0,0.0,0.0,0.0,0.0,0.0,0.0,0.0,0.0,0.0,0.0,0.0,0.0,0.0,0.0,0.0,0.0,0.0,0.0,0.0,0.0,0.0,0.0,0.0,0.0,0.0,0.0,0.0,0.0,0.0,0.0,0.0,0.0,0.0,0.0,0.0,0.0,0.0,0.0,0.0,0.0,0.0,0.0,0.0,0.0,0.0,0.0,0.0,0.0,0.0,0.0,0.0,0.0,0.0,0.0,0.0,0.0,0.0,0.0,0.0,0.0,0.0,0.0,0.0,0.0,0.0,0.0,0.0,0.0,0.0,0.0,0.0,0.0,0.0,0.0,0.0,0.0,0.0,0.0,0.0,0.0,0.0,0.0,-6.1546,-6.5939,-6.9551,-7.1894,-7.2528,-7.0966,-6.8868,-6.5353,-5.9936,-5.6568,0.0,0.0,0.0,0.0,0.0,0.0,0.0,0.0,0.0,0.0,0.0,0.0,0.0,0.0,0.0,0.0,0.0,0.0,0.0,0.0,0.0,0.0,0.0,0.0,0.0,0.0,0.0,0.0,0.0,0.0,0.0,0.0,0.0,0.0,0.0,0.0,0.0,0.0,0.0,0.0,0.0,0.0,0.0,0.0,0.0,0.0,0.0,0.0,0.0,0.0,0.0,0.0,0.0,0.0,0.0,0.0,0.0,0.0,0.0,0.0,0.0,0.0,0.0,0.0,0.0,0.0,0.0,0.0,0.0,0.0,0.0,0.0,0.0,0.0,0.0,0.0,0.0,0.0,0.0,0.0,0.0,0.0,0.0,0.0,0.0,0.0,0.0,0.0,0.0,0.0,0.0,0.0,0.0,0.0,0.0,0.0,0.0,0.0,0.0,0.0,0.0,0.0,0.0,-6.262,-6.7355,-7.0088,-7.082,-6.9014,-6.6867,-6.345,-5.8228,0.0,0.0,0.0,0.0,0.0,0.0,0.0,0.0,0.0,0.0,0.0,0.0,0.0,0.0,0.0,0.0,0.0,0.0,0.0,0.0,0.0,0.0,0.0,0.0,0.0,0.0,0.0,0.0,0.0,0.0,0.0,0.0,0.0,0.0,0.0,0.0,0.0,0.0,0.0,0.0,0.0,0.0,0.0,0.0,0.0,0.0,0.0,0.0,0.0,0.0,0.0,0.0,0.0,0.0,0.0,0.0,0.0,0.0,0.0,0.0,0.0,0.0,0.0,0.0,0.0,0.0,0.0,0.0,0.0,0.0,0.0,0.0,0.0,0.0,0.0,0.0,0.0,0.0,0.0,0.0,0.0,0.0,0.0,0.0,0.0,0.0,0.0,0.0,0.0,0.0,0.0,0.0,0.0,0.0,0.0,0.0,0.0,0.0,0.0,0.0,0.0,0.0,0.0,0.0,-6.0375,-6.2083,-6.5842,-6.8087,-6.7794,-6.5793,-6.262,-5.8179,0.0,0.0,0.0,0.0,0.0,0.0,0.0,0.0,0.0,0.0,0.0,0.0,0.0,0.0]}]]]